[[{"header":{"parameterUnit":"m.s-1","parameterCategory":1,"la1":30.6,"la2":29.2853,"lo1":-89.7004,"lo2":-87.6739,"dy":0.0162,"dx":0.0183,"nx":112,"ny":82,"refTime":"2026-05-11T12:00:00:Z","depth":0,"parameterNumber":2,"parameterNumberName":"U-component_of_WINDS"},"data":[0.0,0.0,0.0,0.0,0.0,0.0,0.0,0.0,0.0,0.0,0.0,0.0,0.0,0.0,0.0,0.0,0.0,0.0,0.0,0.0,0.0,0.0,0.0,0.0,0.0,0.0,0.0,0.0,0.0,0.0,0.0,0.0,0.0,0.0,0.0,0.0,0.0,0.0,0.0,0.0,0.0,0.0,0.0,0.0,0.0,0.0,0.0,0.0,0.0,0.0,0.0,0.0,0.0,0.0,0.0,0.0,0.0,0.0,0.0,0.0,0.0,0.0,0.0,0.0,0.0,0.0,0.0,0.0,0.0,0.0,0.0,0.0,0.0,0.0,0.0,0.0,0.0,0.0,0.0,0.0,0.0,0.0,0.0,0.0,0.0,0.0,0.0,0.0,0.0,0.0,-0.4528,-0.3044,-0.4106,-0.4883,-0.482,-0.4742,-0.464,-0.4514,0.0,0.0,0.0,0.0,0.0,0.0,0.0,0.0,0.0,0.0,0.0,0.0,0.0,0.0,0.0,0.0,0.0,0.0,0.0,0.0,0.0,0.0,0.0,0.0,0.0,0.0,0.0,0.0,0.0,0.0,0.0,0.0,0.0,0.0,0.0,0.0,0.0,0.0,0.0,0.0,0.0,0.0,0.0,0.0,0.0,0.0,0.0,0.0,0.0,0.0,0.0,0.0,0.0,0.0,0.0,0.0,0.0,0.0,0.0,0.0,0.0,0.0,0.0,0.0,0.0,0.0,0.0,0.0,0.0,0.0,0.0,0.0,0.0,0.0,0.0,0.0,0.0,0.0,0.0,0.0,0.0,0.0,0.0,0.0,0.0,0.0,0.0,0.0,0.0,0.0,0.0,0.0,0.0,0.0,0.0,0.0,0.0,0.0,0.0,0.0,0.0,0.0,0.0,0.0,-0.498,-0.4663,-0.4839,-0.4963,-0.4885,-0.4767,-0.467,-0.4592,0.0,0.0,0.0,0.0,0.0,0.0,0.0,0.0,0.0,0.0,0.0,0.0,0.0,0.0,0.0,0.0,0.0,0.0,0.0,0.0,0.0,0.0,0.0,0.0,0.0,0.0,0.0,0.0,0.0,0.0,0.0,0.0,0.0,0.0,0.0,0.0,0.0,0.0,0.0,0.0,0.0,0.0,0.0,0.0,0.0,0.0,0.0,0.0,0.0,0.0,0.0,0.0,0.0,0.0,0.0,0.0,0.0,0.0,0.0,0.0,0.0,0.0,0.0,0.0,0.0,0.0,0.0,0.0,0.0,0.0,0.0,0.0,0.0,0.0,0.0,0.0,0.0,0.0,0.0,0.0,0.0,0.0,0.0,0.0,0.0,0.0,0.0,0.0,0.0,0.0,0.0,0.0,0.0,0.0,0.0,0.0,0.0,0.0,0.0,0.0,0.0,0.0,0.0,-0.4541,-0.5091,-0.5063,-0.5029,-0.4988,-0.4956,-0.4822,-0.4741,-0.4702,-0.3168,0.0,0.0,0.0,0.0,0.0,0.0,0.0,0.0,0.0,0.0,0.0,0.0,0.0,0.0,0.0,0.0,0.0,0.0,0.0,0.0,0.0,0.0,0.0,0.0,0.0,0.0,0.0,0.0,0.0,0.0,0.0,0.0,0.0,0.0,0.0,0.0,0.0,0.0,0.0,0.0,0.0,0.0,0.0,0.0,0.0,0.0,0.0,0.0,0.0,0.0,0.0,0.0,0.0,0.0,0.0,0.0,0.0,0.0,0.0,0.0,0.0,0.0,0.0,0.0,0.0,0.0,0.0,0.0,0.0,0.0,0.0,0.0,0.0,0.0,0.0,0.0,0.0,0.0,0.0,0.0,0.0,0.0,0.0,0.0,0.0,0.0,0.0,0.0,0.0,0.0,0.0,0.0,0.0,0.0,0.0,0.0,0.0,0.0,0.0,0.0,0.0,0.0,-0.4066,-0.5104,-0.5095,-0.5044,-0.5009,-0.4993,-0.4887,-0.482,-0.4806,-0.3238,0.0,0.0,0.0,0.0,0.0,0.0,0.0,0.0,0.0,0.0,0.0,0.0,0.0,0.0,0.0,0.0,0.0,0.0,0.0,0.0,0.0,0.0,0.0,0.0,0.0,0.0,0.0,0.0,0.0,0.0,0.0,0.0,0.0,0.0,0.0,0.0,0.0,0.0,0.0,0.0,0.0,0.0,0.0,0.0,0.0,0.0,0.0,0.0,0.0,0.0,0.0,0.0,0.0,0.0,0.0,0.0,0.0,0.0,0.0,0.0,0.0,0.0,0.0,0.0,0.0,0.0,0.0,0.0,0.0,0.0,0.0,0.0,0.0,0.0,0.0,0.0,0.0,0.0,0.0,0.0,0.0,0.0,0.0,0.0,0.0,0.0,0.0,0.0,0.0,0.0,0.0,0.0,0.0,0.0,0.0,0.0,0.0,0.0,0.0,0.0,0.0,0.0,-0.4066,-0.5104,-0.5095,-0.5034,-0.5001,-0.4995,-0.4933,-0.4862,-0.4811,-0.3286,0.0,0.0,0.0,0.0,0.0,0.0,0.0,0.0,0.0,0.0,0.0,0.0,0.0,0.0,0.0,0.0,0.0,0.0,0.0,0.0,0.0,0.0,0.0,0.0,0.0,0.0,0.0,0.0,0.0,0.0,0.0,0.0,0.0,0.0,0.0,0.0,0.0,0.0,0.0,0.0,0.0,0.0,0.0,0.0,0.0,0.0,0.0,0.0,0.0,0.0,0.0,0.0,0.0,0.0,0.0,0.0,0.0,0.0,0.0,0.0,0.0,0.0,0.0,0.0,0.0,0.0,0.0,0.0,0.0,0.0,0.0,0.0,0.0,0.0,0.0,0.0,0.0,0.0,0.0,0.0,0.0,0.0,0.0,0.0,0.0,0.0,0.0,0.0,0.0,0.0,0.0,0.0,0.0,0.0,0.0,0.0,0.0,0.0,0.0,0.0,0.0,0.0,-0.4713,-0.5107,-0.5104,-0.5085,-0.5054,-0.501,-0.4942,-0.489,-0.4859,0.0,0.0,0.0,0.0,0.0,0.0,0.0,0.0,0.0,0.0,0.0,0.0,0.0,0.0,0.0,0.0,0.0,0.0,0.0,0.0,0.0,0.0,0.0,0.0,0.0,0.0,0.0,0.0,0.0,0.0,0.0,0.0,0.0,0.0,0.0,0.0,0.0,0.0,0.0,0.0,0.0,0.0,0.0,0.0,0.0,0.0,0.0,0.0,0.0,0.0,0.0,0.0,0.0,0.0,0.0,0.0,0.0,0.0,0.0,0.0,0.0,0.0,0.0,0.0,0.0,0.0,0.0,0.0,0.0,0.0,0.0,0.0,0.0,0.0,0.0,0.0,0.0,0.0,0.0,0.0,0.0,0.0,0.0,0.0,0.0,0.0,0.0,0.0,0.0,0.0,0.0,0.0,0.0,0.0,0.0,0.0,0.0,0.0,0.0,0.0,0.0,0.0,-0.5025,-0.5109,-0.5095,-0.5109,-0.5091,-0.5082,-0.4999,-0.4947,-0.4892,-0.486,0.0,0.0,0.0,0.0,0.0,0.0,0.0,0.0,0.0,0.0,0.0,0.0,0.0,0.0,0.0,0.0,0.0,0.0,0.0,0.0,0.0,0.0,0.0,0.0,0.0,0.0,0.0,0.0,0.0,0.0,0.0,0.0,0.0,0.0,0.0,0.0,0.0,0.0,0.0,0.0,0.0,0.0,0.0,0.0,0.0,0.0,0.0,0.0,0.0,0.0,0.0,0.0,0.0,0.0,0.0,0.0,0.0,0.0,0.0,0.0,0.0,0.0,0.0,0.0,0.0,0.0,0.0,0.0,0.0,0.0,0.0,0.0,0.0,0.0,0.0,0.0,0.0,0.0,0.0,0.0,0.0,0.0,0.0,0.0,0.0,0.0,0.0,0.0,0.0,0.0,0.0,0.0,0.0,0.0,0.0,0.0,0.0,0.0,0.0,0.0,0.0,0.0,-0.4888,-0.5097,-0.5107,-0.5091,-0.5091,-0.5082,-0.4999,-0.4947,-0.4867,0.0,0.0,0.0,0.0,0.0,0.0,0.0,0.0,0.0,0.0,0.0,0.0,0.0,0.0,0.0,0.0,0.0,0.0,0.0,0.0,0.0,0.0,0.0,0.0,0.0,0.0,0.0,0.0,0.0,0.0,0.0,0.0,0.0,0.0,0.0,0.0,0.0,0.0,0.0,0.0,0.0,0.0,0.0,0.0,0.0,0.0,0.0,0.0,0.0,0.0,0.0,0.0,0.0,0.0,0.0,0.0,0.0,0.0,0.0,0.0,0.0,0.0,0.0,0.0,0.0,0.0,0.0,0.0,0.0,0.0,0.0,0.0,0.0,0.0,0.0,0.0,0.0,0.0,0.0,0.0,0.0,0.0,0.0,0.0,0.0,0.0,0.0,0.0,0.0,0.0,0.0,0.0,0.0,0.0,0.0,0.0,0.0,0.0,0.0,0.0,0.0,0.0,0.0,-0.4888,-0.5097,-0.5107,-0.5091,-0.5091,-0.5082,-0.4999,-0.4938,-0.4862,-0.4797,0.0,0.0,0.0,0.0,0.0,0.0,0.0,0.0,0.0,0.0,0.0,0.0,0.0,0.0,0.0,0.0,0.0,0.0,0.0,0.0,0.0,0.0,0.0,0.0,0.0,0.0,0.0,0.0,0.0,0.0,0.0,0.0,0.0,0.0,0.0,0.0,0.0,0.0,0.0,0.0,0.0,0.0,0.0,0.0,0.0,0.0,0.0,0.0,0.0,0.0,0.0,0.0,0.0,0.0,0.0,0.0,0.0,0.0,0.0,0.0,0.0,0.0,0.0,0.0,0.0,0.0,0.0,0.0,0.0,0.0,0.0,0.0,0.0,0.0,0.0,0.0,0.0,0.0,0.0,0.0,0.0,0.0,0.0,0.0,0.0,0.0,0.0,0.0,0.0,0.0,0.0,0.0,0.0,0.0,0.0,0.0,0.0,0.0,0.0,0.0,0.0,0.0,-0.4888,-0.5097,-0.5107,-0.5091,-0.5091,-0.5065,-0.5008,-0.4947,-0.489,-0.4851,0.0,0.0,0.0,0.0,0.0,0.0,0.0,0.0,0.0,0.0,0.0,0.0,0.0,0.0,0.0,0.0,0.0,0.0,0.0,0.0,0.0,0.0,0.0,0.0,0.0,0.0,0.0,0.0,0.0,0.0,0.0,0.0,0.0,0.0,0.0,0.0,0.0,0.0,0.0,0.0,0.0,0.0,0.0,0.0,0.0,0.0,0.0,0.0,0.0,0.0,0.0,0.0,0.0,0.0,0.0,0.0,0.0,0.0,0.0,0.0,0.0,0.0,0.0,0.0,0.0,0.0,0.0,0.0,0.0,0.0,0.0,0.0,0.0,0.0,0.0,0.0,0.0,0.0,0.0,0.0,0.0,0.0,0.0,0.0,0.0,0.0,0.0,0.0,0.0,0.0,0.0,0.0,0.0,0.0,0.0,0.0,0.0,0.0,0.0,0.0,0.0,0.0,-0.4888,-0.5097,-0.5107,-0.5092,-0.5092,-0.5069,-0.5002,-0.4937,-0.4898,-0.4894,0.0,0.0,0.0,0.0,0.0,0.0,0.0,0.0,0.0,0.0,0.0,0.0,0.0,0.0,0.0,0.0,0.0,0.0,0.0,0.0,0.0,0.0,0.0,0.0,0.0,0.0,0.0,0.0,0.0,0.0,0.0,0.0,0.0,0.0,0.0,0.0,0.0,0.0,0.0,0.0,0.0,0.0,0.0,0.0,0.0,0.0,0.0,0.0,0.0,0.0,0.0,0.0,0.0,0.0,0.0,0.0,0.0,0.0,0.0,0.0,-0.7731,-0.7382,0.0,0.0,0.0,0.0,0.0,0.0,0.0,0.0,0.0,0.0,0.0,0.0,0.0,0.0,0.0,0.0,0.0,0.0,0.0,0.0,0.0,0.0,0.0,0.0,0.0,0.0,0.0,0.0,0.0,0.0,0.0,0.0,0.0,0.0,0.0,0.0,0.0,0.0,0.0,0.0,-0.4893,-0.51,-0.5109,-0.51,-0.5103,-0.5081,-0.4996,-0.4992,-0.4933,-0.4831,-0.3301,0.0,0.0,0.0,0.0,0.0,0.0,0.0,0.0,0.0,0.0,0.0,0.0,0.0,0.0,0.0,0.0,0.0,0.0,0.0,0.0,0.0,0.0,0.0,0.0,0.0,0.0,0.0,0.0,0.0,0.0,0.0,0.0,0.0,0.0,0.0,0.0,0.0,0.0,0.0,0.0,0.0,0.0,0.0,0.0,0.0,0.0,0.0,0.0,0.0,0.0,0.0,0.0,0.0,0.0,0.0,0.0,0.0,0.0,0.0,-1.0137,-0.9569,0.0,0.0,0.0,0.0,0.0,0.0,0.0,0.0,0.0,0.0,0.0,0.0,0.0,0.0,0.0,0.0,0.0,0.0,0.0,0.0,0.0,0.0,0.0,0.0,0.0,0.0,0.0,0.0,0.0,0.0,0.0,0.0,0.0,0.0,0.0,0.0,0.0,0.0,0.0,0.0,-0.4891,-0.5101,-0.5094,-0.5103,-0.5105,-0.5087,-0.505,-0.501,-0.4959,-0.4858,-0.4037,0.0,0.0,0.0,0.0,0.0,0.0,0.0,0.0,0.0,0.0,0.0,0.0,0.0,0.0,0.0,0.0,0.0,0.0,0.0,0.0,0.0,0.0,0.0,0.0,0.0,0.0,0.0,0.0,0.0,0.0,0.0,0.0,0.0,0.0,0.0,0.0,0.0,0.0,0.0,0.0,0.0,0.0,0.0,0.0,0.0,0.0,0.0,0.0,0.0,0.0,0.0,0.0,0.0,-1.0643,-1.1039,-1.1734,-1.2033,-1.2495,-1.3018,-1.2656,-1.2245,-1.1776,-1.1049,0.0,0.0,0.0,0.0,0.0,0.0,0.0,0.0,0.0,0.0,0.0,0.0,0.0,0.0,0.0,0.0,0.0,0.0,0.0,0.0,0.0,0.0,-0.7386,-0.7816,-0.7479,-0.6541,-0.4708,0.0,0.0,0.0,0.0,0.0,0.0,0.0,0.0,0.0,0.0,0.0,-0.4926,-0.5101,-0.5098,-0.5105,-0.5108,-0.5093,-0.5101,-0.5045,-0.4964,-0.4905,-0.4851,-0.3611,0.0,0.0,0.0,0.0,0.0,0.0,0.0,0.0,0.0,0.0,0.0,0.0,0.0,0.0,0.0,0.0,0.0,0.0,0.0,0.0,0.0,0.0,0.0,0.0,0.0,0.0,0.0,0.0,0.0,0.0,0.0,0.0,-0.3773,-0.1193,0.0,0.0,0.0,0.0,0.0,0.0,0.0,0.0,0.0,0.0,0.0,0.0,0.0,-0.985,-1.1045,-1.1882,-1.2358,-1.2455,-1.2455,-1.252,-1.2688,-1.4201,-1.4546,-1.4012,-1.5427,0.0,-1.2713,-1.2593,0.0,0.0,0.0,0.0,0.0,0.0,0.0,0.0,0.0,0.0,0.0,0.0,0.0,0.0,0.0,0.0,0.0,0.0,0.0,0.0,0.0,0.0,-0.8744,-0.8805,-0.8199,-0.7514,-0.7219,-0.6648,-0.6019,-0.5412,-0.3841,-0.2534,0.0,0.0,0.0,0.0,0.0,0.0,-0.5062,-0.5101,-0.5099,-0.5093,-0.5098,-0.5103,-0.5093,-0.5039,-0.4976,-0.4905,-0.4899,-0.4672,-0.4189,-0.1481,0.0,0.0,0.0,0.0,0.0,0.0,0.0,0.0,0.0,0.0,0.0,0.0,0.0,0.0,0.0,0.0,0.0,0.0,0.0,0.0,0.0,0.0,0.0,0.0,0.0,0.0,0.0,0.0,0.0,-0.4634,-0.5217,-0.3806,-0.4446,-0.5009,0.0,0.0,0.0,0.0,0.0,0.0,0.0,0.0,0.0,-1.0049,-1.0895,-1.1868,-1.295,-1.3791,-1.4455,-1.4942,-1.5425,-1.5665,-1.5696,-1.645,-1.6621,-1.6325,-1.71,-1.6794,-1.5644,-1.4179,-1.2868,-1.1754,0.0,0.0,0.0,0.0,-1.1186,-1.1244,-1.1634,-1.1438,-1.1028,-1.1028,0.0,0.0,0.0,0.0,0.0,0.0,0.0,-1.0469,-1.0468,-1.0819,-1.1073,-1.0585,-1.0175,-0.9766,-0.9258,-0.8814,-0.8093,-0.6696,-0.6239,-0.5715,-0.4549,-0.496,0.0,0.0,0.0,-0.5823,-0.518,-0.5101,-0.5101,-0.5098,-0.5109,-0.5098,-0.5104,-0.5033,-0.4995,-0.4956,-0.4927,-0.4885,-0.4853,-0.3506,-0.1882,0.0,0.0,0.0,0.0,0.0,0.0,0.0,0.0,0.0,0.0,0.0,0.0,0.0,0.0,0.0,0.0,0.0,0.0,0.0,0.0,0.0,0.0,0.0,0.0,0.0,0.0,0.0,0.0,-0.6006,-0.6527,-0.6488,-0.6885,-0.7124,0.0,0.0,0.0,0.0,0.0,0.0,-0.9951,-1.1152,-1.2046,-1.2476,-1.314,-1.3975,-1.5062,-1.5666,-1.6288,-1.6932,-1.7589,-1.7904,-1.7934,-1.8141,-1.8156,-1.8017,-1.8246,-1.8213,-1.7844,-1.5898,-1.4609,-1.3867,-1.3866,-1.3748,-1.3571,-1.3783,-1.3879,-1.3899,-1.4134,-1.3627,-1.2906,-1.2908,-1.2168,-1.123,-1.1015,0.0,0.0,0.0,0.0,-1.1912,-1.1912,-1.2381,-1.2713,-1.207,-1.1914,-1.1738,-1.1073,-1.0778,-0.9999,-0.7851,-0.8079,-0.8122,-0.6498,-0.703,0.0,-0.7092,-0.7033,-0.6643,-0.5571,-0.5435,-0.5356,-0.5121,-0.5097,-0.5107,-0.5091,-0.5063,-0.5012,-0.5003,-0.4957,-0.4917,-0.4911,-0.4903,-0.3743,-0.1281,0.0,0.0,0.0,0.0,0.0,0.0,0.0,0.0,0.0,0.0,0.0,0.0,0.0,0.0,0.0,0.0,0.0,0.0,0.0,0.0,0.0,0.0,0.0,0.0,0.0,0.0,0.0,0.0,0.0,-0.7472,-0.788,0.0,0.0,0.0,0.0,-0.9967,-1.0875,-1.1735,-1.2552,-1.2688,-1.3489,-1.5151,-1.5248,-1.605,-1.7691,-1.775,-1.7789,-1.7847,-1.7884,-1.7926,-1.8011,-1.8781,-1.8714,-1.8044,-1.8871,-1.8757,-1.7995,-1.7865,-1.7282,-1.6502,-1.6503,-1.5996,-1.5369,-1.6203,-1.6513,-1.663,-1.7451,-1.716,-1.6441,-1.6445,-1.5291,-1.3758,-1.2937,-1.2663,0.0,0.0,-1.2702,-1.2742,-1.2744,-1.2766,-1.2789,-1.2753,-1.2734,-1.273,-1.2687,-1.2076,-1.1001,-0.9236,-0.8941,-0.8684,-0.7767,0.0,-0.7698,-0.7659,-0.7659,-0.7329,-0.6452,-0.6335,-0.6022,-0.518,-0.5097,-0.5107,-0.5091,-0.509,-0.5066,-0.4998,-0.5006,-0.497,-0.4912,-0.4892,-0.4785,-0.4553,-0.1554,0.0,0.0,0.0,0.0,0.0,0.0,0.0,0.0,0.0,0.0,0.0,0.0,0.0,0.0,0.0,0.0,0.0,0.0,0.0,0.0,0.0,0.0,0.0,0.0,0.0,0.0,0.0,0.0,-1.0013,-1.0732,0.0,-1.0968,-1.1083,-1.1351,-1.1845,-1.317,-1.4084,-1.4395,-1.5463,-1.6361,-1.6995,-1.7004,-1.7304,-1.7897,-1.8465,-1.8739,-1.8739,-1.9304,-1.9599,-1.9623,-1.9904,-1.9893,-1.9686,-2.0005,-1.9967,-1.967,-1.9631,-1.8796,-1.7534,-1.7538,-1.7344,-1.7109,-1.7415,-1.7546,-1.7582,-1.7891,-1.7799,-1.7535,-1.7539,-1.7123,-1.6549,-1.6237,-1.5749,-1.5301,-1.5301,-1.4911,-1.4463,-1.4464,-1.4465,-1.4331,-1.3767,-1.3633,-1.3474,-1.2923,-1.2564,-1.2028,-1.0843,-1.0198,-0.9747,-0.9434,-0.9374,-0.9179,-0.8614,-0.8536,-0.8225,-0.7348,-0.7231,-0.7112,-0.6811,-0.6742,-0.6497,-0.5978,-0.6415,-0.6216,-0.5076,-0.5491,-0.5501,-0.4931,-0.4894,-0.4872,-0.4793,-0.2652,-0.1042,0.0,0.0,0.0,0.0,0.0,0.0,0.0,0.0,0.0,0.0,0.0,0.0,0.0,0.0,0.0,0.0,0.0,0.0,0.0,0.0,0.0,0.0,0.0,0.0,0.0,-0.9104,-1.0529,-1.1406,-1.2261,-1.2805,-1.2805,-1.331,-1.3639,-1.3639,-1.5211,-1.6182,-1.6188,-1.7274,-1.8038,-1.8325,-1.8337,-1.8483,-1.8764,-1.9354,-1.9649,-1.9649,-2.0213,-2.0507,-2.049,-2.0517,-2.0562,-2.0605,-2.0591,-2.059,-2.0625,-2.0837,-2.0119,-1.8877,-1.8843,-1.8866,-1.8887,-1.8882,-1.8875,-1.8831,-1.8534,-1.8446,-1.8397,-1.8104,-1.7997,-1.8007,-1.8007,-1.7597,-1.7149,-1.7149,-1.6721,-1.6214,-1.5904,-1.5847,-1.5616,-1.4741,-1.4531,-1.4374,-1.3806,-1.3447,-1.3065,-1.2496,-1.1479,-1.0619,-1.0347,-1.0308,-1.0094,-0.9529,-0.9432,-0.912,-0.8244,-0.8147,-0.8026,-0.7724,-0.7651,-0.7308,-0.6461,-0.6874,-0.6672,-0.5513,-0.5909,-0.6073,-0.5799,-0.5502,-0.5171,-0.48,-0.2685,-0.1061,0.0,0.0,0.0,0.0,0.0,0.0,0.0,0.0,0.0,0.0,0.0,0.0,0.0,0.0,0.0,0.0,0.0,0.0,0.0,0.0,0.0,0.0,0.0,0.0,-0.9161,-0.9789,-1.0633,-1.1472,-1.2361,-1.2921,-1.2921,-1.4414,-1.5384,-1.5384,-1.6977,-1.7933,-1.7946,-1.7966,-1.8364,-1.922,-1.9248,-1.9645,-2.0486,-2.0494,-2.0517,-2.0537,-2.0537,-2.0556,-2.0577,-2.0642,-2.0683,-2.0684,-2.0689,-2.0689,-2.0743,-2.1511,-2.1374,-2.0666,-2.0573,-2.056,-2.0605,-2.0603,-2.0597,-2.0476,-1.9636,-1.9332,-1.9199,-1.8357,-1.8089,-1.8085,-1.8085,-1.8067,-1.8047,-1.8047,-1.8028,-1.7815,-1.6962,-1.6732,-1.6523,-1.5654,-1.5447,-1.543,-1.541,-1.4741,-1.4127,-1.4104,-1.2731,-1.1321,-1.0484,-1.0347,-1.0328,-1.0308,-1.0308,0.0,-0.914,-0.9042,-0.8708,-0.786,-0.7769,-0.7426,-0.6559,-0.645,-0.6398,-0.6353,-0.63,-0.6654,-0.7475,-0.6659,-0.5752,-0.4814,-0.1688,-0.0109,-0.0145,0.0,0.0,0.0,0.0,0.0,0.0,0.0,0.0,0.0,0.0,0.0,0.0,0.0,0.0,0.0,0.0,0.0,0.0,0.0,0.0,0.0,-0.947,-1.0225,-0.9983,-1.1723,-1.3111,-1.336,-1.4675,-1.5564,-1.5564,-1.6532,-1.7188,-1.7188,-1.82,-1.8848,-1.8843,-1.9432,-1.9891,-2.0145,-2.0137,-2.0282,-2.0561,-2.0567,-2.0881,-2.1524,-2.1524,-2.1818,-2.2385,-2.2405,-2.2406,-2.2406,-2.2408,-2.241,-2.2432,-2.2653,-2.2615,-2.2341,-2.1693,-2.1108,-2.0603,-2.0604,-2.0573,-2.0498,-2.0253,-2.0169,-2.0136,-1.9959,-1.985,-1.9812,-1.9812,-1.9407,-1.8943,-1.8943,-1.8498,-1.7936,-1.7703,-1.7646,-1.7414,-1.6556,-1.6346,-1.6172,-1.5544,-1.5207,-1.4866,-1.4211,-1.3719,-1.2918,-1.1438,-1.1165,-1.097,-1.0386,-1.0308,-1.0211,-0.9977,-0.9938,-0.9837,-0.9534,-0.9521,-0.9157,-0.8285,-0.8723,-0.8535,-0.7313,-0.7778,-0.79,-0.7511,-0.6667,-0.5734,-0.4746,-0.2758,-0.2316,0.0,0.0,0.0,0.0,0.0,0.0,0.0,0.0,0.0,0.0,0.0,0.0,0.0,0.0,0.0,0.0,0.0,0.0,0.0,0.0,0.0,0.0,-1.0875,-1.1885,-1.19,-1.3173,-1.4231,-1.4595,-1.5833,-1.6762,-1.7112,-1.7921,-1.8442,-1.8442,-1.9252,-1.9742,-1.9741,-2.0214,-2.0498,-2.0498,-2.0492,-2.052,-2.0562,-2.0941,-2.1392,-2.19,-2.2232,-2.2642,-2.3091,-2.3091,-2.3091,-2.3091,-2.3091,-2.3094,-2.3137,-2.3495,-2.3437,-2.3008,0.0,0.0,0.0,0.0,-2.0555,-2.0498,-2.0527,-2.0519,-2.0507,-2.0586,-2.0578,-2.0546,-2.0548,-2.0222,-1.9836,-1.9838,-1.9451,-1.8964,-1.8632,-1.8535,-1.832,-1.7441,-1.6973,-1.6561,-1.605,-1.5653,-1.5255,-1.4739,-1.4634,0.0,-1.284,-1.1982,-1.1223,-1.0425,-1.0308,-1.0308,-1.0305,-1.0305,-1.0262,-1.0212,-1.0199,-0.9853,-0.8978,-0.9302,0.0,0.0,0.0,-0.7858,-0.6985,-0.6448,0.0,0.0,0.0,0.0,0.0,-0.645,0.0,0.0,-0.3378,-0.4195,0.0,0.0,0.0,0.0,0.0,0.0,0.0,0.0,0.0,0.0,0.0,0.0,0.0,0.0,0.0,0.0,-1.2555,-1.4093,-1.4109,-1.4275,-1.4672,-1.5444,-1.6315,-1.7167,-1.7965,-1.8831,-1.935,-1.9348,-2.005,-2.0499,-2.0504,-2.0506,0.0,0.0,0.0,-2.0556,-2.0655,-2.1485,-2.1997,-2.2192,-2.2916,-2.3306,-2.3384,-2.3384,-2.3384,-2.3384,-2.3384,-2.3387,-2.3451,-2.4238,-2.4023,-2.3163,-2.2285,-2.1972,-2.1933,-2.1171,-2.0833,-2.08,-2.0863,0.0,0.0,-2.0742,-2.074,-2.0732,-2.0639,-2.0603,-2.0605,-2.0586,-2.0545,-2.0347,-1.9624,-1.9448,-1.9233,-1.8354,-1.7475,-1.6811,-1.671,-1.6023,-1.5392,-1.5408,-1.5399,-1.5118,-1.4241,-1.2742,-1.1379,-1.0561,-1.0367,-1.0307,-1.0302,-1.0281,-1.0276,-1.0207,-1.0193,0.0,-0.9108,-0.8978,-0.8617,-0.7838,-0.7791,-0.7383,-0.6525,-0.6421,-0.6461,-0.6595,-0.6544,-0.6775,-0.7353,-0.8707,-0.8687,-0.7291,-0.4243,-0.4008,0.0,0.0,0.0,0.0,0.0,0.0,0.0,0.0,0.0,0.0,0.0,0.0,0.0,0.0,0.0,-1.2108,-1.332,-1.4098,-1.4093,-1.53,-1.6252,-1.6434,-1.7224,-1.8054,-1.8867,-1.9733,-2.0249,-2.0258,-2.04,-2.0495,-2.0491,-2.0502,-2.0498,-2.0498,-2.0492,-2.0833,-2.1542,-2.178,-2.2582,-2.3929,-2.4065,0.0,-2.5199,-2.5199,-2.5199,-2.5199,-2.5199,-2.5205,-2.5211,-2.5371,-2.4934,-2.4064,-2.3182,-2.2851,-2.2851,-2.2672,-2.2606,-2.2595,-2.2604,-2.2616,-2.2474,-2.1794,-2.1601,-2.1519,-2.082,-2.0605,0.0,-2.0524,-2.054,-2.0537,-2.038,-2.0341,-2.0127,-1.9266,-1.8389,-1.7567,-1.6856,-1.6015,-1.5407,-1.5397,-1.5392,-1.5118,-1.4241,-1.3248,-1.2255,-1.1399,-1.0717,-1.0307,-1.0302,-1.0258,-1.0213,-1.0206,-1.0198,-1.0128,-0.9956,-0.9893,-0.9775,-0.9616,-0.9551,-0.9129,-0.8254,-0.8214,-0.7891,-0.7233,-0.7153,-0.7503,-0.8247,-0.8493,-0.8751,-0.8972,-0.6576,-0.5294,0.0,0.0,0.0,0.0,0.0,0.0,0.0,0.0,0.0,0.0,0.0,-0.9395,-1.0703,0.0,-1.2474,-1.3314,-1.4178,-1.4746,-1.4745,-1.5876,-1.6867,-1.73,-1.8113,-1.8965,-1.9776,-2.0235,-2.0499,-2.0508,-2.0495,-2.0493,-2.0506,-2.0903,-2.1146,-2.1141,-2.1565,-2.2002,-2.2456,-2.2911,-2.3577,-2.4417,-2.4847,-2.5277,-2.5707,-2.5707,-2.5707,-2.5707,-2.5709,-2.5697,-2.5703,-2.5694,-2.5442,-2.5002,-2.4527,-2.3838,-2.3104,-2.3099,-2.309,-2.3101,-2.3093,-2.31,-2.3032,-2.2587,-2.2184,-2.1777,-2.1327,-2.0894,-2.0539,-2.0513,-2.0526,-2.0559,-2.0559,-2.0559,-2.0442,-1.9992,-1.8939,-1.7883,-1.7447,-1.6316,-1.5399,-1.5392,-1.5391,-1.5255,-1.4826,-1.4027,-1.3014,-1.1707,-1.0811,-1.0282,-1.0255,-1.0228,-1.0202,-1.0195,-1.0207,-1.0197,-1.0199,-0.9745,-0.9442,-0.9401,-0.8983,-0.8561,-0.8123,-0.8107,-0.807,-0.801,-0.7962,-0.8334,-0.9102,-0.9041,-0.8989,-0.8914,-0.7777,-0.6979,0.0,0.0,0.0,0.0,0.0,0.0,0.0,0.0,-0.7522,-0.8869,-1.0021,-1.1049,-1.1929,-1.3186,-1.4167,-1.4325,-1.4935,-1.5407,-1.5409,-1.6309,-1.7205,-1.7917,-1.8769,-1.9623,-2.0433,-2.0506,-2.05,-2.051,-2.0499,-2.0575,-2.074,-2.1422,-2.1875,-2.2041,-2.2737,-2.3173,-2.3349,-2.4042,-2.4475,-2.4652,-2.5355,-2.5707,-2.5707,-2.5707,-2.5707,-2.5709,-2.5696,-2.5702,-2.5702,-2.5694,-2.5689,-2.5683,-2.5615,-2.4778,-2.3595,-2.3595,-2.359,-2.3581,-2.3598,-2.3599,-2.3584,-2.3413,-2.276,-2.2025,-2.1845,-2.1195,-2.0504,-2.0496,-2.0504,-2.0495,-2.0494,-2.0494,-2.0494,-2.0494,-1.9206,-1.7976,-1.7976,-1.6614,-1.5407,-1.5407,-1.5407,-1.5407,-1.5407,-1.4686,-1.3575,-1.1995,-1.106,-1.0451,-1.0224,-1.0195,-1.0207,-1.0201,-1.0194,-1.0197,-1.0171,-0.9487,-0.9026,-0.8961,-0.8351,-0.7991,-0.7991,-0.7994,-0.8253,-0.8843,-0.8843,-0.9145,-0.9729,-0.9658,-0.9286,-0.8628,-0.8572,-0.8375,-0.7735,-0.7506,-0.7506,-0.7506,-0.7432,-0.7416,0.0,0.0,-0.9827,-1.0017,-1.1364,-1.2781,-1.3658,-1.3961,-1.4358,-1.5137,-1.534,-1.5403,-1.5406,-1.6815,-1.7891,-1.7988,-1.8764,-1.9632,-2.0506,-2.0539,-2.0493,-2.0504,-2.0498,-2.0847,-2.1607,-2.1744,-2.2159,-2.293,-2.3053,-2.3468,-2.4255,-2.4357,-2.4789,-2.5551,-2.5648,-2.5707,-2.5707,-2.5707,-2.5709,-2.5694,-2.5703,-2.57,-2.5703,-2.5702,-2.5658,-2.5612,-2.5595,-2.549,-2.5318,-2.5321,-2.5315,-2.5311,-2.5312,-2.5362,-2.5285,-2.4503,-2.3663,-2.2818,-2.2025,-2.1182,-2.0496,-2.0495,-2.0506,-2.0503,-2.0494,-2.0492,-2.0492,-2.0492,-1.9167,-1.79,-1.79,-1.658,-1.5396,-1.5396,-1.5396,-1.5396,-1.5396,-1.4672,-1.3775,-1.2791,-1.1913,-1.1087,-1.0295,-1.0204,-1.0194,-1.0193,-1.0203,-1.0177,-1.0114,-1.0014,-0.992,-0.9857,-0.9776,-0.9719,-0.9719,-0.9722,-0.9721,-0.9758,-0.976,-0.9768,-0.9794,-0.9729,-0.9606,-0.9465,-0.9458,-0.8659,-0.9117,-0.9021,-0.9021,-0.9021,-0.9021,-0.9161,-0.9697,-1.0377,-1.1199,-1.22,-1.3013,-1.3813,-1.4709,-1.4869,-1.497,-1.534,-1.5832,-1.6168,-1.6154,-1.7665,-1.8763,-1.8765,-1.9492,-2.0155,-2.0557,-2.0573,-2.0551,-2.0564,-2.0992,-2.1422,-2.1773,-2.2768,-2.349,-2.3841,-2.4352,-2.4783,-2.5153,-2.516,-2.534,-2.5691,-2.5694,-2.5696,-2.5696,-2.5696,-2.5699,-2.5703,-2.5698,-2.5702,-2.5702,-2.565,-2.5622,-2.5601,-2.5604,-2.5589,-2.5541,-2.5585,-2.5598,-2.5598,-2.5595,-2.563,-2.5572,-2.5225,-2.4186,-2.3031,-2.2671,-2.1597,-2.0504,-2.0508,-2.0499,-2.0492,-2.05,-2.0493,-2.0491,-2.0491,-1.9167,-1.79,-1.79,-1.6543,-1.5339,-1.5339,-1.5339,-1.5339,-1.5339,-1.5044,-1.4345,-1.3006,-1.2054,-1.1193,-1.0307,-1.0198,-1.0206,-1.0196,-1.0177,-1.0127,-1.0102,-1.0068,-1.0034,-1.0006,-0.9995,-0.999,-0.999,-0.9954,-0.9933,-0.9897,-0.986,-0.9833,-0.9804,-0.9732,-0.9677,-0.9661,-0.9615,-0.9217,-1.0096,-1.0252,-1.0445,-1.045,-1.0625,-1.0957,-1.1614,-1.1947,-1.2479,-1.3753,-1.4062,-1.4378,-1.5235,-1.5196,-1.5118,-1.5352,-1.613,-1.6697,-1.6704,-1.8199,-1.9298,-1.9301,-2.003,-2.0544,-2.0605,-2.0585,-2.0564,-2.0563,-2.1324,-2.1891,-2.2145,-2.357,-2.4506,-2.4756,-2.5362,-2.5692,-2.5709,-2.5694,-2.5698,-2.5698,-2.5702,-2.5703,-2.5703,-2.5957,-2.6054,-2.6069,-2.6283,-2.6242,-2.603,-2.5987,-2.5818,-2.5567,-2.557,-2.5534,-2.5501,-2.5544,-2.558,-2.557,-2.5585,-2.5601,-2.5598,-2.5591,-2.4473,-2.31,-2.31,-2.1873,-2.0508,-2.0498,-2.0506,-2.0495,-2.0482,-2.0473,-2.0466,-2.0466,-1.9163,-1.7899,-1.7899,-1.652,-1.5299,-1.5299,-1.5299,-1.5299,-1.5299,-1.5299,-1.4812,-1.3353,-1.2402,-1.1469,-1.0337,-1.0191,-1.0196,-1.0177,-1.0129,-1.0097,-1.0069,-1.0035,-1.0,-1.0006,-1.0009,-0.9997,-0.9973,-0.9933,-0.9894,-0.9869,-0.9834,-0.9801,-0.9804,-0.9746,-0.9728,-0.9732,-0.9673,-0.9763,-1.0096,-1.0675,-1.1275,-1.1348,-1.1949,-1.2557,-1.2632,-1.3305,-1.3947,-1.4066,-1.4091,-1.4378,-1.5235,-1.4709,-1.4417,-1.5255,-1.613,-1.6695,-1.6696,-1.8191,-1.9291,-1.9291,-2.0062,-2.0594,-2.0594,-2.0541,-2.0504,-2.0505,-2.1305,-2.2165,-2.3024,-2.3903,-2.4782,-2.5624,-2.5683,-2.5702,-2.5702,-2.5702,-2.5703,-2.5703,-2.5702,-2.57,-2.5739,-2.6574,-2.6957,-2.7005,-2.7785,-2.7645,-2.6856,-2.6862,-2.6324,-2.5495,-2.551,-2.5507,-2.5492,-2.5492,-2.5503,-2.5518,-2.5573,-2.5609,-2.5604,-2.5599,-2.4467,-2.3098,-2.3098,-2.1872,-2.0506,-2.0493,-2.0499,-2.0488,-2.042,-2.0407,-2.0396,-2.0396,-1.9117,-1.7893,-1.7893,-1.6536,-1.5293,-1.5293,-1.5293,-1.5293,-1.5293,-1.5293,-1.5004,-1.4095,-1.3272,-1.2143,-1.0424,-1.0196,-1.0177,-1.0115,-1.0092,-1.0061,-1.0001,-1.0001,-1.0,-1.0006,-1.0009,-0.9973,-0.9915,-0.9897,-0.9869,-0.9809,-0.9805,-0.9806,-0.9804,-0.9801,-0.9801,-0.9801,-0.9798,-1.0183,-1.0904,-1.1549,-1.2233,-1.2266,-1.2901,-1.3522,-1.3562,-1.4231,-1.4718,-1.4205,-1.4091,-1.4008,-1.3735,-1.391,-1.4202,-1.4495,-1.6247,-1.7552,-1.7552,-1.902,-2.0096,-2.0096,-2.0355,-2.0767,-2.1331,-2.1388,-2.1356,-2.1356,-2.2703,-2.3641,-2.3954,-2.4793,-2.5401,-2.5698,-2.5702,-2.5703,-2.5702,-2.6269,-2.6561,-2.6577,-2.7157,-2.7428,-2.7428,-2.7686,-2.7791,-2.7803,-2.808,-2.7701,-2.6901,-2.6841,-2.6304,-2.551,-2.5499,-2.5507,-2.5507,-2.5507,-2.5499,-2.5495,-2.5533,-2.5534,-2.5535,-2.5531,-2.44,-2.3033,-2.3033,-2.1847,-2.0487,-2.0451,-2.0437,-2.0424,-2.041,-2.0393,-2.0398,-2.0398,-1.953,-1.8543,-1.7962,-1.6958,-1.599,-1.5412,-1.5295,-1.5295,-1.5295,-1.5295,-1.5003,-1.413,-1.2815,-1.152,-1.0349,-1.0156,-1.0134,-1.0092,-1.0059,-1.0027,-1.0004,-1.0006,-1.0001,-1.0009,-0.9951,-0.9933,-0.9894,-0.9897,-0.9866,-0.9805,-0.9798,-0.9803,-0.9804,-0.9804,-0.9797,-0.9802,-0.9795,-1.0208,-1.1672,-1.243,-1.3125,-1.3161,-1.3825,-1.4394,-1.4101,-1.4464,-1.4633,-1.3806,-1.3394,-1.3092,-1.2859,-1.3267,-1.3735,-1.4047,-1.6286,-1.8,-1.8,-1.9445,-2.0498,-2.0498,-2.0498,-2.0849,-2.1726,-2.2074,-2.2258,-2.2258,-2.3585,-2.4404,-2.4404,-2.5225,-2.5697,-2.5702,-2.5694,-2.5697,-2.5695,-2.6555,-2.7136,-2.7433,-2.7995,-2.8265,-2.8265,-2.8536,-2.866,-2.8673,-2.896,-2.8424,-2.7333,-2.7274,-2.6567,-2.5507,-2.5507,-2.5499,-2.5507,-2.5507,-2.5507,-2.5492,-2.5491,-2.5506,-2.5505,-2.5506,-2.4374,-2.3004,-2.3004,-2.1801,-2.0461,-2.0412,-2.0399,-2.0402,-2.039,-2.0395,-2.0402,-2.0402,-1.9725,-1.8951,-1.8393,-1.739,-1.6426,-1.5865,-1.5519,-1.5306,-1.5306,-1.5306,-1.4992,-1.413,-1.3064,-1.2054,-1.1191,-1.0787,-1.0552,-1.0536,-1.0218,-0.9999,-0.9997,-1.0001,-0.9997,-0.997,-0.9933,-0.9891,-0.9866,-0.9866,-0.984,-0.9803,-0.9803,-0.9796,-0.9804,-0.9797,-0.9939,-1.0182,-1.0178,-1.0717,-1.2443,-1.33,-1.3978,-1.406,-1.4693,-1.509,-1.4273,-1.4108,-1.3845,-1.2926,-1.2077,-1.1749,0.0,0.0,-1.3074,-1.3891,-1.6266,-1.8,-1.8,-1.9445,-2.0498,0.0,0.0,0.0,0.0,-2.2642,-2.3187,-2.3226,-2.4004,-2.4471,-2.4471,-2.5251,-2.5703,-2.5692,-2.569,-2.5718,-2.5755,-2.6671,-2.7537,-2.8327,-2.8327,-2.8327,-2.8366,-2.9192,-2.9569,-2.9608,-3.0374,-2.9721,-2.8152,-2.8129,-2.7098,-2.5565,-2.5526,-2.5507,-2.5507,-2.5507,-2.5507,-2.5492,-2.5511,-2.5495,-2.5499,-2.5505,-2.4368,-2.2991,-2.2991,-2.1789,-2.0391,-2.0391,-2.0399,-2.0407,-2.0407,-2.0395,-2.0402,-2.0402,-1.9764,-1.9145,-1.9106,-1.7852,-1.6696,-1.6619,-1.5903,-1.5306,-1.5306,-1.5306,-1.5028,-1.4198,-1.4012,-1.3664,-1.2796,-1.1935,-1.1367,-1.1313,-1.0513,-0.9997,-1.0006,-0.999,-0.997,-0.9912,-0.9894,-0.9866,-0.9806,-0.9805,-0.9803,-0.9804,-0.9804,-0.9804,-0.9804,-0.9802,-1.0186,-1.0893,-1.0829,-1.1662,-1.349,-1.4206,-1.4888,-1.4947,-1.5167,-1.5142,-1.4289,-1.4097,-1.367,-1.2155,-1.165,-1.1378,0.0,-1.1963,-1.2879,-1.3093,-1.5877,0.0,-1.8,-1.9445,0.0,-2.0498,0.0,-2.1804,-2.2681,-2.3556,-2.4335,-2.4997,-2.5231,-2.5368,-2.5368,-2.5582,-2.5699,-2.5703,-2.5702,-2.5998,-2.6587,-2.8106,-2.929,-3.0139,-3.0139,-3.0139,-3.0137,-3.0311,-3.0389,-3.0406,-3.0605,-3.0048,-2.8946,-2.8353,-2.7423,-2.6339,-2.572,-2.5507,-2.5507,-2.5507,-2.5507,-2.5511,-2.5496,-2.5496,-2.5499,-2.5503,-2.4326,-2.2936,-2.2936,-2.1733,-2.0395,-2.0395,-2.0392,-2.0408,-2.0408,-2.0405,-2.0402,-2.0402,-2.0228,-1.9899,-1.9241,-1.8761,-1.8084,-1.6829,-1.5903,-1.5306,-1.5306,-1.5294,-1.52,-1.4948,-1.4877,-1.4335,-1.2828,-1.1855,-1.1321,-1.1296,-1.0516,-0.9995,-1.0006,-0.9951,-0.9912,-0.9894,-0.9894,-0.9866,-0.9805,-0.9798,-0.9803,-0.9804,-0.9804,-0.9804,-0.9804,-0.9797,-1.0187,-1.0896,-1.0878,-1.1718,-1.4319,-1.4803,-1.5214,-1.528,-1.5055,-1.4603,-1.3731,-1.3227,-1.2586,-1.1243,-1.097,-1.0834,-1.0386,-1.136,-1.2353,0.0,0.0,0.0,-1.7883,-1.9113,-2.0071,0.0,-2.1278,0.0,-2.3012,-2.3887,-2.4764,-2.5621,-2.5699,-2.5699,-2.5699,-2.603,-2.6225,-2.6225,-2.6607,-2.7192,-2.8035,-2.9009,-2.9944,-3.0801,-3.0801,-3.0801,-3.0799,-3.0734,-3.0707,-3.0704,-3.0665,-3.0141,-2.927,-2.8801,-2.786,-2.6663,-2.6203,-2.5816,-2.5507,-2.5507,-2.5507,-2.5507,-2.5507,-2.5507,-2.5507,-2.5507,-2.4583,-2.3403,-2.3019,-2.1991,-2.0888,-2.0518,-2.0402,-2.0402,-2.0402,-2.0402,-2.0402,-2.0402,-2.0376,-2.0218,-1.9738,-1.9326,-1.8566,-1.6888,-1.5847,-1.5268,-1.5268,-1.5267,-1.5243,-1.5207,-1.5165,-1.4798,-1.3781,-1.2915,-1.2392,-1.237,-1.1254,-1.0526,-1.0539,-1.0141,-0.9888,-0.986,-0.9859,-1.0001,-1.0302,-1.0339,-1.048,-1.084,-1.0859,-1.0673,-1.0321,-1.0332,-1.0516,-1.0892,-1.0869,-1.1489,-1.4897,-1.5154,-1.5206,-1.5265,-1.4688,-1.3867,-1.3002,-1.2036,-1.1107,-1.0308,-1.0036,-0.9997,-1.0114,-1.0795,-1.1612,-1.2489,0.0,-1.5935,-1.7435,-1.8548,-1.9487,-2.0247,-2.1297,-2.2271,-2.3031,-2.3984,-2.4881,-2.564,-2.5699,-2.5699,-2.5699,-2.6361,-2.6788,-2.6905,-2.7859,-2.8736,-2.9496,-2.9613,-3.0041,-3.0801,-3.0801,-3.0801,-3.0799,-3.0734,-3.0704,-3.069,-3.0626,-3.0174,-2.9457,-2.9345,-2.8335,-2.6861,-2.6745,-2.6203,-2.5507,-2.5507,-2.5507,-2.5507,-2.5507,-2.5507,-2.5507,-2.5507,-2.4911,-2.406,-2.3306,-2.2497,-2.1704,-2.0943,-2.0653,-2.0576,-2.0576,-2.0498,-2.0399,-2.0399,-2.0347,-2.0299,-2.0295,-1.9526,-1.8394,-1.6945,-1.5865,-1.519,-1.519,-1.5185,-1.5197,-1.5184,-1.5129,-1.5076,-1.5004,-1.4296,-1.375,-1.3702,-1.2298,-1.131,-1.12,-1.0496,-0.9975,-0.9803,-0.9805,-1.0156,-1.097,-1.1007,-1.1379,-1.2172,-1.2102,-1.1694,-1.1007,-1.0899,-1.0855,-1.0902,-1.0838,-1.1205,-1.5061,-1.5153,-1.521,-1.5204,-1.4605,-1.3794,-1.2984,-1.1619,0.0,0.0,-0.8653,-0.838,-0.9101,-0.9919,-1.0775,-1.1593,-1.3793,-1.5508,-1.5819,-1.779,-1.9253,0.0,-2.1473,-2.2934,-2.309,-2.453,-2.5543,-2.5699,-2.5699,-2.5699,-2.5699,-2.5835,-2.6205,-2.6885,-2.8444,-2.936,-2.9496,-3.0217,-3.0645,-3.0801,-3.0801,-3.0801,-3.0799,-3.0734,-3.0704,-3.069,-3.0626,-3.0503,-3.0327,-2.9592,-2.8707,-2.7701,-2.6977,-2.6203,-2.5507,-2.5507,-2.5507,-2.5507,-2.5507,-2.5507,-2.5507,-2.5507,-2.4911,-2.4176,-2.4022,-2.3364,-2.2652,-2.2517,-2.1994,-2.1472,-2.1472,-2.0946,-2.0399,-2.0331,-2.0301,-2.0269,-2.0231,-1.9012,-1.7837,-1.7549,-1.6205,-1.5111,-1.5111,-1.5127,-1.512,-1.5115,-1.506,-1.5004,-1.4991,-1.4243,-1.3709,-1.3705,-1.2802,-1.1906,-1.1178,-1.0969,-1.0589,-0.9839,-0.9798,-1.0156,-1.097,-1.1007,-1.1379,-1.2172,-1.1546,-1.1137,-1.1007,-1.0335,-1.0328,-1.0908,-1.0889,-1.1273,-1.5099,-1.5121,-1.5046,-1.4624,-1.3923,-1.3113,-1.2314,0.0,0.0,0.0,-0.8302,-0.7835,-0.8244,-0.9042,0.0,-1.0736,-1.2664,-1.4358,-1.5274,-1.7222,-1.8724,-1.9155,-2.1512,-2.3109,-2.3109,-2.4686,-2.5699,-2.5699,-2.5699,-2.5699,-2.5699,-2.6108,-2.6924,-2.821,-2.9067,-2.973,-3.0178,-3.0587,-3.0801,-3.0801,-3.0801,-3.0567,-3.0117,-3.0092,-2.981,-2.9366,-2.9792,-2.9965,-2.9921,-2.9959,-2.921,-2.7952,-2.7542,-2.6613,-2.5507,-2.5507,-2.5507,-2.5507,-2.5507,-2.5507,-2.5507,-2.5507,-2.5221,-2.4795,-2.4331,-2.3906,-2.348,-2.3039,-2.2323,-2.1707,-2.1707,-2.1043,-2.0379,-2.0328,-2.0264,-2.0223,-2.0154,-1.883,-1.7654,-1.7654,-1.6268,-1.5094,-1.5094,-1.5078,-1.5045,-1.5057,-1.4995,-1.494,-1.4955,-1.4581,-1.4315,-1.4323,-1.3532,-1.2838,-1.2397,-1.1962,-1.1523,-1.1079,-1.106,-1.1428,-1.2274,-1.2292,-1.2478,-1.2864,-1.2497,-1.1861,-1.1007,-1.0618,-1.0384,-1.0324,-1.0324,-1.0512,-1.5103,-1.5107,-1.4903,-1.4099,-1.3296,-1.2446,-1.1448,-0.992,0.0,-0.8478,-0.7756,-0.7191,-0.7387,-0.8127,-0.9003,0.0,-1.1574,-1.3287,-1.4651,-1.6675,-1.8235,0.0,-2.1395,0.0,-2.3109,-2.4686,-2.5699,-2.5699,-2.5699,-2.5699,-2.5699,-2.6459,-2.7606,-2.9165,-2.9399,-2.9925,-3.0782,-3.0801,-3.0801,-3.0801,-3.0799,-3.0446,-2.9764,-2.9563,-2.9084,-2.8408,-2.89,-2.919,-2.9345,-2.9843,-2.9248,-2.7972,-2.7797,-2.6807,-2.5507,-2.5507,-2.5507,-2.5507,-2.5507,-2.5507,-2.5507,-2.5507,-2.5507,-2.5372,-2.4699,-2.4486,-2.4331,-2.3654,-2.2729,-2.1959,-2.1959,-2.1179,-2.0373,-2.0304,-2.0223,-2.0165,-2.0098,-1.8901,-1.778,-1.7608,-1.6353,-1.527,-1.5099,-1.5018,-1.4986,-1.4979,-1.4938,-1.4908,-1.4902,-1.4886,-1.4887,-1.4873,-1.4263,-1.3754,-1.3527,-1.2922,-1.2449,-1.2214,-1.2195,-1.2585,-1.3462,-1.3499,-1.3499,-1.3499,-1.3314,-1.2497,-1.1007,-1.0822,-1.0413,-0.9797,-0.9797,-0.9797,-1.5096,-1.5099,-1.4918,-1.4108,-1.3296,-1.2281,-1.068,0.0,-0.7601,-0.6803,-0.5943,-0.559,-0.6373,-0.7231,-0.8108,-0.8984,0.0,-1.2859,-1.3015,-1.5896,-1.8039,-1.8097,0.0,0.0,-2.3109,-2.4686,-2.5699,-2.5699,-2.5699,-2.5699,-2.5699,-2.6459,-2.7333,-2.8288,-2.9087,-2.9925,-3.0782,-3.0801,-3.0801,-3.0801,-3.0791,-3.0767,-3.065,-2.9802,-2.9363,-2.9232,-2.8531,-2.8632,-2.9248,-2.8533,-2.8146,-2.7914,-2.7131,-2.6281,-2.5507,-2.5507,-2.5507,-2.5507,-2.5507,-2.5507,-2.5507,-2.5507,-2.5507,-2.5488,-2.5391,-2.5372,-2.5352,-2.5275,-2.406,-2.2787,-2.2787,-2.1604,-2.0379,-2.0238,-2.0167,-2.0098,-2.0031,-1.9265,-1.8388,-1.7648,-1.6744,-1.585,-1.5053,-1.4913,-1.4908,-1.4913,-1.4904,-1.4904,-1.4904,-1.4859,-1.4809,-1.4817,-1.4747,-1.4368,-1.3565,-1.3425,-1.3053,-1.2251,-1.2195,-1.2585,-1.3462,-1.3499,-1.3499,-1.3499,-1.2715,-1.188,-1.1007,-1.0265,-0.9868,-0.9795,-0.9795,-0.9772,-1.4962,-1.5096,-1.4775,-1.3445,-1.2918,-1.2115,-0.9922,-0.8523,-0.7457,-0.6584,-0.5706,-0.52,-0.5552,-0.6762,-0.7815,-0.8166,-1.0795,-1.2801,-1.2801,-1.5799,-1.8,-1.8,-2.0555,-2.2525,-2.3051,-2.4199,-2.5134,-2.566,-2.5699,-2.5699,-2.5699,-2.5991,-2.6556,-2.7392,-2.8269,-2.9145,-3.0002,-3.0548,-3.0801,-3.0801,-3.0791,-3.0528,-2.9991,-2.959,-2.8838,-2.7833,-2.7985,-2.7919,-2.775,-2.7933,-2.7701,-2.717,-2.6841,-2.6203,-2.5507,-2.5507,-2.5507,-2.5507,-2.5507,-2.5507,-2.5488,-2.5456,-2.5417,-2.5385,-2.548,-2.546,-2.534,-2.485,-2.384,-2.2789,-2.2248,-2.1192,-2.0265,-2.0171,-2.0093,-2.0024,-1.9958,-1.9263,-1.8407,-1.7595,-1.6734,-1.5861,-1.4987,-1.4832,-1.4832,-1.4832,-1.4832,-1.4832,-1.4832,-1.4823,-1.4785,-1.4746,-1.4746,-1.4605,-1.4249,-1.4225,-1.4071,-1.3741,-1.3699,-1.3866,-1.4205,-1.4224,-1.3982,-1.3518,-1.3165,-1.2567,-1.1713,-1.1403,-1.1222,-1.1175,-1.114,-1.1095,-1.4542,-1.4905,-1.4698,-1.3015,-1.2636,-1.1943,-0.9156,-0.8085,-0.7349,-0.6247,-0.5529,-0.518,-0.5435,-0.6703,-0.7776,-0.8049,-1.0522,-1.2508,-1.2762,-1.5352,-1.7416,-1.7942,-2.0029,-2.1765,-2.2622,-2.3731,-2.4764,-2.5621,-2.5699,-2.5699,-2.5699,-2.5699,-2.6069,-2.6866,-2.7509,-2.8366,-2.9496,-3.0117,-3.0543,-3.0796,-3.0778,-3.045,-2.9832,-2.9279,-2.8352,-2.7187,-2.7249,-2.7055,-2.6725,-2.7116,-2.7035,-2.6674,-2.6427,-2.5978,-2.5472,-2.5472,-2.5472,-2.5472,-2.5472,-2.5472,-2.5468,-2.54,-2.5345,-2.5303,-2.5382,-2.5222,-2.4902,-2.4339,-2.3365,-2.2288,-2.1409,-2.0677,-2.0156,-2.0098,-2.001,-1.9966,-1.9906,-1.9424,-1.8739,-1.7905,-1.7058,-1.618,-1.531,-1.4968,-1.4799,-1.4799,-1.4799,-1.4799,-1.4799,-1.4785,-1.4755,-1.4716,-1.471,-1.4695,-1.4706,-1.4706,-1.4683,-1.4677,-1.4672,-1.4672,-1.4667,-1.4667,-1.4296,-1.3499,-1.3462,-1.303,-1.2173,-1.2156,-1.211,-1.2071,-1.199,-1.1926,-1.3819,-1.4446,-1.4695,-1.3025,-1.2596,-1.1724,-0.8372,-0.7598,-0.7121,-0.546,-0.5098,-0.5356,-0.6218,-0.7114,-0.7991,-0.8848,-1.0405,-1.1807,-1.2684,-1.4319,-1.6072,0.0,-1.9484,-2.0869,-2.1726,-2.3382,-2.4764,-2.5621,-2.5699,-2.5699,-2.5699,-2.5699,-2.6069,-2.6866,-2.6905,-2.7743,-2.9476,-2.9506,-2.9949,-3.0806,-3.0733,-3.0707,-3.0635,-2.8906,-2.8097,-2.7981,-2.6273,-2.5968,-2.6644,-2.5855,-2.5998,-2.6618,-2.5749,-2.5408,-2.5391,-2.5391,-2.5391,-2.5391,-2.5391,-2.5391,-2.5382,-2.5327,-2.5293,-2.5287,-2.5222,-2.4687,-2.4109,-2.4103,-2.2842,-2.1316,-2.044,-2.0153,-2.0074,-2.0019,-1.9953,-1.9896,-1.9902,-1.989,-1.9626,-1.8753,-1.7885,-1.7004,-1.6148,-1.534,-1.4803,-1.4803,-1.4803,-1.4803,-1.4803,-1.4741,-1.4692,-1.4693,-1.4706,-1.4706,-1.4706,-1.4706,-1.4677,-1.4614,-1.459,-1.4603,-1.46,-1.46,-1.4225,-1.3412,-1.3394,-1.2964,-1.2105,-1.2035,-1.2005,-1.1998,-1.1921,-1.1875,-1.2819,-1.3179,-1.3125,-1.1995,-1.1748,-1.1057,-0.8234,-0.7607,-0.7126,-0.5439,-0.5098,-0.5376,-0.6237,-0.7114,-0.7991,-0.8867,-1.0912,0.0,-1.2762,-1.5332,0.0,-1.7922,-2.0536,-2.2388,-2.2661,-2.4277,-2.5407,-2.5679,-2.5699,-2.5699,-2.5699,-2.5699,-2.5816,-2.6069,-2.6613,-2.7158,-2.7723,-2.8318,-2.8756,-2.9021,-2.8951,-2.8919,-2.8907,-2.8342,-2.7753,-2.7101,-2.6559,-2.6149,-2.5855,-2.5553,-2.5543,-2.572,-2.5452,-2.5303,-2.5264,-2.5264,-2.5264,-2.5264,-2.5264,-2.5264,-2.5259,-2.5241,-2.5193,-2.5166,-2.5136,-2.4615,-2.3794,-2.2654,-2.1462,-2.0488,-2.0207,-2.0045,-1.995,-1.9885,-1.9845,-1.9829,-1.9825,-1.9838,-1.9575,-1.8691,-1.7855,-1.701,-1.6084,-1.5306,-1.4774,-1.4741,-1.4769,-1.4774,-1.4741,-1.4712,-1.4692,-1.4706,-1.4706,-1.4706,-1.4706,-1.4654,-1.4603,-1.4547,-1.4532,-1.4516,-1.4476,-1.4458,-1.4342,-1.4085,-1.4085,-1.3952,-1.3671,-1.3597,-1.3521,-1.3437,-1.3372,-1.3301,-1.1861,-1.2358,-1.2396,-1.1511,-1.133,-1.0691,-0.8181,-0.7593,-0.7114,-0.5453,-0.5371,-0.5865,-0.6724,-0.7601,-0.8478,-0.9354,-1.1087,-1.2547,-1.3209,-1.5449,-1.7494,-1.8781,-2.1393,-2.3226,-2.3556,-2.4569,-2.5348,-2.5679,-2.5699,-2.5699,-2.5699,-2.5699,-2.5699,-2.5699,-2.6162,-2.6567,-2.6894,-2.742,-2.7849,-2.8164,-2.8094,-2.8058,-2.8043,-2.7717,-2.7252,-2.6681,-2.6352,-2.5931,0.0,-2.5395,-2.534,-2.5303,-2.5264,-2.5222,-2.516,-2.516,-2.516,-2.516,-2.5162,-2.5157,-2.5151,-2.5099,-2.5032,-2.4885,-2.429,-2.3826,-2.3121,-2.1449,-2.0532,-2.0064,-2.0024,-1.995,-1.9847,-1.9775,-1.9763,-1.9757,-1.9751,-1.977,-1.9601,-1.9058,-1.8047,-1.7071,-1.6455,-1.5479,-1.4739,-1.4705,-1.4734,-1.4758,-1.4705,-1.4705,-1.4695,-1.4706,-1.4706,-1.4706,-1.4706,-1.4643,-1.4563,-1.4497,-1.4481,-1.4428,-1.4374,-1.435,-1.435,-1.435,-1.435,-1.435,-1.435,-1.4294,-1.4187,-1.406,-1.3995,-1.3923,0.0,-1.1804,-1.2224,-1.1424,-1.1214,-1.0589,-0.8216,-0.7635,0.0,-0.56,-0.5877,-0.6685,-0.762,-0.8497,-0.9374,-1.023,-1.1165,-1.2333,-1.3969,-1.5099,-1.6951,-2.0206,-2.2135,-2.3517,-2.4314,-2.445,-2.4818,-2.5636,-2.5695,-2.5695,-2.5695,-2.5695,-2.5695,-2.5695,-2.5624,-2.5982,-2.6792,-2.6728,-2.7099,-2.7908,-2.7838,-2.7804,-2.7777,-2.6966,-2.6586,-2.6559,-2.5749,-2.5397,-2.5378,-2.5322,-2.5283,-2.5271,-2.5223,-2.5145,-2.5097,-2.5097,-2.5097,-2.5091,-2.5088,-2.5069,-2.5051,-2.4941,-2.4858,-2.4507,-2.2956,-2.2528,-2.2247,-2.0561,-2.0039,-1.9972,-1.9908,-1.9837,-1.9782,-1.9706,-1.9693,-1.9693,-1.9686,-1.9693,-1.9693,-1.9686,-1.8342,-1.7187,-1.7102,-1.5759,-1.4706,-1.4706,-1.4706,-1.4706,-1.4683,-1.4683,-1.4683,-1.4683,-1.4683,-1.4683,-1.4683,-1.4643,-1.4571,-1.4493,-1.444,-1.4356,-1.4287,-1.4287,-1.4287,-1.4287,-1.4287,-1.4287,-1.4287,-1.4211,-1.4136,-1.3991,-1.3938,-1.3865,-1.0247,0.0,-1.0648,-1.0438,-1.0381,-1.0041,0.0,-0.8034,-0.7482,-0.7104,0.0,-0.6876,-0.8414,-0.941,-1.0269,-1.1087,-1.3054,-1.4631,-1.504,-1.7516,-1.9855,-2.1317,-2.3024,-2.4144,-2.4306,-2.4922,-2.5398,-2.5604,-2.5621,-2.5621,-2.5621,-2.5621,-2.5621,-2.5621,-2.5564,-2.5628,-2.5828,-2.5757,-2.5808,-2.5962,-2.5895,-2.587,-2.5845,-2.5653,-2.5552,-2.5542,-2.5349,-2.5253,-2.5248,-2.5236,-2.5187,-2.5149,-2.5132,-2.5082,-2.5018,-2.5018,-2.5018,-2.5012,-2.4953,-2.4912,-2.487,-2.4772,-2.4768,-2.4482,-2.286,-2.2395,-2.2109,-2.0472,-1.9982,-1.9913,-1.9842,-1.9763,-1.9719,-1.9641,-1.9667,-1.9686,-1.9628,-1.9667,-1.968,-1.9628,-1.8317,-1.7187,-1.7102,-1.5759,-1.4706,-1.4706,-1.4706,-1.4677,-1.4619,-1.4619,-1.4614,-1.4616,-1.4616,-1.4616,-1.4616,-1.4611,-1.4556,-1.4422,-1.435,-1.4274,-1.4143,-1.4154,-1.4154,-1.4154,-1.4154,-1.4154,-1.4154,-1.4123,-1.4075,-1.3991,-1.393,-1.3838,-1.0042,-1.007,-1.0096,-1.0096,-1.0096,-0.9869,-0.9001,0.0,0.0,0.0,0.0,-0.7953,-0.9299,-1.0594,-1.1729,-1.2567,-1.4553,-1.6268,-1.7048,-1.9777,-2.1862,-2.2349,-2.3914,-2.4927,-2.4865,-2.5274,-2.5541,-2.5515,-2.5515,-2.5515,-2.5515,-2.5515,-2.5515,-2.5515,-2.5437,-2.5426,-2.5448,-2.5393,-2.5317,-2.5257,-2.5187,-2.5152,-2.5154,-2.5154,-2.5154,-2.5154,-2.5154,-2.5154,-2.5154,-2.5147,-2.5125,-2.5101,-2.5076,-2.5037,-2.5003,-2.4971,-2.4945,-2.4931,-2.4875,-2.4805,-2.4753,-2.4718,-2.4726,-2.4437,-2.2766,-2.2311,-2.2035,-2.0451,-1.9939,-1.9879,-1.9825,-1.9751,-1.9681,-1.962,-1.9638,-1.9652,-1.9606,-1.9638,-1.9645,-1.9606,-1.8576,-1.7696,-1.7653,-1.6613,-1.5796,-1.5796,-1.5494,-1.5236,-1.516,-1.4805,-1.4537,-1.4516,-1.4516,-1.4516,-1.4516,-1.4475,-1.4434,-1.4362,-1.4288,-1.421,-1.4089,-1.4107,-1.4107,-1.4107,-1.4107,-1.4107,-1.4107,-1.4107,-1.4072,-1.3991,-1.394,-1.3834,-1.0047,-1.0094,-1.0096,-1.0096,-1.0192,-1.0058,-0.9202,0.0,0.0,0.0,0.0,0.0,-1.0237,-1.1927,0.0,-1.4157,-1.5851,-1.7662,-1.9341,-2.1601,-2.3139,-2.3274,-2.4657,-2.5565,-2.5492,-2.5479,-2.546,-2.5394,-2.5371,-2.5371,-2.5371,-2.5371,-2.539,-2.5386,-2.5326,-2.5307,-2.5359,-2.5293,-2.5234,-2.5178,-2.5111,-2.508,-2.508,-2.508,-2.508,-2.508,-2.508,-2.508,-2.508,-2.5076,-2.5089,-2.5082,-2.5023,-2.5003,-2.4984,-2.4924,-2.4891,-2.4889,-2.4802,-2.4749,-2.4711,-2.469,-2.4679,-2.4365,-2.2689,-2.2229,-2.1964,-2.041,-1.9932,-1.9867,-1.9795,-1.9738,-1.9673,-1.9629,-1.9609,-1.9609,-1.9609,-1.9609,-1.9609,-1.9609,-1.8896,-1.8296,-1.8296,-1.7628,-1.7108,-1.7083,-1.6503,-1.6023,-1.5956,-1.5307,-1.4812,-1.4763,-1.4648,-1.4575,-1.4575,-1.438,-1.4276,-1.4276,-1.4231,-1.4177,-1.4107,-1.4107,-1.4107,-1.4107,-1.4107,-1.4107,-1.4107,-1.4107,-1.4072,-1.3991,-1.394,-1.3834,-0.9825,-1.0068,-1.0096,-1.0096,-1.0608,-1.0892,-1.0096,0.0,0.0,0.0,0.0,0.0,0.0,-1.3273,-1.4955,-1.5093,-1.719,-1.9409,-2.1085,-2.2292,-2.3283,-2.4036,-2.4945,-2.5495,-2.5414,-2.5414,-2.5391,-2.5313,-2.5313,-2.5313,-2.5313,-2.5313,-2.5322,-2.5322,-2.5247,-2.5198,-2.5147,-2.5143,-2.5095,-2.5024,-2.5018,-2.5018,-2.5018,-2.5018,-2.5018,-2.5018,-2.5018,-2.5018,-2.5018,-2.5023,-2.5017,-2.5017,-2.501,-2.5003,-2.4984,-2.4924,-2.4863,-2.4813,-2.4738,-2.4711,-2.469,-2.4631,-2.4615,-2.4305,-2.2626,-2.217,-2.1875,-2.0289,-1.9825,-1.9794,-1.9732,-1.9707,-1.9673,-1.9629,-1.9609,-1.9609,-1.9609,-1.9609,-1.9609,-1.9609,-1.8896,-1.8296,-1.8294,-1.7627,-1.7077,-1.7015,-1.6864,-1.6713,-1.6659,-1.6481,-1.637,-1.636,-1.5744,-1.5327,-1.5327,-1.4647,-1.4211,-1.4211,-1.4205,-1.4177,-1.4107,-1.4107,-1.4107,-1.4107,-1.4107,-1.4107,-1.4107,-1.4107,-1.4072,-1.3991,-1.394,-1.3834,-0.977,-1.0027,-1.0168,-1.0624,-1.1376,-1.1899,-1.149,-1.1084,0.0,0.0,0.0,0.0,0.0,0.0,-1.6559,-1.8396,-1.9718,-2.0919,-2.212,-2.3034,-2.3734,-2.4141,-2.4926,-2.5414,-2.5344,-2.5317,-2.5288,-2.525,-2.5245,-2.5245,-2.5245,-2.5204,-2.5187,-2.5195,-2.5137,-2.5075,-2.5057,-2.5057,-2.5031,-2.5003,-2.5003,-2.5003,-2.5003,-2.5003,-2.5003,-2.5003,-2.5003,-2.5003,-2.5003,-2.5003,-2.5003,-2.5003,-2.5003,-2.5003,-2.4996,-2.4875,-2.4798,-2.4746,-2.4711,-2.4695,-2.4687,-2.4623,-2.4623,-2.4425,-2.3129,-2.2809,-2.2604,-2.1384,-2.0425,-1.9738,-1.9713,-1.9668,-1.9647,-1.9604,-1.9609,-1.9609,-1.9609,-1.9609,-1.9609,-1.9609,-1.9261,-1.8929,-1.8892,-1.8557,-1.8264,-1.821,-1.776,-1.7417,-1.7339,-1.6902,-1.6589,-1.6543,-1.622,-1.5979,-1.5979,-1.5257,-1.4616,-1.4161,-1.4143,-1.413,-1.4107,-1.4107,-1.4107,-1.4107,-1.4107,-1.4075,-1.4061,-1.4061,-1.4009,-1.3945,-1.3875,-1.3793,-0.9683,-0.9853,-0.9975,-1.1041,0.0,-1.2553,-1.25,-1.2646,0.0,0.0,0.0,0.0,0.0,-1.6346,-1.8043,-2.108,-2.1589,-2.1933,-2.2945,-2.3663,-2.4153,-2.4366,-2.4977,-2.5346,-2.5274,-2.5228,-2.5204,-2.5197,-2.5191,-2.5185,-2.5174,-2.5125,-2.5101,-2.5082,-2.5038,-2.5012,-2.4999,-2.4998,-2.5003,-2.5003,-2.5003,-2.5003,-2.5003,-2.5003,-2.5003,-2.5003,-2.5003,-2.5003,-2.5003,-2.5003,-2.5003,-2.5003,-2.5003,-2.4971,-2.4943,-2.4809,-2.4742,-2.4703,-2.4682,-2.4671,-2.4668,-2.4623,-2.4623,-2.4474,-2.3563,-2.3313,-2.317,-2.232,-2.1185,-2.0204,-2.0016,-1.9784,-1.9601,-1.9597,-1.9609,-1.9602,-1.9583,-1.9576,-1.9576,-1.9587,-1.9515,-1.9446,-1.9383,-1.9318,-1.9246,-1.9176,-1.8584,-1.8119,-1.8053,-1.7467,-1.7017,-1.6968,-1.679,-1.6594,-1.6415,-1.588,-1.5291,-1.4677,-1.4303,-1.4107,-1.4107,-1.4107,-1.4107,-1.4107,-1.4107,-1.4068,-1.3998,-1.3991,-1.3973,-1.3902,-1.3813,-1.3746,-0.9463,-0.941,-0.9273,-1.0907,-1.1913,0.0,-1.2503,-1.308,0.0,-1.3699,0.0,0.0,0.0,-1.7581,-1.9335,-2.121,-2.1515,-2.2066,-2.3697,-2.3966,-2.4312,-2.5125,-2.5274,-2.5287,-2.5203,-2.519,-2.5201,-2.5191,-2.5191,-2.5174,-2.5113,-2.5107,-2.5082,-2.4999,-2.4993,-2.4999,-2.501,-2.5003,-2.5003,-2.5003,-2.5003,-2.5003,-2.5003,-2.5003,-2.5003,-2.5003,-2.5003,-2.5003,-2.5003,-2.5003,-2.5003,-2.5003,-2.5003,-2.4917,-2.4813,-2.4738,-2.4703,-2.4682,-2.4623,-2.4615,-2.4615,-2.4607,-2.4564,-2.4354,-2.3469,-2.3211,-2.3044,-2.2227,-2.1911,-2.1666,-2.0904,-2.0166,-1.9601,-1.9597,-1.9609,-1.9583,-1.9518,-1.9511,-1.9504,-1.9505,-1.9402,-1.9315,-1.9306,-1.919,-1.9107,-1.9112,-1.8955,-1.8823,-1.8823,-1.8708,-1.8619,-1.8636,-1.795,-1.7209,-1.6451,-1.6344,-1.629,-1.6237,-1.4891,-1.4107,-1.4107,-1.4107,-1.4107,-1.4107,-1.4107,-1.4068,-1.3998,-1.3995,-1.3973,-1.3896,-1.3768,-1.369,-0.9591,-0.9325,-0.9263,-1.1484,-1.2262,0.0,0.0,-1.4342,-1.5307,-1.5303,-1.6231,0.0,0.0,-1.8801,-1.9979,-2.1187,-2.1828,-2.2584,-2.3762,-2.4399,-2.4864,-2.5195,-2.5242,-2.5231,-2.5201,-2.5195,-2.5203,-2.5191,-2.5168,-2.5125,-2.5107,-2.507,-2.5038,-2.4993,-2.4992,-2.4998,-2.5003,-2.5003,-2.5003,-2.5003,-2.5003,-2.5003,-2.5003,-2.5003,-2.5003,-2.5003,-2.5003,-2.5003,-2.5003,-2.5003,-2.5003,-2.5003,-2.5003,-2.491,-2.4805,-2.478,-2.4734,-2.4695,-2.4623,-2.4623,-2.4658,-2.4564,-2.4512,-2.4439,-2.4109,-2.3999,-2.3952,-2.3636,-2.3155,-2.2442,-2.1146,-2.057,-2.0217,-1.972,-1.9576,-1.9529,-1.9446,-1.9416,-1.9361,-1.9321,-1.923,-1.9156,-1.9111,-1.9034,-1.8956,-1.8923,-1.8861,-1.8843,-1.8843,-1.8824,-1.8797,-1.8797,-1.8529,-1.8021,-1.7209,-1.7155,-1.6941,-1.6433,-1.5844,-1.5327,-1.4863,-1.4845,-1.4581,-1.4054,-1.4037,-1.3991,-1.3942,-1.3934,-1.39,-1.3859,-1.421,-1.4378,-0.97,-0.9298,-0.9243,-1.1522,0.0,0.0,-1.3989,-1.5489,-1.6733,-1.6947,-1.7677,-1.8469,-1.9068,-1.9639,-2.0377,-2.1502,-2.2198,-2.2991,-2.4114,-2.4787,-2.5175,-2.5175,-2.5175,-2.5175,-2.5175,-2.5175,-2.5175,-2.5175,-2.5132,-2.5088,-2.5076,-2.5019,-2.5005,-2.4999,-2.4998,-2.5003,-2.5003,-2.5003,-2.5003,-2.5003,-2.5003,-2.5003,-2.5003,-2.5003,-2.5003,-2.5003,-2.5003,-2.5003,-2.5003,-2.5003,-2.5003,-2.5003,-2.5003,-2.4924,-2.4834,-2.4809,-2.4764,-2.4692,-2.4613,-2.4615,-2.4615,-2.453,-2.4505,-2.4497,-2.4508,-2.45,-2.45,-2.45,-2.4063,-2.3285,-2.1922,-2.1179,-2.066,-2.011,-1.9762,-1.9515,-1.942,-1.9357,-1.9266,-1.92,-1.9109,-1.9024,-1.8984,-1.8905,-1.8843,-1.8806,-1.8797,-1.8797,-1.8797,-1.8797,-1.8797,-1.8797,-1.8797,-1.8583,-1.803,-1.7976,-1.7736,-1.72,-1.7165,-1.6701,-1.5684,-1.5648,-1.5365,-1.4762,-1.4729,-1.4692,-1.4634,-1.4582,-1.4535,-1.4512,-1.4942,-1.515,-0.9786,-0.9286,-0.9127,0.0,0.0,0.0,-1.4828,-1.6317,-1.7747,-1.8543,-1.9401,-2.0007,-2.0007,-2.0015,-2.0568,-2.222,-2.2553,-2.3179,-2.4854,-2.5082,-2.5101,-2.5101,-2.5101,-2.5101,-2.5101,-2.5101,-2.5101,-2.5101,-2.5101,-2.5063,-2.4993,-2.4993,-2.4999,-2.5003,-2.5003,-2.5003,-2.5003,-2.5003,-2.5003,-2.5003,-2.5003,-2.5003,-2.5003,-2.5003,-2.5003,-2.5003,-2.5003,-2.5003,-2.5003,-2.5003,-2.5003,-2.5003,-2.5003,-2.4964,-2.4884,-2.4816,-2.4768,-2.4692,-2.4613,-2.4555,-2.4495,-2.449,-2.45,-2.45,-2.45,-2.45,-2.45,-2.45,-2.45,-2.4305,-2.3425,-2.2015,-2.0827,-2.079,-2.0196,-1.9573,-1.942,-1.9357,-1.9259,-1.9132,-1.8999,-1.8904,-1.8904,-1.8852,-1.8797,-1.8797,-1.8797,-1.8797,-1.8797,-1.8797,-1.8797,-1.8797,-1.8797,-1.8797,-1.8797,-1.8797,-1.8797,-1.8797,-1.8797,-1.8084,-1.6487,-1.6415,-1.6409,-1.6396,-1.6319,-1.6279,-1.6203,-1.6063,-1.5992,-1.5999,-1.5936,-1.5916,-1.0328,-1.053,0.0,-1.2474,0.0,0.0,0.0,-1.7553,0.0,0.0,-1.9817,-2.0007,-2.0007,-2.0454,-2.1015,-2.1574,-2.2669,-2.3612,-2.4125,-2.4721,-2.5101,-2.5101,-2.5101,-2.5101,-2.5101,-2.5101,-2.5101,-2.5101,-2.5057,-2.5025,-2.4993,-2.4992,-2.4998,-2.5003,-2.5003,-2.5003,-2.5003,-2.5003,-2.5003,-2.5003,-2.5003,-2.5003,-2.5003,-2.5003,-2.5003,-2.5003,-2.5003,-2.5003,-2.5003,-2.5003,-2.5003,-2.5003,-2.5003,-2.4924,-2.4834,-2.4801,-2.4768,-2.4692,-2.4613,-2.4599,-2.4547,-2.4455,-2.443,-2.4421,-2.4375,-2.4367,-2.4367,-2.4367,-2.4367,-2.4302,-2.4034,-2.3202,-2.2146,-2.1053,-2.0571,-2.0181,-1.9549,-1.9352,-1.9259,-1.9051,-1.8966,-1.8896,-1.8843,-1.8815,-1.8797,-1.8797,-1.8797,-1.8797,-1.8797,-1.8797,-1.8797,-1.8797,-1.8797,-1.8797,-1.8797,-1.8797,-1.8797,-1.8797,-1.8797,-1.8333,-1.728,-1.7244,-1.6961,-1.6337,-1.6261,-1.6193,-1.6133,-1.6036,-1.5991,-1.6017,-1.6461,-1.6664,-1.0594,-1.1,0.0,-1.3545,-1.4719,-1.5909,-1.7969,0.0,0.0,0.0,-2.0007,-2.0007,-2.0007,-2.0651,-2.1326,-2.1709,-2.2886,-2.3879,-2.4221,-2.4721,-2.5063,-2.5063,-2.5063,-2.5063,-2.5063,-2.5063,-2.5063,-2.5063,-2.5024,-2.4992,-2.4992,-2.4998,-2.5003,-2.5003,-2.5003,-2.5003,-2.5003,-2.5003,-2.5003,-2.5003,-2.5003,-2.5003,-2.5003,-2.5003,-2.5003,-2.5003,-2.5003,-2.5003,-2.5003,-2.5003,-2.5003,-2.5003,-2.5003,-2.4924,-2.4842,-2.4801,-2.4768,-2.4692,-2.4613,-2.4582,-2.4532,-2.4375,-2.4294,-2.4266,-2.4201,-2.4182,-2.4182,-2.4182,-2.4182,-2.4182,-2.4182,-2.3823,-2.3152,-2.199,-2.12,-2.054,-1.996,-1.9499,-1.9176,-1.9018,-1.8931,-1.8852,-1.8806,-1.8797,-1.8797,-1.8797,-1.8797,-1.8797,-1.8797,-1.8797,-1.8797,-1.8797,-1.8797,-1.8797,-1.8797,-1.8797,-1.8797,-1.8797,-1.8797,-1.8565,-1.8057,-1.8048,-1.7799,-1.7223,-1.7144,-1.708,-1.6978,-1.691,-1.688,-1.688,-1.728,-1.7483,-1.0735,-1.1049,0.0,-1.4181,-1.5569,0.0,-1.9441,-2.0007,-2.0007,-2.0007,-2.0007,-2.0007,-2.0007,-2.0727,-2.1585,-2.2362,-2.3234,-2.4093,-2.4889,-2.5003,-2.5003,-2.5003,-2.5003,-2.5003,-2.5003,-2.5003,-2.5003,-2.5003,-2.5003,-2.5003,-2.5003,-2.5003,-2.5003,-2.5003,-2.5003,-2.5003,-2.5003,-2.5003,-2.5003,-2.5003,-2.5003,-2.5003,-2.5003,-2.5003,-2.5003,-2.5003,-2.5003,-2.5003,-2.4996,-2.4977,-2.4971,-2.499,-2.4983,-2.4924,-2.4863,-2.4794,-2.4746,-2.465,-2.4596,-2.4532,-2.4437,-2.4238,-2.4135,-2.4068,-2.3998,-2.3986,-2.3986,-2.3986,-2.3986,-2.3986,-2.3986,-2.3986,-2.3843,-2.3281,-2.1998,-2.0847,-2.0639,-1.991,-1.9274,-1.9136,-1.9013,-1.8895,-1.8815,-1.8797,-1.8797,-1.8797,-1.8797,-1.8797,-1.8797,-1.8797,-1.8797,-1.8797,-1.8797,-1.8797,-1.8797,-1.8797,-1.8797,-1.8797,-1.8797,-1.8761,-1.8706,-1.8752,-1.8724,-1.8603,-1.8534,-1.8435,-1.83,-1.8229,-1.82,-1.82,-1.82,-1.82,-1.1085,-1.1843,0.0,0.0,-1.6852,-1.8394,-1.9693,-2.0007,-2.0007,-2.0007,-2.0007,-2.0007,-2.0007,-2.1225,-2.2286,-2.2476,-2.3752,-2.4795,-2.4965,-2.5003,-2.5003,-2.5003,-2.5003,-2.5003,-2.5003,-2.5003,-2.5003,-2.5003,-2.5003,-2.5003,-2.5003,-2.5003,-2.5003,-2.5003,-2.5003,-2.5003,-2.5003,-2.5003,-2.5003,-2.5003,-2.5003,-2.5003,-2.5003,-2.5003,-2.5003,-2.5003,-2.5003,-2.4971,-2.4924,-2.4863,-2.4846,-2.4836,-2.4787,-2.4715,-2.4653,-2.4645,-2.4561,-2.4459,-2.4455,-2.4348,-2.4257,-2.4143,-2.4046,-2.3937,-2.3858,-2.3837,-2.3837,-2.3837,-2.3837,-2.3837,-2.3837,-2.3837,-2.3811,-2.3689,-2.2993,-2.2155,-2.1443,-2.1125,-2.0789,-2.0093,-1.9884,-1.9595,-1.8913,-1.8797,-1.8797,-1.8797,-1.8797,-1.8797,-1.8797,-1.8797,-1.8797,-1.8797,-1.8797,-1.8797,-1.8797,-1.8797,-1.8797,-1.8797,-1.8797,-1.8761,-1.8706,-1.8715,-1.8687,-1.8608,-1.8483,-1.8368,-1.83,-1.8229,-1.82,-1.82,-1.82,-1.82,-1.1269,0.0,0.0,-1.582,0.0,-1.886,-1.9782,-2.0007,-2.0007,-2.0007,-2.0007,-2.0121,-2.0499,-2.1623,-2.2628,-2.3007,-2.4169,-2.5003,-2.5003,-2.5003,-2.5003,-2.5003,-2.5003,-2.5003,-2.5003,-2.5003,-2.5003,-2.5003,-2.5003,-2.5003,-2.5003,-2.5003,-2.5003,-2.5003,-2.5003,-2.5003,-2.5003,-2.5003,-2.5003,-2.5003,-2.5003,-2.5003,-2.5003,-2.5003,-2.5003,-2.5003,-2.5003,-2.4931,-2.4849,-2.4749,-2.4681,-2.4645,-2.4499,-2.4442,-2.4392,-2.4374,-2.4302,-2.4211,-2.421,-2.4143,-2.4047,-2.3937,-2.3855,-2.3789,-2.3693,-2.366,-2.366,-2.366,-2.366,-2.366,-2.366,-2.366,-2.366,-2.366,-2.3164,-2.2587,-2.2114,-2.1694,-2.1274,-2.0812,-2.0655,-2.0425,-1.9984,-1.9903,-1.9778,-1.9421,-1.9368,-1.9243,-1.8851,-1.9136,-1.9368,-1.9368,-1.9689,-1.9903,-1.9903,-1.9903,-1.9742,-1.9413,-1.9368,-1.9161,-1.8659,-1.8642,-1.8612,-1.8542,-1.8426,-1.8328,-1.8294,-1.8236,-1.82,-1.82,-1.82,-1.8172,-1.1163,0.0,-1.3307,-1.6485,-1.7941,0.0,-1.9754,-1.9979,-1.9979,-1.9979,-1.9977,-2.0253,-2.1049,-2.1907,-2.276,-2.3575,-2.4435,-2.5003,-2.5003,-2.5003,-2.5003,-2.5003,-2.5003,-2.5003,-2.5003,-2.5003,-2.5003,-2.5003,-2.5003,-2.5003,-2.5003,-2.5003,-2.5003,-2.5003,-2.5003,-2.5003,-2.5003,-2.5003,-2.5003,-2.5003,-2.5003,-2.5003,-2.5003,-2.5003,-2.5003,-2.5003,-2.5003,-2.491,-2.4798,-2.4639,-2.4545,-2.4452,-2.4247,-2.4164,-2.4144,-2.4087,-2.402,-2.3971,-2.3968,-2.3917,-2.3845,-2.3732,-2.3675,-2.3645,-2.3539,-2.3505,-2.3505,-2.3505,-2.3505,-2.3505,-2.3505,-2.3505,-2.3505,-2.3505,-2.312,-2.2754,-2.2754,-2.2178,-2.1632,-2.1488,-2.1266,-2.1108,-2.1108,-2.1108,-2.0894,-2.0287,-2.018,-1.9948,-1.9279,-1.9787,-2.018,-2.018,-2.0733,-2.1108,-2.1108,-2.1108,-2.084,-2.0234,-2.018,-1.9838,-1.9056,-1.8887,-1.8786,-1.8715,-1.8448,-1.8297,-1.8298,-1.8225,-1.82,-1.82,-1.82,-1.8162,-1.048,0.0,-1.4804,0.0,-1.786,-1.8744,0.0,0.0,-1.9826,-1.9826,-1.9915,-2.0253,-2.1049,-2.1907,-2.276,-2.3575,-2.4435,-2.5003,-2.5003,-2.5003,-2.5003,-2.5003,-2.5003,-2.5003,-2.5003,-2.5003,-2.5003,-2.5003,-2.5003,-2.5003,-2.5003,-2.5003,-2.5003,-2.5003,-2.5003,-2.5003,-2.5003,-2.5003,-2.5003,-2.5003,-2.5003,-2.5003,-2.5003,-2.5003,-2.5003,-2.5003,-2.5003,-2.4922,-2.4798,-2.4586,-2.4435,-2.4303,-2.4106,-2.3988,-2.3937,-2.3937,-2.3878,-2.3837,-2.3827,-2.3782,-2.3732,-2.3711,-2.3623,-2.3528,-2.3505,-2.3505,-2.3505,-2.3505,-2.3505,-2.3505,-2.3505,-2.3505,-2.3505,-2.3505,-2.3439,-2.339,-2.339,-2.3289,-2.2992,-2.2289,-2.1582,-2.1108,-2.1108,-2.1108,-2.1072,-2.0965,-2.0947,-2.0912,-2.0805,-2.0894,-2.0947,-2.0947,-2.1036,-2.1108,-2.1108,-2.1108,-2.1054,-2.0965,-2.0947,-2.0899,-2.0776,-2.0033,-1.9618,-1.9544,-1.872,-1.83,-1.8307,-1.8229,-1.82,-1.82,-1.82,-1.82,-1.1054,-1.2695,-1.4437,0.0,-1.7435,-1.8056,-1.9337,-1.9624,-1.9624,-1.9624,-2.003,-2.067,-2.1582,-2.2111,-2.281,-2.4114,-2.4671,-2.4964,-2.4984,-2.5003,-2.5003,-2.5003,-2.5003,-2.5003,-2.5003,-2.5003,-2.5003,-2.5003,-2.5003,-2.5003,-2.5003,-2.5003,-2.5003,-2.5003,-2.5003,-2.5003,-2.5003,-2.5003,-2.5003,-2.5003,-2.5003,-2.4977,-2.4938,-2.4903,-2.4936,-2.5003,-2.5003,-2.4908,-2.4715,-2.4449,-2.4247,-2.4105,-2.3821,-2.3693,-2.3671,-2.3671,-2.366,-2.3638,-2.3638,-2.3605,-2.3596,-2.3596,-2.3551,-2.3505,-2.3505,-2.3505,-2.3505,-2.3505,-2.3505,-2.3505,-2.3505,-2.3505,-2.3505,-2.3505,-2.3505,-2.3505,-2.3505,-2.3505,-2.3398,-2.3053,-2.2685,-2.2435,-2.2435,-2.2435,-2.2292,-2.1839,-2.1768,-2.1607,-2.1161,-2.1483,-2.1768,-2.1768,-2.2178,-2.2435,-2.2435,-2.2435,-2.225,-2.1804,-2.1768,-2.1558,-2.1054,-2.0678,-2.0421,-2.0325,-1.8989,-1.8297,-1.8311,-1.8225,-1.82,-1.82,-1.82,-1.819,-1.1058,-1.2206,-1.3587,-1.6109,-1.6738,-1.7219,0.0,-1.9288,-1.9196,-1.9399,-1.993,-2.07,-2.1861,-2.2315,-2.3025,-2.4531,-2.4827,-2.4903,-2.4996,-2.5003,-2.5003,-2.5003,-2.5003,-2.5003,-2.5003,-2.5003,-2.5003,-2.5003,-2.5003,-2.5003,-2.5003,-2.5003,-2.5003,-2.5003,-2.5003,-2.5003,-2.5003,-2.5003,-2.5003,-2.5003,-2.5003,-2.4957,-2.487,-2.4813,-2.4813,-2.4901,-2.4922,-2.4817,-2.4602,-2.4301,-2.4098,-2.3925,-2.3623,-2.3505,-2.3505,-2.3505,-2.3505,-2.3505,-2.3505,-2.3505,-2.3505,-2.3505,-2.3505,-2.3505,-2.3505,-2.3505,-2.3505,-2.3505,-2.3505,-2.3505,-2.3505,-2.3505,-2.3505,-2.3505,-2.3505,-2.3505,-2.3505,-2.3505,-2.3505,-2.3505,-2.3505,-2.3505,-2.3505,-2.3505,-2.3291,-2.2696,-2.2589,-2.2393,-2.1786,-2.2232,-2.2589,-2.2589,-2.3131,-2.3505,-2.3505,-2.3505,-2.3238,-2.2642,-2.2589,-2.2313,-2.1635,-2.1412,-2.1223,-2.1123,-1.9636,-1.8784,-1.8603,-1.8329,-1.82,-1.82,-1.82,-1.8162,-0.9501,-1.0867,-1.2652,-1.5147,-1.576,-1.6384,-1.8779,-1.8717,-1.8386,-1.9139,-1.9349,-1.9845,-2.1444,-2.2514,-2.3484,-2.4542,-2.4764,-2.485,-2.499,-2.5003,-2.5003,-2.5003,-2.5003,-2.5003,-2.5003,-2.5003,-2.5003,-2.5003,-2.5003,-2.5003,-2.5003,-2.5003,-2.5003,-2.5003,-2.5003,-2.5003,-2.5003,-2.5003,-2.5003,-2.5003,-2.5003,-2.4924,-2.4794,-2.4746,-2.4668,-2.4631,-2.4684,-2.4602,-2.4398,-2.4192,-2.3999,-2.3785,-2.3589,-2.3505,-2.3505,-2.3505,-2.3505,-2.3505,-2.3505,-2.3505,-2.3505,-2.3505,-2.3505,-2.3505,-2.3505,-2.3505,-2.3505,-2.3505,-2.3505,-2.3505,-2.3505,-2.3505,-2.3505,-2.3505,-2.3505,-2.3505,-2.3505,-2.3505,-2.3505,-2.3505,-2.3505,-2.3505,-2.3505,-2.3505,-2.3487,-2.3434,-2.3434,-2.3416,-2.338,-2.3416,-2.3434,-2.3434,-2.3487,-2.3505,-2.3505,-2.3505,-2.3487,-2.3434,-2.3434,-2.3393,-2.3288,-2.2468,-2.1999,-2.1937,-2.0987,-2.0135,-1.9432,-1.8592,-1.82,-1.82,-1.82,-1.82,-0.9324,-1.0336,0.0,-1.3543,-1.4817,-1.5794,-1.6656,-1.7839,-1.8677,-1.8448,-1.9223,-2.0133,-2.0697,-2.1663,-2.2866,-2.4399,-2.4684,-2.4795,-2.4983,-2.5003,-2.5003,-2.5003,-2.5003,-2.5003,-2.5003,-2.5003,-2.5003,-2.5003,-2.5003,-2.5003,-2.5003,-2.5003,-2.5003,-2.5003,-2.5003,-2.5003,-2.5003,-2.5003,-2.4971,-2.4931,-2.4896,-2.4805,-2.4662,-2.4559,-2.4478,-2.442,-2.4393,-2.4357,-2.4321,-2.4117,-2.3941,-2.3785,-2.3623,-2.3539,-2.3505,-2.3505,-2.3505,-2.3505,-2.3505,-2.3505,-2.3505,-2.3505,-2.3505,-2.3505,-2.3505,-2.3505,-2.3505,-2.3505,-2.3505,-2.3505,-2.3505,-2.388,-2.4379,-2.4861,-2.4968,-2.4968,-2.4968,-2.4201,-2.3505,-2.3505,-2.3505,-2.3505,-2.3505,-2.3505,-2.3505,-2.3505,-2.3505,-2.3505,-2.3505,-2.3505,-2.3505,-2.3505,-2.3505,-2.3505,-2.3505,-2.3505,-2.3482,-2.3448,-2.3448,-2.3401,-2.3277,-2.2935,-2.2722,-2.2637,-2.1753,-2.0686,-1.9436,-1.9089,-1.8666,-1.82,-1.82,-1.82,-0.8944,-0.9883,0.0,0.0,-1.3702,-1.4843,-1.5379,-1.695,-1.8226,-1.7954,-1.8968,-1.9974,-2.0246,-2.0893,-2.1994,-2.3832,-2.4433,-2.473,-2.4983,-2.5003,-2.5003,-2.5003,-2.5003,-2.5003,-2.5003,-2.5003,-2.5003,-2.5003,-2.5003,-2.5003,-2.5003,-2.5003,-2.5003,-2.5003,-2.5003,-2.5003,-2.5003,-2.5003,-2.4957,-2.487,-2.4805,-2.467,-2.4534,-2.4372,-2.4257,-2.4191,-2.4095,-2.4123,-2.4191,-2.4029,-2.3888,-2.375,-2.3634,-2.3562,-2.3505,-2.3505,-2.3505,-2.3505,-2.3505,-2.3505,-2.3505,-2.3505,-2.3505,-2.3505,-2.3505,-2.3505,-2.3505,-2.3505,-2.3505,-2.3505,-2.3505,-2.4094,-2.489,-2.5622,-2.58,-2.58,-2.58,-2.5003,-2.4272,-2.4272,-2.4272,-2.4272,-2.4272,-2.4058,-2.3898,-2.3898,-2.3666,-2.3505,-2.3505,-2.3505,-2.3505,-2.3505,-2.3505,-2.3505,-2.3505,-2.3505,-2.3471,-2.3395,-2.3372,-2.3301,-2.318,-2.3082,-2.3008,-2.2927,-2.2344,-2.1411,-2.0148,-1.9826,-1.9424,-1.8941,-1.8941,-1.893,0.0,0.0,0.0,0.0,-1.2459,-1.3467,-1.5035,-1.6045,-1.6892,-1.7708,-1.8497,-1.9313,-2.0119,-2.0343,-2.0989,-2.2821,-2.3905,-2.462,-2.4912,-2.4959,-2.4965,-2.4984,-2.4984,-2.4984,-2.4984,-2.4984,-2.4984,-2.4984,-2.5003,-2.5003,-2.5003,-2.5003,-2.5003,-2.5003,-2.5003,-2.5003,-2.5003,-2.5003,-2.4936,-2.4787,-2.4712,-2.4594,-2.4381,-2.4183,-2.4049,-2.3996,-2.3865,-2.3858,-2.3996,-2.3917,-2.3821,-2.3689,-2.3629,-2.3562,-2.3505,-2.3505,-2.3505,-2.3505,-2.3505,-2.3505,-2.3505,-2.3505,-2.3505,-2.3505,-2.3505,-2.3505,-2.3505,-2.3505,-2.3505,-2.3505,-2.3559,-2.4147,-2.4926,-2.5693,-2.5872,-2.5872,-2.5872,-2.5872,-2.5872,-2.5818,-2.58,-2.58,-2.58,-2.5212,-2.473,-2.473,-2.4058,-2.3577,-2.3577,-2.3577,-2.3559,-2.3541,-2.3541,-2.3523,-2.3505,-2.3505,-2.3471,-2.3395,-2.3336,-2.3241,-2.3089,-2.2982,-2.2868,-2.2803,-2.2725,-2.2337,-2.163,-2.0825,-2.0412,-2.0394,-2.0394,-2.0359,-0.8297,0.0,0.0,0.0,0.0,0.0,-1.2785,-1.4415,-1.6063,-1.6874,-1.7672,-1.8479,-1.9276,-1.9963,-2.0584,-2.115,-2.2081,-2.3003,-2.3801,-2.3964,-2.4193,-2.4792,-2.4849,-2.4849,-2.4849,-2.4849,-2.4849,-2.4849,-2.4903,-2.4957,-2.5003,-2.5003,-2.5003,-2.5003,-2.5003,-2.4971,-2.4931,-2.487,-2.4798,-2.4654,-2.4543,-2.4408,-2.4248,-2.4096,-2.3988,-2.3917,-2.3837,-2.3816,-2.3847,-2.3845,-2.3771,-2.37,-2.3678,-2.3589,-2.3505,-2.3505,-2.3505,-2.3505,-2.3505,-2.3505,-2.3505,-2.3505,-2.3505,-2.3505,-2.3505,-2.3505,-2.3505,-2.3505,-2.3505,-2.3755,-2.4861,-2.5337,-2.5854,-2.7215,-2.7536,-2.7536,-2.7536,-2.7536,-2.7197,-2.6032,-2.58,-2.58,-2.58,-2.564,-2.5497,-2.5497,-2.5319,-2.5146,-2.5146,-2.5146,-2.495,-2.4427,-2.4373,-2.4129,-2.3559,-2.3505,-2.3459,-2.3336,-2.3313,-2.3217,-2.3045,-2.2906,-2.2803,-2.2725,-2.2605,-2.2449,-2.2261,-2.1579,-2.0975,-2.0394,-2.0347,-2.0262,-0.9806,0.0,0.0,-1.0078,0.0,0.0,-1.1903,-1.3503,-1.5313,-1.6457,-1.7074,-1.7654,-1.8443,-1.9038,-1.9413,-1.946,-2.0241,-2.1342,-2.2697,-2.2925,-2.3156,-2.3665,-2.4008,-2.4227,-2.4215,-2.4527,-2.4576,-2.4234,-2.4605,-2.4889,-2.4984,-2.5003,-2.5003,-2.5003,-2.5003,-2.4957,-2.4863,-2.4779,-2.4681,-2.4508,-2.4355,-2.422,-2.4106,-2.3978,-2.3896,-2.3865,-2.3816,-2.3806,-2.3806,-2.3806,-2.3761,-2.37,-2.37,-2.3611,-2.3505,-2.3505,-2.3505,-2.3559,-2.388,-2.4005,-2.404,-2.4361,-2.445,-2.445,-2.445,-2.4236,-2.4005,-2.4005,-2.4005,-2.4272,-2.5497,-2.605,-2.6621,-2.7892,-2.8196,-2.8196,-2.8196,-2.8196,-2.7928,-2.6983,-2.6804,-2.6804,-2.6804,-2.6532,-2.63,-2.63,-2.6015,-2.58,-2.58,-2.58,-2.564,-2.5212,-2.4873,-2.4516,-2.404,-2.3684,-2.3441,-2.3348,-2.3313,-2.3217,-2.302,-2.2812,-2.2668,-2.2582,-2.2385,-2.2287,-2.2287,-2.2084,-2.1743,-2.1322,-2.1309,-2.1203,-1.2169,-1.2097,0.0,-1.1142,-1.1432,0.0,-1.1903,-1.302,-1.4463,-1.5986,-1.6367,-1.6675,-1.7483,-1.776,-1.7853,-1.7854,-1.8512,-1.9672,-2.1569,-2.1906,-2.2002,-2.2152,-2.2805,-2.3233,-2.3236,-2.3888,-2.4011,-2.3311,-2.4122,-2.4711,-2.4824,-2.4926,-2.4976,-2.4976,-2.4976,-2.4915,-2.4772,-2.4696,-2.4578,-2.4391,-2.4174,-2.4039,-2.3986,-2.3865,-2.3806,-2.3806,-2.3806,-2.3806,-2.3806,-2.3806,-2.3761,-2.37,-2.37,-2.3611,-2.3505,-2.3505,-2.3559,-2.3737,-2.4462,-2.4748,-2.4926,-2.5586,-2.58,-2.58,-2.58,-2.5337,-2.4819,-2.4819,-2.4766,-2.489,-2.5729,-2.6461,-2.7192,-2.7999,-2.8196,-2.8196,-2.8196,-2.8196,-2.8196,-2.8196,-2.8196,-2.8196,-2.8196,-2.762,-2.7121,-2.7121,-2.6514,-2.6055,-2.6055,-2.6043,-2.6007,-2.5918,-2.5312,-2.4866,-2.47,-2.404,-2.3571,-2.3413,-2.3336,-2.3217,-2.302,-2.2743,-2.2535,-2.2391,-2.2115,-2.1984,-2.1984,-2.2301,-2.2497,-2.2565,-2.2632,-2.2582,-1.3829,-1.3359,-1.2839,-1.2676,-1.226,0.0,-1.1903,-1.2133,-1.264,-1.36,-1.4324,-1.5006,-1.582,-1.6505,-1.6943,-1.6951,-1.7103,-1.8052,-2.0447,-2.0891,-2.1235,-2.1954,-2.2177,-2.2271,-2.2271,-2.2423,-2.2433,-2.2271,-2.3191,-2.3761,-2.379,-2.4403,-2.4753,-2.4753,-2.4753,-2.4715,-2.4637,-2.451,-2.4391,-2.4248,-2.4086,-2.3978,-2.3917,-2.3827,-2.3806,-2.3806,-2.3806,-2.3806,-2.3806,-2.3806,-2.3761,-2.37,-2.37,-2.3611,-2.3505,-2.3505,-2.3915,-2.4498,-2.4659,-2.5087,-2.5604,-2.5747,-2.58,-2.58,-2.58,-2.5711,-2.5586,-2.5586,-2.5158,-2.5015,-2.6407,-2.6884,-2.7192,-2.7999,-2.8196,-2.8196,-2.8196,-2.8196,-2.8196,-2.8196,-2.8196,-2.8196,-2.8196,-2.8071,-2.7964,-2.7964,-2.7839,-2.7718,-2.7664,-2.7591,-2.7315,-2.6663,-2.6486,-2.5909,-2.4716,-2.4528,-2.4159,-2.3448,-2.3383,-2.3265,-2.302,-2.2786,-2.2579,-2.2332,-2.1986,-2.184,-2.184,-2.207,-2.2257,-2.2432,-2.2446,-2.2432,-1.5508,-1.52,-1.4693,-1.3902,-1.3395,0.0,0.0,-1.2495,-1.2839,-1.4046,-1.43,-1.4553,-1.5343,-1.582,-1.6099,-1.6099,-1.6776,-1.7594,-1.8486,-1.9049,-1.9677,-2.0543,-2.1016,-2.1248,-2.1245,-2.1574,-2.1805,-2.1855,-2.2006,-2.2451,-2.3265,-2.371,-2.4148,-2.4543,-2.4543,-2.452,-2.4445,-2.4311,-2.4201,-2.4096,-2.3968,-2.3886,-2.3837,-2.3816,-2.3806,-2.3806,-2.3806,-2.3806,-2.3806,-2.3806,-2.3761,-2.37,-2.37,-2.3611,-2.3559,-2.3951,-2.4343,-2.4819,-2.5569,-2.6086,-2.6461,-2.6871,-2.7001,-2.7001,-2.7001,-2.6728,-2.63,-2.5908,-2.5818,-2.6032,-2.6813,-2.7299,-2.771,-2.8106,-2.8196,-2.8196,-2.8196,-2.8196,-2.8196,-2.8196,-2.8196,-2.8196,-2.8196,-2.8196,-2.8196,-2.8196,-2.8196,-2.8154,-2.8071,-2.7922,-2.7694,-2.725,-2.6859,-2.6386,-2.5694,-2.5072,-2.4522,-2.4076,-2.3673,-2.3336,-2.3119,-2.2876,-2.2504,-2.2003,-2.1797,-2.1648,-2.1556,-2.169,-2.1926,-2.226,-2.2318,-2.2349,-1.7164,-1.7056,-1.6584,-1.5121,-1.4644,-1.4282,0.0,0.0,0.0,-1.4571,-1.4408,-1.4264,-1.4909,-1.5162,-1.5271,-1.5271,-1.6352,-1.703,-1.6541,-1.707,-1.7839,-1.8716,-1.9526,-2.003,-2.0028,-2.0564,-2.0994,-2.1184,-2.0726,-2.107,-2.2514,-2.2928,-2.3446,-2.4096,-2.4245,-2.4293,-2.4238,-2.4107,-2.4029,-2.3986,-2.3865,-2.3806,-2.3806,-2.3806,-2.3806,-2.3806,-2.3806,-2.3806,-2.3806,-2.3806,-2.3761,-2.37,-2.37,-2.3701,-2.3808,-2.4462,-2.489,-2.5319,-2.6581,-2.7103,-2.7335,-2.7981,-2.8196,-2.8196,-2.8196,-2.7638,-2.6889,-2.6407,-2.6621,-2.7045,-2.7192,-2.7696,-2.8196,-2.8196,-2.8196,-2.8196,-2.8196,-2.8196,-2.8196,-2.8196,-2.8196,-2.8196,-2.8196,-2.8196,-2.8213,-2.8182,-2.8168,-2.8099,-2.794,-2.7748,-2.7582,-2.7524,-2.6979,-2.6632,-2.6627,-2.5667,-2.493,-2.461,-2.3993,-2.3496,-2.3156,-2.2846,-2.2364,-2.1724,-2.1603,-2.1481,-2.1293,-2.134,-2.16,-2.2041,-2.2144,-2.222,-1.8824,-1.8316,-1.7545,-1.6657,-1.5882,-1.4963,-1.3449,0.0,-1.2948,-1.2423,0.0,-1.325,-1.3359,0.0,0.0,-1.4445,-1.4589,-1.4933,-1.5549,-1.5712,-1.6116,-1.6979,-1.78,-1.8286,-1.8286,-1.8354,-1.8687,-1.9346,-1.9431,-1.984,-2.0749,-2.2144,-2.2988,-2.3079,-2.3701,-2.4046,-2.4036,-2.3958,-2.3927,-2.3907,-2.3845,-2.3806,-2.3806,-2.3806,-2.3806,-2.3806,-2.3806,-2.3806,-2.3806,-2.3806,-2.3761,-2.37,-2.37,-2.4042,-2.4569,-2.4676,-2.5569,-2.6746,-2.6938,-2.7478,-2.8088,-2.8178,-2.8196,-2.8196,-2.8196,-2.7638,-2.7121,-2.775,-2.7478,-2.7157,-2.7874,-2.8142,-2.8196,-2.8196,-2.8196,-2.8196,-2.8196,-2.8196,-2.8196,-2.8196,-2.8196,-2.8196,-2.8196,-2.8196,-2.8168,-2.8112,-2.8071,-2.7925,-2.7677,-2.7417,-2.7244,-2.7261,-2.7175,-2.6909,-2.6385,-2.6381,-2.578,-2.4344,-2.4168,-2.3753,-2.2962,-2.246,-2.2027,-2.1709,-2.1526,-2.1387,-2.1293,-2.1309,-2.1464,-2.1738,-2.1827,-2.1913,-2.0499,-1.9902,-1.8987,-1.77,-1.6794,-1.5773,-1.4155,-1.4155,-1.4408,-1.4064,0.0,0.0,0.0,0.0,0.0,0.0,-1.5393,-1.5483,-1.4897,-1.5216,-1.5816,-1.6646,-1.7035,-1.7231,-1.7185,-1.7188,-1.7276,-1.7529,-1.7669,-1.826,-1.9513,-2.0699,-2.1742,-2.2648,-2.2962,-2.335,-2.3821,-2.385,-2.3831,-2.3831,-2.3813,-2.3806,-2.3806,-2.3806,-2.3806,-2.3806,-2.3806,-2.3806,-2.3806,-2.3806,-2.4021,-2.4332,-2.4332,-2.4496,-2.4819,-2.5693,-2.6443,-2.708,-2.7531,-2.791,-2.8196,-2.8196,-2.8196,-2.8196,-2.8196,-2.7964,-2.7781,-2.8106,-2.7964,-2.7767,-2.8106,-2.8196,-2.8196,-2.8196,-2.8196,-2.8196,-2.8196,-2.8196,-2.8196,-2.8196,-2.8196,-2.8196,-2.8196,-2.8196,-2.8154,-2.8071,-2.7925,-2.7701,-2.7417,-2.7101,-2.6891,-2.6859,-2.6891,-2.6819,-2.6607,-2.6377,-2.5961,-2.5288,-2.4393,-2.3542,-2.2703,-2.2292,-2.1998,-2.1768,-2.1603,-2.1433,-2.1293,-2.1293,-2.1356,-2.1464,-2.1619,-2.1753,-2.1514,-2.0916,-1.9902,-1.8298,-1.7309,-1.6349,-1.4951,-1.5071,-1.556,-1.5784,-1.6287,0.0,0.0,0.0,-1.6432,0.0,0.0,-1.5889,-1.4499,-1.48,-1.5386,-1.5961,-1.6233,-1.6421,-1.6589,-1.6401,-1.6302,-1.6421,-1.6512,-1.7164,-1.8511,-1.957,-2.0757,-2.2093,-2.2345,-2.2848,-2.3667,-2.375,-2.3783,-2.3804,-2.3792,-2.3806,-2.3806,-2.3806,-2.3806,-2.3806,-2.3806,-2.3806,-2.3806,-2.3806,-2.4209,-2.4823,-2.5039,-2.5201,-2.5461,-2.6598,-2.7139,-2.7406,-2.7999,-2.8196,-2.8196,-2.8196,-2.8196,-2.8196,-2.8196,-2.8196,-2.8196,-2.8196,-2.8196,-2.8196,-2.8196,-2.8196,-2.8196,-2.8196,-2.8196,-2.8196,-2.8196,-2.8196,-2.8196,-2.8196,-2.8196,-2.8196,-2.8196,-2.8196,-2.814,-2.7968,-2.7777,-2.7522,-2.7198,-2.6841,-2.6607,-2.6589,-2.659,-2.6657,-2.6742,-2.6411,-2.611,-2.5905,-2.4628,-2.3599,-2.2983,-2.2762,-2.2542,-2.2332,-2.2012,-2.1759,-2.1601,-2.139,-2.1293,-2.1293,-2.145,-2.1573,-2.1514,-2.0916,-1.9902,-1.8298,-1.7309,-1.6476,-1.5657,-1.5488,-1.573,-1.6512,-1.6675,-1.6693,-1.6693,-1.6693,0.0,0.0,0.0,0.0,0.0,-1.4318,-1.4354,-1.4372,-1.5053,-1.5817,-1.6521,-1.5904,-1.5742,-1.6435,-1.6506,-1.6864,-1.7696,-1.9183,-2.0391,-2.1223,-2.1925,-2.2711,-2.3596,-2.3667,-2.3732,-2.3804,-2.3792,-2.3806,-2.3806,-2.3806,-2.3806,-2.3806,-2.3806,-2.3806,-2.3806,-2.3806,-2.4209,-2.4877,-2.5668,-2.6348,-2.6938,-2.6991,-2.7496,-2.8178,-2.8196,-2.8196,-2.8196,-2.8196,-2.8196,-2.8196,-2.8196,-2.8196,-2.8196,-2.8196,-2.8196,-2.8196,-2.8196,-2.8196,-2.8196,-2.8196,-2.8196,-2.8196,-2.8196,-2.8196,-2.8196,-2.8196,-2.8196,-2.8196,-2.8196,-2.8196,-2.8112,-2.7847,-2.763,-2.7388,-2.704,-2.6657,-2.6435,-2.6502,-2.6452,-2.6469,-2.6589,-2.6657,-2.6369,-2.5659,-2.4849,-2.4299,-2.4158,-2.4062,-2.3901,-2.3653,-2.2867,-2.2443,-2.2361,-2.1665,-2.1293,-2.1293,-2.1325,-2.1309,-2.3017,-2.2473,-2.1504,-1.9884,-1.8878,-1.7936,-1.6595,-1.6704,-1.732,-1.8117,-1.8715,-1.9258,-1.9775,-1.9431,0.0,0.0,0.0,0.0,0.0,-1.4644,-1.43,-1.43,-1.5483,-1.5965,-1.5164,-1.5309,-1.5335,-1.501,-1.5461,-1.6082,-1.6796,-1.8386,-1.9845,-2.1093,-2.1386,-2.2171,-2.351,-2.3645,-2.3711,-2.3732,-2.3782,-2.3806,-2.3806,-2.3806,-2.3806,-2.3806,-2.3806,-2.3806,-2.3806,-2.3806,-2.4515,-2.5614,-2.5883,-2.6742,-2.7785,-2.7785,-2.7964,-2.8196,-2.8196,-2.8196,-2.8196,-2.8196,-2.8196,-2.8196,-2.8196,-2.8196,-2.8196,-2.8196,-2.8196,-2.8196,-2.8196,-2.8196,-2.8196,-2.8196,-2.8196,-2.8196,-2.8196,-2.8196,-2.82,-2.814,-2.8099,-2.8042,-2.795,-2.7893,-2.785,-2.7745,-2.7491,-2.7182,-2.6842,-2.6486,-2.6276,-2.6292,-2.6276,-2.6276,-2.6328,-2.6346,-2.6047,-2.533,-2.493,-2.4497,-2.3967,-2.3819,-2.3735,-2.3634,-2.3321,-2.2913,-2.2394,-2.2151,-2.1778,-2.1293,-2.1293,-2.1293,-2.3806,-2.327,-2.2373,-2.1061,-2.0119,-1.9186,-1.7871,-1.8171,-1.8987,-1.9793,-2.0373,-2.097,-2.1776,-2.1043,-1.9938,0.0,0.0,0.0,0.0,-1.4626,-1.43,-1.43,-1.5212,-1.5556,-1.4805,-1.4932,-1.4959,-1.4643,-1.5074,-1.5662,-1.6362,-1.7698,-1.9146,-2.0662,-2.0965,-2.175,-2.3071,-2.3475,-2.3667,-2.37,-2.3768,-2.3803,-2.3806,-2.3806,-2.3806,-2.3795,-2.3803,-2.3792,-2.3828,-2.4068,-2.4874,-2.6002,-2.629,-2.7115,-2.8168,-2.8182,-2.8196,-2.8196,-2.8196,-2.8196,-2.8196,-2.8196,-2.8196,-2.8196,-2.8196,-2.8196,-2.8196,-2.8196,-2.8196,-2.8196,-2.8196,-2.8196,-2.8196,-2.8196,-2.8196,-2.8196,-2.8196,-2.8196,-2.8168,-2.8085,-2.7968,-2.785,-2.7719,-2.7597,-2.7537,-2.76,-2.7322,-2.7022,-2.6708,-2.6399,-2.6202,-2.6202,-2.6202,-2.6202,-2.6202,-2.6202,-2.5987,-2.5507,-2.5405,-2.5121,-2.4575,-2.4471,-2.4366,-2.4312,-2.4,-2.3625,-2.3139,-2.2637,-2.2151,-2.1681,-2.1423,-2.1293]},{"header":{"parameterUnit":"m.s-1","parameterCategory":1,"la1":30.6,"la2":29.2853,"lo1":-89.7004,"lo2":-87.6739,"dy":0.0162,"dx":0.0183,"nx":112,"ny":82,"refTime":"2026-05-11T12:00:00:Z","depth":0,"parameterNumber":3,"parameterNumberName":"V-component_of_WINDS"},"data":[0.0,0.0,0.0,0.0,0.0,0.0,0.0,0.0,0.0,0.0,0.0,0.0,0.0,0.0,0.0,0.0,0.0,0.0,0.0,0.0,0.0,0.0,0.0,0.0,0.0,0.0,0.0,0.0,0.0,0.0,0.0,0.0,0.0,0.0,0.0,0.0,0.0,0.0,0.0,0.0,0.0,0.0,0.0,0.0,0.0,0.0,0.0,0.0,0.0,0.0,0.0,0.0,0.0,0.0,0.0,0.0,0.0,0.0,0.0,0.0,0.0,0.0,0.0,0.0,0.0,0.0,0.0,0.0,0.0,0.0,0.0,0.0,0.0,0.0,0.0,0.0,0.0,0.0,0.0,0.0,0.0,0.0,0.0,0.0,0.0,0.0,0.0,0.0,0.0,0.0,0.0621,0.0506,0.0967,0.1394,0.166,0.1922,0.2158,0.2369,0.0,0.0,0.0,0.0,0.0,0.0,0.0,0.0,0.0,0.0,0.0,0.0,0.0,0.0,0.0,0.0,0.0,0.0,0.0,0.0,0.0,0.0,0.0,0.0,0.0,0.0,0.0,0.0,0.0,0.0,0.0,0.0,0.0,0.0,0.0,0.0,0.0,0.0,0.0,0.0,0.0,0.0,0.0,0.0,0.0,0.0,0.0,0.0,0.0,0.0,0.0,0.0,0.0,0.0,0.0,0.0,0.0,0.0,0.0,0.0,0.0,0.0,0.0,0.0,0.0,0.0,0.0,0.0,0.0,0.0,0.0,0.0,0.0,0.0,0.0,0.0,0.0,0.0,0.0,0.0,0.0,0.0,0.0,0.0,0.0,0.0,0.0,0.0,0.0,0.0,0.0,0.0,0.0,0.0,0.0,0.0,0.0,0.0,0.0,0.0,0.0,0.0,0.0,0.0,0.0628,0.0885,0.1095,0.1324,0.1587,0.1806,0.2043,0.2302,0.0,0.0,0.0,0.0,0.0,0.0,0.0,0.0,0.0,0.0,0.0,0.0,0.0,0.0,0.0,0.0,0.0,0.0,0.0,0.0,0.0,0.0,0.0,0.0,0.0,0.0,0.0,0.0,0.0,0.0,0.0,0.0,0.0,0.0,0.0,0.0,0.0,0.0,0.0,0.0,0.0,0.0,0.0,0.0,0.0,0.0,0.0,0.0,0.0,0.0,0.0,0.0,0.0,0.0,0.0,0.0,0.0,0.0,0.0,0.0,0.0,0.0,0.0,0.0,0.0,0.0,0.0,0.0,0.0,0.0,0.0,0.0,0.0,0.0,0.0,0.0,0.0,0.0,0.0,0.0,0.0,0.0,0.0,0.0,0.0,0.0,0.0,0.0,0.0,0.0,0.0,0.0,0.0,0.0,0.0,0.0,0.0,0.0,0.0,0.0,0.0,0.0,0.0,0.0517,0.0682,0.087,0.1046,0.1226,0.1421,0.1654,0.1873,0.2069,0.1524,0.0,0.0,0.0,0.0,0.0,0.0,0.0,0.0,0.0,0.0,0.0,0.0,0.0,0.0,0.0,0.0,0.0,0.0,0.0,0.0,0.0,0.0,0.0,0.0,0.0,0.0,0.0,0.0,0.0,0.0,0.0,0.0,0.0,0.0,0.0,0.0,0.0,0.0,0.0,0.0,0.0,0.0,0.0,0.0,0.0,0.0,0.0,0.0,0.0,0.0,0.0,0.0,0.0,0.0,0.0,0.0,0.0,0.0,0.0,0.0,0.0,0.0,0.0,0.0,0.0,0.0,0.0,0.0,0.0,0.0,0.0,0.0,0.0,0.0,0.0,0.0,0.0,0.0,0.0,0.0,0.0,0.0,0.0,0.0,0.0,0.0,0.0,0.0,0.0,0.0,0.0,0.0,0.0,0.0,0.0,0.0,0.0,0.0,0.0,0.0,0.0,0.0,0.0535,0.0729,0.079,0.0969,0.1139,0.1286,0.1517,0.1719,0.1869,0.137,0.0,0.0,0.0,0.0,0.0,0.0,0.0,0.0,0.0,0.0,0.0,0.0,0.0,0.0,0.0,0.0,0.0,0.0,0.0,0.0,0.0,0.0,0.0,0.0,0.0,0.0,0.0,0.0,0.0,0.0,0.0,0.0,0.0,0.0,0.0,0.0,0.0,0.0,0.0,0.0,0.0,0.0,0.0,0.0,0.0,0.0,0.0,0.0,0.0,0.0,0.0,0.0,0.0,0.0,0.0,0.0,0.0,0.0,0.0,0.0,0.0,0.0,0.0,0.0,0.0,0.0,0.0,0.0,0.0,0.0,0.0,0.0,0.0,0.0,0.0,0.0,0.0,0.0,0.0,0.0,0.0,0.0,0.0,0.0,0.0,0.0,0.0,0.0,0.0,0.0,0.0,0.0,0.0,0.0,0.0,0.0,0.0,0.0,0.0,0.0,0.0,0.0,0.0535,0.0729,0.079,0.0922,0.1086,0.128,0.1432,0.1597,0.1799,0.1303,0.0,0.0,0.0,0.0,0.0,0.0,0.0,0.0,0.0,0.0,0.0,0.0,0.0,0.0,0.0,0.0,0.0,0.0,0.0,0.0,0.0,0.0,0.0,0.0,0.0,0.0,0.0,0.0,0.0,0.0,0.0,0.0,0.0,0.0,0.0,0.0,0.0,0.0,0.0,0.0,0.0,0.0,0.0,0.0,0.0,0.0,0.0,0.0,0.0,0.0,0.0,0.0,0.0,0.0,0.0,0.0,0.0,0.0,0.0,0.0,0.0,0.0,0.0,0.0,0.0,0.0,0.0,0.0,0.0,0.0,0.0,0.0,0.0,0.0,0.0,0.0,0.0,0.0,0.0,0.0,0.0,0.0,0.0,0.0,0.0,0.0,0.0,0.0,0.0,0.0,0.0,0.0,0.0,0.0,0.0,0.0,0.0,0.0,0.0,0.0,0.0,0.0,0.0558,0.0712,0.0734,0.0857,0.1022,0.122,0.14,0.1571,0.1726,0.0,0.0,0.0,0.0,0.0,0.0,0.0,0.0,0.0,0.0,0.0,0.0,0.0,0.0,0.0,0.0,0.0,0.0,0.0,0.0,0.0,0.0,0.0,0.0,0.0,0.0,0.0,0.0,0.0,0.0,0.0,0.0,0.0,0.0,0.0,0.0,0.0,0.0,0.0,0.0,0.0,0.0,0.0,0.0,0.0,0.0,0.0,0.0,0.0,0.0,0.0,0.0,0.0,0.0,0.0,0.0,0.0,0.0,0.0,0.0,0.0,0.0,0.0,0.0,0.0,0.0,0.0,0.0,0.0,0.0,0.0,0.0,0.0,0.0,0.0,0.0,0.0,0.0,0.0,0.0,0.0,0.0,0.0,0.0,0.0,0.0,0.0,0.0,0.0,0.0,0.0,0.0,0.0,0.0,0.0,0.0,0.0,0.0,0.0,0.0,0.0,0.0,0.0379,0.0537,0.0654,0.0695,0.0818,0.0982,0.1183,0.1384,0.1566,0.1721,0.0,0.0,0.0,0.0,0.0,0.0,0.0,0.0,0.0,0.0,0.0,0.0,0.0,0.0,0.0,0.0,0.0,0.0,0.0,0.0,0.0,0.0,0.0,0.0,0.0,0.0,0.0,0.0,0.0,0.0,0.0,0.0,0.0,0.0,0.0,0.0,0.0,0.0,0.0,0.0,0.0,0.0,0.0,0.0,0.0,0.0,0.0,0.0,0.0,0.0,0.0,0.0,0.0,0.0,0.0,0.0,0.0,0.0,0.0,0.0,0.0,0.0,0.0,0.0,0.0,0.0,0.0,0.0,0.0,0.0,0.0,0.0,0.0,0.0,0.0,0.0,0.0,0.0,0.0,0.0,0.0,0.0,0.0,0.0,0.0,0.0,0.0,0.0,0.0,0.0,0.0,0.0,0.0,0.0,0.0,0.0,0.0,0.0,0.0,0.0,0.0,0.0,0.0374,0.0457,0.0554,0.0687,0.0818,0.0982,0.1183,0.1384,0.1581,0.0,0.0,0.0,0.0,0.0,0.0,0.0,0.0,0.0,0.0,0.0,0.0,0.0,0.0,0.0,0.0,0.0,0.0,0.0,0.0,0.0,0.0,0.0,0.0,0.0,0.0,0.0,0.0,0.0,0.0,0.0,0.0,0.0,0.0,0.0,0.0,0.0,0.0,0.0,0.0,0.0,0.0,0.0,0.0,0.0,0.0,0.0,0.0,0.0,0.0,0.0,0.0,0.0,0.0,0.0,0.0,0.0,0.0,0.0,0.0,0.0,0.0,0.0,0.0,0.0,0.0,0.0,0.0,0.0,0.0,0.0,0.0,0.0,0.0,0.0,0.0,0.0,0.0,0.0,0.0,0.0,0.0,0.0,0.0,0.0,0.0,0.0,0.0,0.0,0.0,0.0,0.0,0.0,0.0,0.0,0.0,0.0,0.0,0.0,0.0,0.0,0.0,0.0,0.0374,0.0457,0.0554,0.0687,0.0818,0.0982,0.1183,0.1341,0.1533,0.1782,0.0,0.0,0.0,0.0,0.0,0.0,0.0,0.0,0.0,0.0,0.0,0.0,0.0,0.0,0.0,0.0,0.0,0.0,0.0,0.0,0.0,0.0,0.0,0.0,0.0,0.0,0.0,0.0,0.0,0.0,0.0,0.0,0.0,0.0,0.0,0.0,0.0,0.0,0.0,0.0,0.0,0.0,0.0,0.0,0.0,0.0,0.0,0.0,0.0,0.0,0.0,0.0,0.0,0.0,0.0,0.0,0.0,0.0,0.0,0.0,0.0,0.0,0.0,0.0,0.0,0.0,0.0,0.0,0.0,0.0,0.0,0.0,0.0,0.0,0.0,0.0,0.0,0.0,0.0,0.0,0.0,0.0,0.0,0.0,0.0,0.0,0.0,0.0,0.0,0.0,0.0,0.0,0.0,0.0,0.0,0.0,0.0,0.0,0.0,0.0,0.0,0.0,0.0374,0.0457,0.0554,0.0687,0.0818,0.0967,0.1145,0.1308,0.1507,0.1748,0.0,0.0,0.0,0.0,0.0,0.0,0.0,0.0,0.0,0.0,0.0,0.0,0.0,0.0,0.0,0.0,0.0,0.0,0.0,0.0,0.0,0.0,0.0,0.0,0.0,0.0,0.0,0.0,0.0,0.0,0.0,0.0,0.0,0.0,0.0,0.0,0.0,0.0,0.0,0.0,0.0,0.0,0.0,0.0,0.0,0.0,0.0,0.0,0.0,0.0,0.0,0.0,0.0,0.0,0.0,0.0,0.0,0.0,0.0,0.0,0.0,0.0,0.0,0.0,0.0,0.0,0.0,0.0,0.0,0.0,0.0,0.0,0.0,0.0,0.0,0.0,0.0,0.0,0.0,0.0,0.0,0.0,0.0,0.0,0.0,0.0,0.0,0.0,0.0,0.0,0.0,0.0,0.0,0.0,0.0,0.0,0.0,0.0,0.0,0.0,0.0,0.0,0.0369,0.0457,0.0548,0.0676,0.0812,0.0945,0.108,0.1271,0.148,0.1685,0.0,0.0,0.0,0.0,0.0,0.0,0.0,0.0,0.0,0.0,0.0,0.0,0.0,0.0,0.0,0.0,0.0,0.0,0.0,0.0,0.0,0.0,0.0,0.0,0.0,0.0,0.0,0.0,0.0,0.0,0.0,0.0,0.0,0.0,0.0,0.0,0.0,0.0,0.0,0.0,0.0,0.0,0.0,0.0,0.0,0.0,0.0,0.0,0.0,0.0,0.0,0.0,0.0,0.0,0.0,0.0,0.0,0.0,0.0,0.0,-0.0211,-0.0121,0.0,0.0,0.0,0.0,0.0,0.0,0.0,0.0,0.0,0.0,0.0,0.0,0.0,0.0,0.0,0.0,0.0,0.0,0.0,0.0,0.0,0.0,0.0,0.0,0.0,0.0,0.0,0.0,0.0,0.0,0.0,0.0,0.0,0.0,0.0,0.0,0.0,0.0,0.0,0.0,0.031,0.0424,0.0531,0.0615,0.074,0.0879,0.1011,0.121,0.1432,0.1687,0.121,0.0,0.0,0.0,0.0,0.0,0.0,0.0,0.0,0.0,0.0,0.0,0.0,0.0,0.0,0.0,0.0,0.0,0.0,0.0,0.0,0.0,0.0,0.0,0.0,0.0,0.0,0.0,0.0,0.0,0.0,0.0,0.0,0.0,0.0,0.0,0.0,0.0,0.0,0.0,0.0,0.0,0.0,0.0,0.0,0.0,0.0,0.0,0.0,0.0,0.0,0.0,0.0,0.0,0.0,0.0,0.0,0.0,0.0,0.0,-0.0011,0.0167,0.0,0.0,0.0,0.0,0.0,0.0,0.0,0.0,0.0,0.0,0.0,0.0,0.0,0.0,0.0,0.0,0.0,0.0,0.0,0.0,0.0,0.0,0.0,0.0,0.0,0.0,0.0,0.0,0.0,0.0,0.0,0.0,0.0,0.0,0.0,0.0,0.0,0.0,0.0,0.0,0.0337,0.0407,0.049,0.0587,0.0723,0.084,0.0942,0.1134,0.134,0.1543,0.1415,0.0,0.0,0.0,0.0,0.0,0.0,0.0,0.0,0.0,0.0,0.0,0.0,0.0,0.0,0.0,0.0,0.0,0.0,0.0,0.0,0.0,0.0,0.0,0.0,0.0,0.0,0.0,0.0,0.0,0.0,0.0,0.0,0.0,0.0,0.0,0.0,0.0,0.0,0.0,0.0,0.0,0.0,0.0,0.0,0.0,0.0,0.0,0.0,0.0,0.0,0.0,0.0,0.0,-0.113,-0.1099,-0.1014,-0.0947,-0.0778,-0.0497,-0.0055,0.016,0.0206,0.035,0.0,0.0,0.0,0.0,0.0,0.0,0.0,0.0,0.0,0.0,0.0,0.0,0.0,0.0,0.0,0.0,0.0,0.0,0.0,0.0,0.0,0.0,-0.1054,-0.0495,-0.0778,-0.1353,-0.2005,0.0,0.0,0.0,0.0,0.0,0.0,0.0,0.0,0.0,0.0,0.0,0.0388,0.0401,0.0446,0.057,0.0701,0.0807,0.0877,0.1067,0.1243,0.1389,0.1629,0.1328,0.0,0.0,0.0,0.0,0.0,0.0,0.0,0.0,0.0,0.0,0.0,0.0,0.0,0.0,0.0,0.0,0.0,0.0,0.0,0.0,0.0,0.0,0.0,0.0,0.0,0.0,0.0,0.0,0.0,0.0,0.0,0.0,-0.1558,0.0539,0.0,0.0,0.0,0.0,0.0,0.0,0.0,0.0,0.0,0.0,0.0,0.0,0.0,-0.1726,-0.1393,-0.1301,-0.1258,-0.1268,-0.1268,-0.1206,-0.1082,-0.1024,-0.0842,-0.0566,-0.0269,0.0,0.0208,0.0344,0.0,0.0,0.0,0.0,0.0,0.0,0.0,0.0,0.0,0.0,0.0,0.0,0.0,0.0,0.0,0.0,0.0,0.0,0.0,0.0,0.0,0.0,-0.0334,-0.025,-0.0251,-0.0287,-0.0331,-0.1504,-0.2516,-0.2395,-0.2548,-0.2084,0.0,0.0,0.0,0.0,0.0,0.0,0.0398,0.0401,0.0429,0.0502,0.0632,0.074,0.0807,0.0997,0.1195,0.1389,0.1545,0.1609,0.1566,0.0556,0.0,0.0,0.0,0.0,0.0,0.0,0.0,0.0,0.0,0.0,0.0,0.0,0.0,0.0,0.0,0.0,0.0,0.0,0.0,0.0,0.0,0.0,0.0,0.0,0.0,0.0,0.0,0.0,0.0,-0.1979,-0.1192,-0.1109,-0.1547,-0.1519,0.0,0.0,0.0,0.0,0.0,0.0,0.0,0.0,0.0,-0.1603,-0.1628,-0.1576,-0.1418,-0.145,-0.1487,-0.1521,-0.1604,-0.156,-0.1442,-0.1331,-0.1144,-0.0856,-0.056,-0.033,-0.0171,0.0155,0.0281,0.0295,0.0,0.0,0.0,0.0,0.0354,0.0356,0.0394,0.0399,0.0385,0.0385,0.0,0.0,0.0,0.0,0.0,0.0,0.0,-0.0034,-0.0126,-0.0177,-0.0193,-0.015,-0.0089,-0.0021,0.004,-0.0491,-0.1074,-0.1377,-0.1455,-0.1293,-0.0741,-0.0081,0.0,0.0,0.0,0.0445,0.0402,0.0401,0.0413,0.044,0.0531,0.0632,0.0734,0.0927,0.1113,0.1276,0.1454,0.1587,0.1683,0.1216,0.0653,0.0,0.0,0.0,0.0,0.0,0.0,0.0,0.0,0.0,0.0,0.0,0.0,0.0,0.0,0.0,0.0,0.0,0.0,0.0,0.0,0.0,0.0,0.0,0.0,0.0,0.0,0.0,0.0,-0.1581,-0.1114,-0.2274,-0.213,-0.1784,0.0,0.0,0.0,0.0,0.0,0.0,-0.0991,-0.1148,-0.1239,-0.1256,-0.1294,-0.1376,-0.15,-0.1543,-0.1604,-0.1649,-0.1752,-0.1744,-0.1628,-0.1507,-0.1309,-0.1043,-0.0757,-0.0596,-0.0526,-0.0121,0.0064,0.0076,0.0166,0.0225,0.0296,0.0406,0.0454,0.0455,0.0447,0.0401,0.031,0.0239,0.008,-0.0074,-0.0084,0.0,0.0,0.0,0.0,-0.0221,-0.0208,-0.023,-0.0222,-0.0118,-0.0013,0.0102,0.0181,0.027,0.0131,-0.0558,-0.0344,-0.0222,-0.0769,-0.0107,0.0,0.0496,0.05,0.0479,0.0408,0.0398,0.0398,0.0397,0.0457,0.0554,0.0687,0.087,0.1031,0.1166,0.1346,0.1486,0.1572,0.1658,0.1307,0.0479,0.0,0.0,0.0,0.0,0.0,0.0,0.0,0.0,0.0,0.0,0.0,0.0,0.0,0.0,0.0,0.0,0.0,0.0,0.0,0.0,0.0,0.0,0.0,0.0,0.0,0.0,0.0,0.0,0.0,-0.1142,-0.163,0.0,0.0,0.0,0.0,-0.1202,-0.1167,-0.1208,-0.1278,-0.1292,-0.1329,-0.1392,-0.1401,-0.1422,-0.1489,-0.1494,-0.1498,-0.1503,-0.1525,-0.149,-0.1417,-0.1334,-0.1165,-0.0906,-0.0762,-0.0696,-0.0668,-0.0468,-0.0339,-0.027,-0.0126,0.0035,0.0235,0.0495,0.0595,0.0599,0.059,0.0506,0.0359,0.009,-0.025,-0.0571,-0.0565,-0.0567,0.0,0.0,-0.0568,-0.0556,-0.0501,-0.0432,-0.0335,-0.0153,0.0097,0.0319,0.0457,0.058,0.0565,0.0212,0.0263,0.036,0.0322,0.0,0.0505,0.0502,0.0502,0.0472,0.0409,0.0401,0.0401,0.0402,0.0457,0.0554,0.0687,0.0823,0.0962,0.1097,0.1236,0.1373,0.1502,0.1631,0.17,0.1708,0.0583,0.0,0.0,0.0,0.0,0.0,0.0,0.0,0.0,0.0,0.0,0.0,0.0,0.0,0.0,0.0,0.0,0.0,0.0,0.0,0.0,0.0,0.0,0.0,0.0,0.0,0.0,0.0,0.0,-0.1141,-0.1377,0.0,-0.1213,-0.141,-0.1469,-0.1284,-0.1384,-0.1465,-0.1497,-0.1608,-0.1665,-0.1599,-0.1506,-0.1438,-0.1369,-0.1372,-0.1372,-0.1372,-0.1413,-0.1392,-0.1329,-0.1217,-0.1064,-0.0903,-0.0764,-0.0741,-0.0837,-0.0836,-0.0677,-0.0402,-0.023,-0.0038,0.0168,0.0494,0.0651,0.0748,0.082,0.068,0.0383,-0.0096,-0.0448,-0.0668,-0.0656,-0.0636,-0.0601,-0.0601,-0.057,-0.0537,-0.0505,-0.0458,-0.0375,-0.0255,0.0015,0.0279,0.0409,0.0603,0.0736,0.0604,0.059,0.0596,0.0598,0.0614,0.0612,0.0574,0.0569,0.0539,0.0474,0.0466,0.0497,0.0581,0.0694,0.0776,0.0827,0.1073,0.1187,0.1108,0.1306,0.1429,0.1437,0.1561,0.1689,0.1792,0.0995,0.0391,0.0,0.0,0.0,0.0,0.0,0.0,0.0,0.0,0.0,0.0,0.0,0.0,0.0,0.0,0.0,0.0,0.0,0.0,0.0,0.0,0.0,0.0,0.0,0.0,0.0,-0.1178,-0.1095,-0.1161,-0.1248,-0.1303,-0.1303,-0.1355,-0.1403,-0.1403,-0.1582,-0.1683,-0.163,-0.1758,-0.1777,-0.1644,-0.1504,-0.1394,-0.1292,-0.1247,-0.1223,-0.1223,-0.1281,-0.1277,-0.1231,-0.1098,-0.0988,-0.09,-0.0764,-0.0787,-0.09,-0.0955,-0.0834,-0.0618,-0.0432,-0.0226,0.0041,0.0433,0.0659,0.0781,0.087,0.0644,0.0241,-0.0237,-0.0609,-0.0865,-0.0865,-0.0845,-0.0805,-0.0805,-0.0767,-0.0726,-0.0677,-0.0623,-0.0528,-0.0402,-0.0127,0.0141,0.0271,0.0528,0.0742,0.0764,0.0752,0.0731,0.0701,0.0698,0.0684,0.0645,0.0629,0.0608,0.054,0.0534,0.0579,0.0684,0.0821,0.0897,0.0901,0.1166,0.1297,0.121,0.1405,0.1557,0.1601,0.1643,0.1718,0.183,0.1017,0.0398,0.0,0.0,0.0,0.0,0.0,0.0,0.0,0.0,0.0,0.0,0.0,0.0,0.0,0.0,0.0,0.0,0.0,0.0,0.0,0.0,0.0,0.0,0.0,0.0,-0.058,-0.0835,-0.1036,-0.1092,-0.1231,-0.1315,-0.1315,-0.1499,-0.1617,-0.1617,-0.1784,-0.1845,-0.1708,-0.171,-0.1647,-0.1492,-0.1367,-0.1288,-0.1298,-0.1164,-0.1098,-0.1099,-0.1099,-0.11,-0.1078,-0.0946,-0.0903,-0.088,-0.0768,-0.0768,-0.0883,-0.0728,-0.0746,-0.0857,-0.0741,-0.0494,-0.0157,0.0315,0.0584,0.0715,0.0707,0.0401,-0.0042,-0.032,-0.077,-0.1205,-0.1205,-0.1184,-0.1183,-0.1183,-0.1182,-0.1148,-0.1019,-0.0932,-0.0812,-0.0564,-0.0286,-0.0067,0.0084,0.037,0.0617,0.0693,0.0765,0.0779,0.071,0.0701,0.07,0.0698,0.0698,0.0,0.0609,0.0603,0.0628,0.0696,0.0825,0.0904,0.0907,0.1101,0.1273,0.1394,0.1534,0.1729,0.1985,0.1862,0.1827,0.1902,0.0671,0.0044,0.0057,0.0,0.0,0.0,0.0,0.0,0.0,0.0,0.0,0.0,0.0,0.0,0.0,0.0,0.0,0.0,0.0,0.0,0.0,0.0,0.0,0.0,-0.0238,-0.0446,-0.0578,-0.091,-0.1176,-0.1242,-0.1445,-0.1584,-0.1584,-0.1719,-0.1826,-0.1826,-0.1913,-0.1919,-0.1773,-0.1764,-0.1675,-0.1431,-0.1254,-0.1107,-0.101,-0.0876,-0.0843,-0.0893,-0.0893,-0.0881,-0.088,-0.0856,-0.0831,-0.0831,-0.0783,-0.0734,-0.0661,-0.0371,-0.0296,-0.0341,-0.0497,-0.0461,-0.0292,0.0247,0.0718,0.1097,0.0906,0.0528,0.0088,-0.0283,-0.0737,-0.1125,-0.1125,-0.1017,-0.091,-0.091,-0.0808,-0.0685,-0.0638,-0.0597,-0.0513,-0.0452,-0.0214,0.0035,0.0271,0.0498,0.0714,0.0885,0.0929,0.0903,0.0787,0.0768,0.0755,0.0704,0.0698,0.0692,0.0676,0.0673,0.072,0.0834,0.0969,0.1064,0.1109,0.1479,0.164,0.1479,0.1733,0.1897,0.1925,0.1755,0.1753,0.1966,0.115,0.0942,0.0,0.0,0.0,0.0,0.0,0.0,0.0,0.0,0.0,0.0,0.0,0.0,0.0,0.0,0.0,0.0,0.0,0.0,0.0,0.0,0.0,0.0,-0.0273,-0.048,-0.0585,-0.0892,-0.1151,-0.1245,-0.1437,-0.1577,-0.161,-0.1765,-0.1857,-0.1857,-0.2002,-0.201,-0.1814,-0.1791,-0.1681,-0.1411,-0.1208,-0.1053,-0.0988,-0.0823,-0.077,-0.0789,-0.0801,-0.0791,-0.0806,-0.0806,-0.0806,-0.0806,-0.0806,-0.0731,-0.0581,-0.0205,-0.0051,-0.0025,0.0,0.0,0.0,0.0,0.0673,0.1097,0.0896,0.0582,0.0224,-0.0112,-0.0561,-0.092,-0.0875,-0.0706,-0.0541,-0.0476,-0.0297,-0.0124,-0.0122,-0.0101,-0.006,-0.0057,0.0056,0.0217,0.0403,0.0581,0.0749,0.0885,0.0991,0.0,0.0898,0.0838,0.0773,0.0706,0.0698,0.0709,0.0743,0.0743,0.0796,0.0927,0.1061,0.1166,0.1232,0.1567,0.0,0.0,0.0,0.1905,0.1774,0.1743,0.0,0.0,0.0,0.0,0.0,0.2598,0.0,0.0,0.1759,0.2178,0.0,0.0,0.0,0.0,0.0,0.0,0.0,0.0,0.0,0.0,0.0,0.0,0.0,0.0,0.0,0.0,-0.0288,-0.0492,-0.0585,-0.0795,-0.101,-0.1165,-0.1302,-0.1426,-0.1493,-0.1689,-0.1799,-0.182,-0.2063,-0.2087,-0.1839,-0.1817,0.0,0.0,0.0,-0.11,-0.1082,-0.0891,-0.0792,-0.0823,-0.08,-0.0814,-0.0817,-0.0817,-0.0817,-0.0817,-0.0817,-0.0715,-0.0537,-0.0132,0.0105,0.0202,0.0,-0.0072,-0.0072,0.0162,0.0523,0.0908,0.082,0.0,0.0,0.0136,-0.0272,-0.0633,-0.0495,-0.0315,-0.0135,0.0022,0.0247,0.0444,0.0428,0.0424,0.0441,0.0441,0.0419,0.044,0.0529,0.063,0.0739,0.0824,0.0976,0.1074,0.1011,0.0891,0.0783,0.0727,0.0702,0.0721,0.0788,0.0809,0.0865,0.0983,0.1116,0.0,0.129,0.1492,0.1626,0.1639,0.1852,0.1875,0.168,0.1841,0.2045,0.2263,0.2463,0.2677,0.2915,0.3529,0.3576,0.3067,0.1801,0.1753,0.0,0.0,0.0,0.0,0.0,0.0,0.0,0.0,0.0,0.0,0.0,0.0,0.0,0.0,0.0,0.0211,-0.0044,-0.0323,-0.0492,-0.0618,-0.0763,-0.1005,-0.1204,-0.1361,-0.1485,-0.1683,-0.1838,-0.1951,-0.2099,-0.2131,-0.1973,-0.1861,-0.1681,-0.1411,-0.1208,-0.1046,-0.0941,-0.0856,-0.0838,-0.0888,-0.0893,0.0,-0.088,-0.088,-0.088,-0.088,-0.088,-0.0715,-0.0413,0.0111,0.0598,0.0919,0.0303,0.0025,0.0025,0.0396,0.0715,0.1011,0.1209,0.0963,0.0539,0.038,-0.0024,-0.0423,-0.0159,0.0,0.0,0.0358,0.0515,0.065,0.0645,0.0644,0.0637,0.0652,0.0602,0.0613,0.0791,0.0804,0.0841,0.1009,0.1076,0.1074,0.1011,0.0941,0.0857,0.0785,0.0738,0.0721,0.0788,0.0852,0.0916,0.0994,0.1072,0.1165,0.1289,0.1589,0.1812,0.1913,0.2216,0.2297,0.2096,0.2172,0.217,0.2057,0.2255,0.2565,0.2981,0.3271,0.3524,0.3705,0.2902,0.2419,0.0,0.0,0.0,0.0,0.0,0.0,0.0,0.0,0.0,0.0,0.0,0.0605,0.0643,0.0,0.0395,0.0407,0.0201,-0.0016,-0.0177,-0.0312,-0.0534,-0.0907,-0.1068,-0.1222,-0.1383,-0.1526,-0.1658,-0.1794,-0.1928,-0.1951,-0.1817,-0.176,-0.1664,-0.1455,-0.1248,-0.1129,-0.1054,-0.0925,-0.0875,-0.0906,-0.0895,-0.091,-0.0898,-0.0898,-0.0898,-0.0898,-0.0842,-0.0561,-0.014,0.0673,0.1166,0.1365,0.1071,0.0676,0.0277,0.0554,0.0832,0.1059,0.121,0.1084,0.0829,0.069,0.0363,0.0048,0.0233,0.041,0.0583,0.0761,0.0919,0.1055,0.1055,0.1055,0.1049,0.1048,0.0993,0.0976,0.1086,0.1016,0.0976,0.1076,0.1093,0.1083,0.1053,0.0996,0.0924,0.0857,0.0792,0.0787,0.0886,0.0962,0.1027,0.1094,0.1163,0.1252,0.1388,0.1642,0.1889,0.2084,0.2157,0.2154,0.2054,0.2116,0.2181,0.225,0.2415,0.2728,0.3201,0.3369,0.3507,0.359,0.3321,0.3053,0.0,0.0,0.0,0.0,0.0,0.0,0.0,0.0,0.0924,0.1001,0.0866,0.0748,0.0756,0.0677,0.0603,0.0563,0.044,0.0303,0.0168,-0.0018,-0.0282,-0.0684,-0.0861,-0.1007,-0.1205,-0.1299,-0.1389,-0.1524,-0.1658,-0.1687,-0.1587,-0.1639,-0.1602,-0.1469,-0.1291,-0.1189,-0.1173,-0.0997,-0.0908,-0.0888,-0.0913,-0.0898,-0.0898,-0.0898,-0.0898,-0.0842,-0.0617,-0.0252,0.028,0.1206,0.1656,0.174,0.1875,0.1515,0.0927,0.0927,0.1056,0.1236,0.1288,0.1263,0.1184,0.1073,0.0795,0.0505,0.0667,0.081,0.0985,0.1141,0.1321,0.1456,0.1478,0.1478,0.1478,0.1478,0.1406,0.1356,0.1356,0.1235,0.1145,0.1145,0.1145,0.1145,0.1145,0.1091,0.1024,0.0931,0.087,0.088,0.1007,0.1094,0.1163,0.1219,0.1274,0.1399,0.1577,0.1758,0.197,0.2245,0.2111,0.202,0.202,0.2086,0.225,0.2536,0.2672,0.295,0.3362,0.3503,0.3495,0.3355,0.3496,0.3512,0.1653,0.1604,0.1604,0.1604,0.158,0.1559,0.0,0.0,0.1218,0.1108,0.0982,0.0894,0.0955,0.0808,0.0705,0.076,0.0603,0.0454,0.037,0.0202,0.002,-0.0078,-0.0471,-0.0793,-0.094,-0.1054,-0.1186,-0.1321,-0.1411,-0.1458,-0.1511,-0.152,-0.1452,-0.1327,-0.1233,-0.1153,-0.1033,-0.093,-0.0893,-0.0892,-0.0896,-0.0898,-0.0898,-0.0898,-0.0842,-0.0701,-0.014,0.0421,0.101,0.1431,0.1822,0.2156,0.2352,0.2426,0.2382,0.1882,0.1687,0.1742,0.1992,0.1857,0.1546,0.1526,0.1162,0.0797,0.1058,0.111,0.1141,0.1456,0.1569,0.1614,0.1725,0.1748,0.1748,0.1748,0.1656,0.1566,0.1566,0.1414,0.1279,0.1279,0.1279,0.1279,0.1279,0.1267,0.1205,0.1021,0.0977,0.1007,0.1082,0.1196,0.1274,0.1285,0.1355,0.1544,0.1909,0.2015,0.2177,0.2446,0.2449,0.2435,0.2435,0.2503,0.2582,0.2672,0.281,0.2987,0.3229,0.3362,0.3473,0.3574,0.3702,0.3542,0.1917,0.1897,0.1897,0.1897,0.1897,0.1895,0.1907,0.1655,0.1425,0.1444,0.1181,0.0981,0.1045,0.0991,0.0948,0.0972,0.0934,0.0865,0.0758,0.0617,0.0491,0.0409,0.0128,-0.022,-0.0628,-0.0718,-0.0807,-0.0943,-0.0985,-0.1006,-0.1022,-0.1069,-0.1103,-0.1119,-0.1063,-0.1028,-0.1071,-0.0879,-0.0774,-0.0785,-0.0673,-0.0617,-0.0617,-0.0617,-0.0449,-0.014,0.0533,0.1038,0.1431,0.1934,0.227,0.2493,0.2663,0.2802,0.2882,0.2464,0.2324,0.2324,0.2352,0.2186,0.1928,0.1847,0.1585,0.1283,0.1411,0.1368,0.1321,0.1547,0.1658,0.1748,0.1884,0.1951,0.1973,0.1973,0.1867,0.1783,0.1783,0.1611,0.1477,0.1477,0.1477,0.1477,0.1477,0.1482,0.1413,0.1252,0.1161,0.1127,0.1152,0.1241,0.1332,0.141,0.1544,0.1729,0.1975,0.214,0.2294,0.2495,0.2538,0.256,0.256,0.2621,0.2697,0.2756,0.2886,0.3042,0.3197,0.3292,0.3391,0.3493,0.3619,0.3619,0.21,0.2121,0.2149,0.2126,0.215,0.218,0.2179,0.1852,0.1574,0.1613,0.1292,0.1021,0.1082,0.1079,0.1074,0.109,0.1163,0.1168,0.1077,0.0934,0.0843,0.0779,0.0612,0.0314,-0.0135,-0.0225,-0.0292,-0.0381,-0.0395,-0.0406,-0.0387,-0.0437,-0.0508,-0.0675,-0.0692,-0.0757,-0.0842,-0.0673,-0.0533,-0.0505,-0.028,-0.0168,-0.0168,-0.0113,0.0142,0.0512,0.1148,0.1576,0.182,0.2359,0.2685,0.2828,0.297,0.3107,0.3216,0.3023,0.2886,0.28,0.2661,0.2493,0.2324,0.2183,0.1953,0.1717,0.1717,0.1625,0.1547,0.1681,0.1817,0.1928,0.2062,0.2152,0.2219,0.2219,0.2099,0.198,0.198,0.1828,0.1676,0.1676,0.1676,0.1676,0.1676,0.1676,0.1639,0.1507,0.1399,0.1307,0.1235,0.1296,0.141,0.1544,0.1718,0.1894,0.2037,0.2202,0.2355,0.2495,0.2565,0.2609,0.2626,0.2697,0.2767,0.2853,0.2971,0.3079,0.3197,0.3249,0.3302,0.3351,0.3461,0.3614,0.21,0.2196,0.2281,0.2219,0.2296,0.2341,0.2142,0.1885,0.1635,0.1447,0.1186,0.1021,0.1082,0.1045,0.1024,0.1083,0.1163,0.1204,0.1186,0.1073,0.099,0.099,0.081,0.0674,0.0674,0.0493,0.038,0.0358,0.0372,0.0363,0.0377,0.0417,0.0378,0.0168,-0.0084,-0.0224,-0.0224,-0.0224,-0.014,-0.0028,0.0252,0.0364,0.0393,0.0638,0.0912,0.1179,0.1608,0.1963,0.2291,0.2646,0.2912,0.3102,0.3302,0.3471,0.3583,0.3583,0.3357,0.3077,0.2942,0.2805,0.2663,0.2521,0.2248,0.1995,0.1995,0.1889,0.1817,0.1951,0.2087,0.2199,0.2281,0.2393,0.2482,0.2482,0.2326,0.2197,0.2197,0.203,0.1895,0.1895,0.1895,0.1895,0.1895,0.1895,0.1842,0.1715,0.1688,0.1585,0.1326,0.141,0.1544,0.1681,0.1814,0.1978,0.2172,0.2263,0.2355,0.2495,0.2565,0.2626,0.2691,0.2756,0.2853,0.2987,0.3068,0.3127,0.3197,0.3208,0.3208,0.3208,0.3278,0.3481,0.2243,0.2206,0.2157,0.208,0.2072,0.2021,0.1876,0.1732,0.1596,0.143,0.1186,0.0995,0.0975,0.0988,0.1009,0.1029,0.1172,0.1266,0.1266,0.1267,0.1273,0.1273,0.12,0.1179,0.1235,0.0887,0.0676,0.0676,0.0718,0.0722,0.0732,0.0757,0.0693,0.0533,0.0224,0.0112,0.0196,0.0143,0.0261,0.0522,0.077,0.0868,0.0868,0.1269,0.1517,0.164,0.2179,0.2484,0.265,0.2851,0.3084,0.3302,0.3385,0.3471,0.3613,0.3613,0.3527,0.3413,0.3276,0.3107,0.2938,0.2796,0.2538,0.2269,0.2269,0.2152,0.2018,0.2172,0.2306,0.2417,0.2529,0.2662,0.2776,0.2776,0.2636,0.2503,0.2425,0.227,0.2141,0.2046,0.2031,0.2031,0.2031,0.2031,0.2008,0.1907,0.1716,0.1529,0.1443,0.1552,0.1685,0.1814,0.1989,0.2143,0.2252,0.2414,0.2517,0.2565,0.2631,0.2697,0.2767,0.2826,0.2934,0.3068,0.3089,0.3138,0.3197,0.3197,0.3219,0.3268,0.3289,0.3528,0.2388,0.2276,0.2152,0.2055,0.1974,0.1847,0.1669,0.1584,0.1473,0.1299,0.1084,0.093,0.0899,0.0942,0.0975,0.0998,0.1175,0.1298,0.1298,0.136,0.1411,0.1411,0.1411,0.1435,0.1495,0.1253,0.1093,0.1093,0.1159,0.1199,0.1199,0.1212,0.115,0.1038,0.0701,0.0561,0.0645,0.0637,0.0829,0.1228,0.1345,0.1419,0.1419,0.1808,0.2004,0.2099,0.2661,0.2925,0.3024,0.3198,0.335,0.3471,0.3471,0.3527,0.3613,0.3613,0.3613,0.3583,0.3441,0.333,0.3188,0.3019,0.2777,0.2545,0.2545,0.2412,0.2263,0.2348,0.246,0.2595,0.2684,0.2798,0.289,0.289,0.2794,0.2685,0.2585,0.2425,0.2272,0.2194,0.2129,0.21,0.21,0.21,0.209,0.2049,0.1909,0.1801,0.176,0.1805,0.1908,0.2096,0.2184,0.2274,0.2366,0.2517,0.2609,0.2636,0.2697,0.2778,0.2864,0.2934,0.302,0.3138,0.3138,0.3159,0.3197,0.3219,0.335,0.3543,0.3554,0.3848,0.2517,0.2405,0.2261,0.2117,0.1967,0.1786,0.1532,0.1421,0.1303,0.1046,0.0884,0.0822,0.0,0.0,0.0914,0.0987,0.1173,0.1298,0.1298,0.136,0.1411,0.0,0.0,0.0,0.0,0.1558,0.1596,0.1599,0.1679,0.1711,0.1711,0.1766,0.1741,0.16,0.129,0.1123,0.1153,0.1223,0.1503,0.2012,0.2012,0.2012,0.2015,0.2233,0.2424,0.2655,0.3058,0.3288,0.3425,0.361,0.3658,0.3621,0.3616,0.3613,0.3613,0.3613,0.3613,0.3583,0.3444,0.3413,0.3385,0.3188,0.2992,0.2823,0.2823,0.2675,0.2526,0.2526,0.2618,0.2709,0.2709,0.2798,0.289,0.289,0.28,0.2712,0.2706,0.2509,0.2309,0.2299,0.22,0.21,0.21,0.21,0.2112,0.2122,0.2298,0.2363,0.2227,0.2158,0.2222,0.2482,0.2391,0.2366,0.2495,0.256,0.2636,0.2702,0.2767,0.2864,0.2998,0.3068,0.3138,0.3197,0.3197,0.3197,0.3197,0.3268,0.3532,0.3992,0.3995,0.4389,0.276,0.2441,0.2126,0.1984,0.1628,0.1275,0.1156,0.1109,0.1061,0.089,0.0827,0.0796,0.0,0.0837,0.0901,0.0916,0.1145,0.0,0.1298,0.136,0.0,0.1411,0.0,0.1501,0.1561,0.1647,0.1702,0.1748,0.1764,0.1774,0.1774,0.1789,0.1797,0.1741,0.1431,0.1391,0.1684,0.1811,0.1952,0.2141,0.2141,0.2141,0.2173,0.2452,0.2692,0.2928,0.3284,0.3523,0.3682,0.3701,0.3732,0.3731,0.3643,0.3613,0.3613,0.3613,0.3613,0.3585,0.3555,0.3555,0.3527,0.3499,0.3311,0.3096,0.3096,0.2958,0.2798,0.2798,0.2821,0.2845,0.2845,0.2868,0.289,0.289,0.2865,0.2819,0.2726,0.2637,0.2542,0.2346,0.22,0.21,0.21,0.2183,0.2289,0.2384,0.2573,0.2608,0.2378,0.2372,0.2445,0.2556,0.2549,0.2538,0.2576,0.2631,0.2702,0.2767,0.2837,0.2934,0.3068,0.3089,0.3138,0.3197,0.3197,0.3197,0.3197,0.3219,0.347,0.3926,0.3919,0.4352,0.2897,0.2544,0.2189,0.1995,0.1566,0.1149,0.1035,0.0954,0.088,0.0774,0.0755,0.0746,0.0704,0.0782,0.0864,0.0,0.0,0.0,0.129,0.1337,0.136,0.0,0.1465,0.0,0.1584,0.167,0.1732,0.1792,0.1797,0.1797,0.1797,0.182,0.1834,0.1834,0.1686,0.1723,0.1991,0.206,0.2127,0.2188,0.2188,0.2188,0.2221,0.2554,0.2855,0.3092,0.346,0.3734,0.3918,0.3888,0.3853,0.3807,0.3712,0.3657,0.3613,0.3613,0.3613,0.3613,0.3613,0.3613,0.3613,0.3613,0.3455,0.3289,0.321,0.3091,0.2936,0.2906,0.289,0.289,0.289,0.289,0.289,0.289,0.2932,0.2932,0.284,0.2824,0.2754,0.2486,0.2315,0.2231,0.2231,0.2367,0.2517,0.2613,0.2845,0.2994,0.2898,0.2834,0.2847,0.2941,0.2819,0.2747,0.2775,0.2753,0.2789,0.2886,0.2956,0.3094,0.331,0.3322,0.3393,0.3548,0.3554,0.3494,0.3378,0.3407,0.3595,0.3938,0.3943,0.4296,0.2997,0.2689,0.2374,0.2111,0.169,0.1274,0.108,0.0908,0.0764,0.0698,0.068,0.0677,0.0685,0.0743,0.0812,0.0873,0.0,0.1149,0.1257,0.1297,0.132,0.1371,0.1466,0.1533,0.1585,0.1677,0.174,0.1793,0.1797,0.1797,0.1797,0.1843,0.1903,0.1911,0.1979,0.2041,0.2095,0.2103,0.2134,0.2188,0.2188,0.2188,0.2221,0.2554,0.2889,0.3226,0.3625,0.3939,0.414,0.4092,0.3982,0.3805,0.3788,0.3712,0.3613,0.3613,0.3613,0.3613,0.3613,0.3613,0.3613,0.3613,0.3501,0.3381,0.3275,0.3137,0.3026,0.2967,0.2926,0.2915,0.2915,0.2904,0.2912,0.2912,0.2996,0.3056,0.3078,0.3071,0.2975,0.276,0.2584,0.2474,0.2474,0.2626,0.2782,0.2849,0.313,0.3377,0.3516,0.3366,0.3301,0.3416,0.3152,0.2991,0.3027,0.2935,0.2908,0.3009,0.3068,0.3251,0.3591,0.3603,0.3725,0.3999,0.3962,0.3828,0.3603,0.362,0.3751,0.3968,0.3972,0.4217,0.3167,0.2911,0.2596,0.2391,0.189,0.1419,0.1279,0.0978,0.0,0.0,0.0577,0.0549,0.0606,0.0672,0.0742,0.0811,0.098,0.1101,0.1124,0.1224,0.1304,0.0,0.1478,0.1579,0.1589,0.1715,0.1786,0.1797,0.1797,0.1797,0.1797,0.1807,0.1832,0.1909,0.202,0.2085,0.2095,0.2146,0.2177,0.2188,0.2188,0.2188,0.2221,0.2554,0.2889,0.3226,0.3625,0.3982,0.4262,0.4159,0.4003,0.3862,0.3821,0.3712,0.3613,0.3613,0.3613,0.3613,0.3613,0.3613,0.3613,0.3613,0.3501,0.3398,0.3376,0.3284,0.3158,0.3139,0.3067,0.2994,0.2994,0.2944,0.2912,0.297,0.317,0.3369,0.3476,0.3416,0.3326,0.3272,0.3022,0.2818,0.2818,0.294,0.3076,0.3196,0.3356,0.3516,0.3651,0.3584,0.3545,0.356,0.346,0.333,0.3179,0.3197,0.3174,0.309,0.3089,0.3251,0.3591,0.3603,0.3725,0.3999,0.3779,0.3646,0.3603,0.3396,0.3481,0.3836,0.3829,0.4089,0.3175,0.2973,0.2738,0.2431,0.1972,0.1538,0.1308,0.0,0.0,0.0,0.0544,0.0514,0.054,0.0603,0.0,0.0739,0.0886,0.102,0.1085,0.1223,0.1309,0.1297,0.1481,0.1591,0.1591,0.1726,0.1797,0.1797,0.1797,0.1797,0.1797,0.1826,0.1912,0.2004,0.2064,0.2111,0.2143,0.2172,0.2188,0.2188,0.2188,0.2171,0.2172,0.25,0.2805,0.3119,0.3526,0.3878,0.4205,0.4211,0.4073,0.3897,0.3871,0.374,0.3613,0.3613,0.3613,0.3613,0.3613,0.3613,0.3613,0.3613,0.3545,0.3485,0.342,0.336,0.33,0.3212,0.3112,0.3002,0.3002,0.2957,0.2909,0.2993,0.3278,0.3634,0.3895,0.3746,0.3552,0.3552,0.331,0.3105,0.3105,0.3274,0.3422,0.3459,0.3635,0.3777,0.3798,0.3839,0.3852,0.3821,0.3753,0.3696,0.3672,0.3629,0.3592,0.3573,0.3567,0.3699,0.4003,0.4009,0.4069,0.4211,0.4076,0.3883,0.3603,0.3475,0.3437,0.3492,0.3492,0.3607,0.3159,0.3039,0.2863,0.2486,0.2076,0.168,0.1317,0.0901,0.0,0.0556,0.0517,0.0479,0.0476,0.0533,0.06,0.0,0.0797,0.0944,0.1041,0.1203,0.1295,0.0,0.1473,0.0,0.1591,0.1726,0.1797,0.1797,0.1797,0.1797,0.1797,0.185,0.1961,0.2071,0.2088,0.2125,0.2186,0.2188,0.2188,0.2188,0.2221,0.2229,0.2179,0.2489,0.28,0.308,0.3421,0.3778,0.4092,0.4194,0.4078,0.39,0.3876,0.3767,0.3613,0.3613,0.3613,0.3613,0.3613,0.3613,0.3613,0.3613,0.3613,0.3594,0.3471,0.3441,0.342,0.3324,0.3169,0.3037,0.3037,0.2976,0.2954,0.3148,0.352,0.3943,0.4364,0.4169,0.3901,0.3863,0.3663,0.349,0.3451,0.3623,0.3754,0.37,0.3863,0.3977,0.3923,0.4058,0.4129,0.4107,0.4039,0.4042,0.412,0.4028,0.397,0.3998,0.3992,0.412,0.439,0.4403,0.4403,0.4403,0.4342,0.4076,0.3603,0.3542,0.3409,0.3219,0.3219,0.3219,0.3192,0.3175,0.3086,0.2758,0.2315,0.1863,0.1477,0.0,0.049,0.0431,0.0416,0.0409,0.0411,0.0466,0.0531,0.0599,0.0,0.0899,0.091,0.1146,0.1301,0.1305,0.0,0.0,0.1591,0.1726,0.1797,0.1797,0.1797,0.1797,0.1797,0.185,0.1941,0.2009,0.2066,0.2125,0.2186,0.2188,0.2188,0.2188,0.2322,0.2388,0.2379,0.2673,0.2957,0.3266,0.3377,0.3674,0.4078,0.3978,0.3924,0.3892,0.3843,0.3723,0.3613,0.3613,0.3613,0.3613,0.3613,0.3613,0.3613,0.3613,0.3613,0.361,0.3597,0.3594,0.3591,0.358,0.3381,0.3177,0.3177,0.3036,0.3046,0.366,0.4034,0.4364,0.4832,0.4759,0.4563,0.438,0.4213,0.4081,0.3963,0.3961,0.3977,0.3961,0.3993,0.3993,0.3993,0.4156,0.4334,0.4442,0.4403,0.4307,0.4196,0.4185,0.4131,0.401,0.3992,0.412,0.439,0.4403,0.4403,0.4403,0.4162,0.3889,0.3603,0.336,0.3254,0.3289,0.3289,0.3294,0.3163,0.3192,0.3107,0.269,0.2321,0.1919,0.1394,0.0933,0.0587,0.0482,0.043,0.0398,0.04,0.0458,0.0512,0.0535,0.0743,0.0895,0.0895,0.1139,0.1298,0.1298,0.1437,0.155,0.1587,0.1692,0.1758,0.1794,0.1797,0.1797,0.1797,0.1817,0.1857,0.1945,0.2008,0.207,0.2131,0.217,0.2188,0.2188,0.2322,0.2436,0.2525,0.2849,0.3095,0.3294,0.3498,0.3707,0.3931,0.3895,0.3862,0.3849,0.3802,0.3712,0.3613,0.3613,0.3613,0.3613,0.3613,0.3613,0.361,0.3691,0.3827,0.3907,0.3666,0.3663,0.3674,0.352,0.3404,0.3304,0.3226,0.3285,0.3505,0.4012,0.4386,0.4692,0.5046,0.5004,0.4803,0.451,0.4406,0.4343,0.4209,0.4183,0.4183,0.4183,0.4183,0.4183,0.4183,0.4285,0.4415,0.4543,0.4543,0.4535,0.4561,0.4571,0.4538,0.4481,0.4484,0.4539,0.4633,0.4639,0.456,0.4409,0.4294,0.4113,0.3834,0.3774,0.3823,0.3957,0.4,0.4066,0.3074,0.3151,0.3091,0.2648,0.2342,0.1999,0.1368,0.0984,0.0708,0.0533,0.0447,0.0402,0.0398,0.0454,0.051,0.0528,0.0724,0.0875,0.0892,0.109,0.1256,0.1294,0.1401,0.1498,0.1557,0.1659,0.1732,0.1792,0.1797,0.1797,0.1797,0.1797,0.1823,0.1908,0.1954,0.2015,0.2095,0.2172,0.2236,0.2255,0.249,0.2664,0.2774,0.3013,0.323,0.3428,0.3557,0.3682,0.3786,0.3811,0.383,0.3868,0.3802,0.3767,0.3722,0.3722,0.3722,0.3722,0.3722,0.3722,0.3749,0.3938,0.4156,0.4291,0.4049,0.3938,0.3833,0.3637,0.3544,0.348,0.3415,0.3646,0.3987,0.4364,0.4666,0.4932,0.5171,0.5159,0.4999,0.4714,0.4631,0.4582,0.4499,0.4416,0.4366,0.4366,0.4366,0.4366,0.4366,0.4415,0.4511,0.464,0.4656,0.4704,0.4796,0.4796,0.4806,0.4822,0.4838,0.4838,0.4854,0.4854,0.4731,0.4468,0.4455,0.4328,0.4058,0.4171,0.4303,0.4468,0.4572,0.4683,0.2906,0.3054,0.3107,0.2694,0.2448,0.212,0.1448,0.1093,0.0819,0.0556,0.0446,0.0398,0.0401,0.0458,0.0524,0.059,0.0716,0.0826,0.0887,0.1017,0.1159,0.0,0.1362,0.1436,0.1495,0.1609,0.1732,0.1792,0.1797,0.1797,0.1797,0.1797,0.1823,0.1908,0.1911,0.197,0.2094,0.2225,0.2324,0.2391,0.279,0.3058,0.3186,0.3198,0.3388,0.3684,0.3488,0.3563,0.3804,0.3662,0.3769,0.3978,0.3848,0.3882,0.3993,0.3993,0.3993,0.3993,0.3993,0.3993,0.4049,0.438,0.4574,0.4715,0.4846,0.452,0.4089,0.4006,0.3848,0.3735,0.3858,0.41,0.4381,0.4714,0.4905,0.5053,0.5263,0.5306,0.5236,0.5025,0.4939,0.4896,0.4899,0.4671,0.449,0.449,0.449,0.449,0.449,0.4559,0.465,0.4774,0.4796,0.4796,0.4796,0.4796,0.4822,0.489,0.4899,0.4922,0.4992,0.4992,0.4881,0.4602,0.4595,0.4464,0.4198,0.4395,0.4533,0.4606,0.4801,0.4964,0.2725,0.2816,0.279,0.2468,0.231,0.2074,0.1443,0.1162,0.0938,0.0572,0.0446,0.0399,0.0402,0.0458,0.0524,0.0591,0.0751,0.0,0.0892,0.1089,0.0,0.1293,0.1436,0.1541,0.156,0.1698,0.1777,0.1796,0.1797,0.1797,0.1797,0.1797,0.1805,0.1823,0.189,0.1929,0.1969,0.2135,0.2295,0.2411,0.2756,0.3071,0.3357,0.348,0.3623,0.3779,0.3703,0.3675,0.3662,0.3705,0.3903,0.416,0.4231,0.4405,0.4625,0.4625,0.4625,0.4625,0.4625,0.4625,0.4653,0.4849,0.5097,0.5321,0.5371,0.4896,0.4303,0.402,0.4026,0.4122,0.4226,0.4513,0.4836,0.5096,0.5248,0.5383,0.5545,0.5572,0.5498,0.5249,0.512,0.5018,0.4975,0.4716,0.4517,0.4559,0.4533,0.4517,0.4559,0.4586,0.465,0.4796,0.4796,0.4796,0.4796,0.4832,0.4922,0.5027,0.5128,0.523,0.534,0.5334,0.5309,0.5214,0.5214,0.5182,0.5095,0.5236,0.5429,0.5634,0.5884,0.6044,0.2535,0.2641,0.2649,0.2394,0.2305,0.2115,0.1516,0.1254,0.1024,0.0621,0.0464,0.041,0.0433,0.049,0.0556,0.0623,0.0763,0.0877,0.0938,0.1097,0.1262,0.1334,0.1496,0.1599,0.1647,0.1718,0.1773,0.1796,0.1797,0.1797,0.1797,0.1797,0.1797,0.1797,0.1887,0.1974,0.2058,0.2339,0.259,0.2774,0.3077,0.3383,0.3661,0.3741,0.383,0.3958,0.3909,0.3818,0.0,0.3965,0.4184,0.4405,0.4625,0.4846,0.5062,0.5062,0.5062,0.5062,0.5148,0.5175,0.5203,0.5449,0.575,0.5946,0.5664,0.5146,0.4599,0.4194,0.4294,0.4517,0.4692,0.4997,0.5318,0.5507,0.562,0.5712,0.5804,0.5809,0.576,0.56,0.5367,0.5219,0.5228,0.4881,0.463,0.4672,0.4646,0.4635,0.4672,0.4672,0.4704,0.4796,0.4796,0.4796,0.4796,0.4864,0.4979,0.5169,0.5271,0.5412,0.5608,0.5617,0.5617,0.5617,0.5617,0.5617,0.5617,0.5757,0.5967,0.626,0.6452,0.6604,0.0,0.2522,0.2612,0.2428,0.2384,0.2227,0.1644,0.1355,0.0,0.0706,0.0508,0.0431,0.0499,0.0566,0.0625,0.0693,0.0768,0.0862,0.0992,0.1072,0.1185,0.1391,0.1524,0.1644,0.1727,0.1737,0.179,0.1849,0.1853,0.1853,0.1853,0.1853,0.1853,0.1853,0.2017,0.2187,0.2344,0.2809,0.3177,0.3488,0.3727,0.3969,0.4151,0.403,0.4062,0.4236,0.4107,0.4079,0.4076,0.4408,0.4629,0.4798,0.5046,0.523,0.5363,0.5363,0.5363,0.5391,0.5591,0.5673,0.5755,0.6132,0.6458,0.6567,0.5777,0.5305,0.4958,0.4535,0.4626,0.491,0.5241,0.5501,0.5766,0.5954,0.5997,0.5997,0.6019,0.5997,0.5997,0.6019,0.5673,0.544,0.5577,0.5159,0.4796,0.4796,0.4796,0.4796,0.4806,0.4806,0.4806,0.4806,0.4806,0.4806,0.4806,0.4864,0.5017,0.5293,0.5381,0.5547,0.5827,0.5827,0.5827,0.5827,0.5827,0.5827,0.5827,0.5959,0.6183,0.6506,0.6573,0.6725,0.2237,0.0,0.2227,0.2183,0.2171,0.2077,0.0,0.1453,0.1202,0.0959,0.0,0.0511,0.0634,0.0668,0.0696,0.0763,0.0913,0.1039,0.1068,0.1225,0.1367,0.1467,0.1686,0.19,0.2073,0.2208,0.2362,0.2465,0.2495,0.2495,0.2495,0.2495,0.2495,0.2495,0.2856,0.2977,0.2772,0.322,0.3713,0.4257,0.442,0.4562,0.4703,0.4668,0.4678,0.4734,0.4698,0.468,0.4708,0.4877,0.5124,0.5403,0.5572,0.5791,0.5978,0.5978,0.5978,0.6005,0.6164,0.6327,0.649,0.6783,0.6869,0.6732,0.6072,0.5766,0.5461,0.475,0.4867,0.5219,0.541,0.562,0.5841,0.6099,0.6083,0.6019,0.6142,0.6083,0.604,0.6142,0.5753,0.544,0.5577,0.5159,0.4796,0.4796,0.4796,0.4822,0.4874,0.4874,0.489,0.4944,0.4944,0.4944,0.4944,0.496,0.5119,0.5428,0.5617,0.5858,0.6168,0.6191,0.6191,0.6191,0.6191,0.6191,0.6191,0.6214,0.6322,0.6506,0.6681,0.6824,0.2169,0.2129,0.21,0.21,0.21,0.2042,0.1801,0.0,0.0,0.0,0.0,0.0748,0.0824,0.0811,0.082,0.0879,0.1034,0.1155,0.1192,0.1361,0.1505,0.1538,0.183,0.2153,0.2394,0.2629,0.2882,0.3105,0.3105,0.3105,0.3105,0.3105,0.3105,0.3105,0.3547,0.363,0.3322,0.3852,0.4322,0.4767,0.4924,0.5003,0.5089,0.5089,0.5089,0.5089,0.5089,0.5089,0.5089,0.5317,0.5513,0.5709,0.5905,0.6069,0.6205,0.6255,0.6277,0.6332,0.6549,0.6734,0.6923,0.7117,0.709,0.6892,0.634,0.6083,0.5827,0.5004,0.5041,0.535,0.5545,0.5734,0.597,0.6233,0.6239,0.6196,0.6276,0.6239,0.6218,0.6276,0.5969,0.5707,0.5778,0.5438,0.5171,0.5171,0.509,0.5061,0.5165,0.5116,0.5112,0.523,0.523,0.523,0.523,0.5286,0.5397,0.5585,0.5773,0.6013,0.6291,0.6299,0.6299,0.6299,0.6299,0.6299,0.6299,0.6299,0.6376,0.6506,0.6705,0.6878,0.2147,0.2111,0.21,0.21,0.212,0.2092,0.1893,0.0,0.0,0.0,0.0,0.0,0.1076,0.1043,0.0,0.1099,0.123,0.1371,0.1437,0.1605,0.172,0.1755,0.2103,0.2462,0.2792,0.3072,0.338,0.371,0.3735,0.3735,0.3735,0.3735,0.3738,0.3766,0.4153,0.4263,0.4073,0.4574,0.4991,0.5266,0.5395,0.5445,0.5445,0.5445,0.5445,0.5445,0.5445,0.5445,0.5445,0.5732,0.585,0.5877,0.6123,0.6205,0.62,0.6359,0.6408,0.6495,0.682,0.7009,0.7144,0.7284,0.7252,0.7073,0.6613,0.6374,0.6091,0.5326,0.5224,0.5393,0.5653,0.5847,0.6062,0.6331,0.6395,0.6395,0.6395,0.6395,0.6395,0.6395,0.6185,0.6011,0.6011,0.5791,0.5621,0.5633,0.5522,0.5478,0.5611,0.5571,0.5557,0.5686,0.5659,0.5631,0.5631,0.5701,0.575,0.575,0.5913,0.6091,0.6299,0.6299,0.6299,0.6299,0.6299,0.6299,0.6299,0.6299,0.6376,0.6506,0.6705,0.6878,0.2156,0.214,0.21,0.21,0.2231,0.2303,0.21,0.0,0.0,0.0,0.0,0.0,0.0,0.1512,0.1588,0.1586,0.1807,0.1997,0.2123,0.222,0.2319,0.2447,0.276,0.3102,0.343,0.3713,0.3993,0.4349,0.4349,0.4349,0.4349,0.4349,0.4408,0.4522,0.4822,0.5069,0.5317,0.543,0.565,0.6037,0.6064,0.6064,0.6064,0.6064,0.6064,0.6064,0.6064,0.6064,0.6064,0.6123,0.615,0.615,0.6178,0.6205,0.62,0.6359,0.6517,0.6707,0.6977,0.7144,0.7284,0.7413,0.7467,0.7344,0.6891,0.6646,0.6402,0.577,0.5545,0.5512,0.5728,0.5884,0.6062,0.6331,0.6395,0.6395,0.6395,0.6395,0.6395,0.6395,0.6185,0.6011,0.6077,0.5855,0.5714,0.5838,0.5972,0.6104,0.6249,0.6388,0.651,0.6589,0.6341,0.6173,0.6173,0.603,0.5959,0.5959,0.5975,0.6091,0.6299,0.6299,0.6299,0.6299,0.6299,0.6299,0.6299,0.6299,0.6376,0.6506,0.6705,0.6878,0.2222,0.2235,0.2231,0.2343,0.247,0.2543,0.2495,0.2432,0.0,0.0,0.0,0.0,0.0,0.0,0.2162,0.2422,0.2552,0.2708,0.2863,0.2956,0.3019,0.3071,0.3392,0.3713,0.4042,0.4322,0.4601,0.4908,0.4936,0.4936,0.4936,0.5042,0.5124,0.5183,0.5458,0.5645,0.5814,0.59,0.6009,0.6205,0.6205,0.6205,0.6205,0.6205,0.6205,0.6205,0.6205,0.6205,0.6205,0.6205,0.6205,0.6205,0.6205,0.6205,0.6232,0.6549,0.6761,0.695,0.7144,0.7198,0.7225,0.744,0.744,0.7351,0.7182,0.7028,0.683,0.641,0.6002,0.5707,0.5863,0.6013,0.6147,0.6346,0.6395,0.6395,0.6395,0.6395,0.6395,0.6395,0.6328,0.6334,0.6505,0.6458,0.6467,0.6673,0.6707,0.6729,0.6874,0.6915,0.6956,0.7065,0.6927,0.6844,0.6844,0.6594,0.6355,0.6176,0.6168,0.6199,0.6299,0.6299,0.6299,0.6299,0.6299,0.6322,0.6353,0.6353,0.6421,0.6558,0.6749,0.6915,0.2336,0.2297,0.2291,0.2536,0.0,0.2754,0.2814,0.2876,0.0,0.0,0.0,0.0,0.0,0.279,0.2817,0.3244,0.3275,0.3351,0.3583,0.3668,0.3691,0.3723,0.3984,0.427,0.457,0.4818,0.5042,0.527,0.5297,0.5325,0.538,0.5513,0.5622,0.5704,0.5896,0.6005,0.6059,0.6146,0.6205,0.6205,0.6205,0.6205,0.6205,0.6205,0.6205,0.6205,0.6205,0.6205,0.6205,0.6205,0.6205,0.6205,0.6205,0.6255,0.6364,0.6793,0.7036,0.7171,0.7311,0.7279,0.7219,0.744,0.744,0.7395,0.743,0.7379,0.725,0.6957,0.6528,0.6129,0.6143,0.6167,0.6227,0.6367,0.6395,0.6416,0.641,0.6432,0.6432,0.6459,0.6553,0.6696,0.6935,0.7055,0.7196,0.7433,0.7391,0.7344,0.7455,0.7437,0.7444,0.7555,0.7475,0.7388,0.7309,0.707,0.6808,0.6554,0.6387,0.6299,0.6299,0.6299,0.6299,0.6299,0.6299,0.6337,0.6398,0.6413,0.6497,0.6649,0.6831,0.6966,0.2491,0.2303,0.2119,0.2506,0.275,0.0,0.2887,0.308,0.0,0.3178,0.0,0.0,0.0,0.3517,0.3605,0.3883,0.3842,0.3866,0.4178,0.4226,0.4287,0.4402,0.457,0.4715,0.4842,0.5011,0.5156,0.5297,0.5297,0.538,0.5567,0.5595,0.5704,0.5973,0.6,0.6059,0.6178,0.6205,0.6205,0.6205,0.6205,0.6205,0.6205,0.6205,0.6205,0.6205,0.6205,0.6205,0.6205,0.6205,0.6205,0.6205,0.6205,0.6386,0.6707,0.6977,0.7171,0.7311,0.744,0.7467,0.7467,0.7494,0.7568,0.765,0.7597,0.757,0.7515,0.7249,0.7146,0.7014,0.6641,0.6383,0.6227,0.6367,0.6395,0.641,0.6483,0.6505,0.6526,0.6645,0.6823,0.7006,0.7146,0.7342,0.7502,0.7649,0.7827,0.7941,0.7941,0.8159,0.8314,0.8322,0.7992,0.7639,0.7324,0.7277,0.7253,0.7229,0.665,0.6299,0.6299,0.6299,0.6299,0.6299,0.6299,0.6337,0.6398,0.6452,0.659,0.6796,0.6921,0.7032,0.2615,0.2401,0.2245,0.2784,0.2972,0.0,0.0,0.3427,0.3675,0.3692,0.3841,0.0,0.0,0.4168,0.4269,0.4407,0.4491,0.4595,0.478,0.4881,0.4946,0.4983,0.505,0.5105,0.5156,0.5183,0.5242,0.5297,0.5407,0.5513,0.5595,0.5759,0.5896,0.6,0.6087,0.6146,0.6205,0.6205,0.6205,0.6205,0.6205,0.6205,0.6205,0.6205,0.6205,0.6205,0.6205,0.6205,0.6205,0.6205,0.6205,0.6205,0.6205,0.6413,0.6734,0.6901,0.7063,0.7198,0.744,0.744,0.7392,0.7568,0.767,0.7706,0.7775,0.7798,0.7754,0.7651,0.7551,0.7346,0.6845,0.6659,0.6545,0.6431,0.6432,0.6511,0.6696,0.6781,0.688,0.7104,0.7238,0.7377,0.76,0.7739,0.7876,0.8106,0.8201,0.8242,0.8242,0.8332,0.8394,0.8394,0.8274,0.8023,0.7639,0.7616,0.752,0.7316,0.7054,0.6824,0.6617,0.6609,0.653,0.6368,0.636,0.6413,0.652,0.6627,0.6742,0.6872,0.726,0.7445,0.2804,0.2502,0.2326,0.2873,0.0,0.0,0.3391,0.3754,0.4095,0.4206,0.4346,0.4477,0.4578,0.4624,0.4728,0.489,0.4998,0.5123,0.5291,0.541,0.5466,0.5466,0.5466,0.5466,0.5466,0.5466,0.5466,0.5466,0.5572,0.5677,0.5732,0.5891,0.6032,0.6059,0.6146,0.6205,0.6205,0.6205,0.6205,0.6205,0.6205,0.6205,0.6205,0.6205,0.6205,0.6205,0.6205,0.6205,0.6205,0.6205,0.6205,0.6205,0.6205,0.6359,0.6625,0.6793,0.6955,0.7139,0.7408,0.7467,0.7467,0.7676,0.7756,0.7783,0.7875,0.7901,0.7901,0.7901,0.779,0.7594,0.7176,0.6933,0.6763,0.6558,0.6492,0.6553,0.6829,0.695,0.7084,0.737,0.7551,0.771,0.7912,0.8049,0.8193,0.8373,0.8394,0.8394,0.8394,0.8394,0.8394,0.8394,0.8394,0.8298,0.8004,0.798,0.7896,0.7658,0.7642,0.7436,0.6983,0.6967,0.6881,0.6747,0.6771,0.6851,0.7019,0.7171,0.7267,0.7355,0.7758,0.795,0.3062,0.2619,0.2307,0.0,0.0,0.0,0.3663,0.4068,0.4466,0.4666,0.486,0.5011,0.5011,0.4898,0.4938,0.5335,0.5285,0.5351,0.5738,0.5791,0.5795,0.5795,0.5795,0.5795,0.5795,0.5795,0.5795,0.5795,0.5795,0.5873,0.6,0.6,0.6059,0.6205,0.6205,0.6205,0.6205,0.6205,0.6205,0.6205,0.6205,0.6205,0.6205,0.6205,0.6205,0.6205,0.6205,0.6205,0.6205,0.6205,0.6205,0.6205,0.6205,0.6282,0.6436,0.662,0.6869,0.7139,0.7408,0.7595,0.7723,0.7869,0.7901,0.7901,0.7901,0.7901,0.7901,0.7901,0.7901,0.7868,0.7668,0.7206,0.6817,0.6805,0.6611,0.6502,0.6829,0.695,0.7105,0.744,0.7773,0.8,0.8,0.8221,0.8394,0.8394,0.8394,0.8394,0.8394,0.8394,0.8394,0.8394,0.8394,0.8394,0.8394,0.8394,0.8394,0.8394,0.8394,0.8075,0.734,0.7309,0.737,0.7494,0.7567,0.7699,0.7903,0.8096,0.8236,0.8307,0.8429,0.8507,0.3356,0.3169,0.0,0.3401,0.0,0.0,0.0,0.4438,0.0,0.0,0.4964,0.5011,0.5011,0.5076,0.5167,0.518,0.539,0.556,0.5597,0.5707,0.5795,0.5795,0.5795,0.5795,0.5795,0.5795,0.5795,0.5795,0.59,0.595,0.6,0.6087,0.6146,0.6205,0.6205,0.6205,0.6205,0.6205,0.6205,0.6205,0.6205,0.6205,0.6205,0.6205,0.6205,0.6205,0.6205,0.6205,0.6205,0.6205,0.6205,0.6205,0.6205,0.6359,0.6625,0.6674,0.6869,0.7139,0.7408,0.7521,0.7622,0.7975,0.8115,0.8141,0.8215,0.8242,0.8242,0.8242,0.8242,0.8249,0.8188,0.7904,0.7491,0.6942,0.6783,0.6777,0.6875,0.702,0.7272,0.7697,0.7904,0.807,0.8242,0.8353,0.8394,0.8394,0.8394,0.8394,0.8394,0.8394,0.8394,0.8394,0.8394,0.8394,0.8394,0.8394,0.8394,0.8394,0.8394,0.8186,0.7671,0.7655,0.7618,0.7575,0.7691,0.7833,0.8044,0.8193,0.828,0.8316,0.873,0.8931,0.3609,0.3561,0.0,0.406,0.4221,0.4319,0.4626,0.0,0.0,0.0,0.5011,0.5011,0.5011,0.5173,0.5292,0.5287,0.5574,0.5788,0.5787,0.5878,0.5959,0.5959,0.5959,0.5959,0.5959,0.5959,0.5959,0.5959,0.6037,0.6087,0.6087,0.6146,0.6205,0.6205,0.6205,0.6205,0.6205,0.6205,0.6205,0.6205,0.6205,0.6205,0.6205,0.6205,0.6205,0.6205,0.6205,0.6205,0.6205,0.6205,0.6205,0.6205,0.6205,0.6359,0.6598,0.6674,0.6869,0.7139,0.7408,0.7574,0.7735,0.8215,0.8395,0.8474,0.8659,0.8712,0.8712,0.8712,0.8712,0.8712,0.8712,0.8612,0.8284,0.7465,0.7119,0.6997,0.7117,0.7242,0.7433,0.7829,0.8036,0.8221,0.8373,0.8394,0.8394,0.8394,0.8394,0.8394,0.8394,0.8394,0.8394,0.8394,0.8394,0.8394,0.8394,0.8394,0.8394,0.8394,0.8394,0.829,0.8087,0.8059,0.8041,0.8031,0.82,0.8377,0.8581,0.8756,0.8857,0.8857,0.9188,0.9345,0.3854,0.3845,0.0,0.4642,0.4723,0.0,0.4937,0.5011,0.5011,0.5011,0.5011,0.5011,0.5011,0.5192,0.5382,0.5576,0.5793,0.5979,0.6177,0.6205,0.6205,0.6205,0.6205,0.6205,0.6205,0.6205,0.6205,0.6205,0.6205,0.6205,0.6205,0.6205,0.6205,0.6205,0.6205,0.6205,0.6205,0.6205,0.6205,0.6205,0.6205,0.6205,0.6205,0.6205,0.6205,0.6205,0.6205,0.6205,0.6232,0.6228,0.6255,0.626,0.6287,0.6359,0.6517,0.6701,0.695,0.7214,0.7461,0.7735,0.8029,0.8494,0.8725,0.8909,0.9152,0.9237,0.9237,0.9237,0.9237,0.9237,0.9237,0.9237,0.9063,0.833,0.7682,0.7306,0.7538,0.7593,0.7665,0.7902,0.8193,0.8413,0.8402,0.8394,0.8394,0.8394,0.8394,0.8394,0.8394,0.8394,0.8394,0.8394,0.8394,0.8394,0.8394,0.8394,0.8394,0.8394,0.8394,0.8427,0.85,0.8447,0.8508,0.8724,0.8915,0.9116,0.9299,0.9565,0.9703,0.9703,0.9703,0.9703,0.4035,0.4237,0.0,0.0,0.4932,0.4929,0.4978,0.5011,0.5011,0.5011,0.5011,0.5011,0.5011,0.5292,0.5557,0.5604,0.5895,0.6153,0.6196,0.6205,0.6205,0.6205,0.6205,0.6205,0.6205,0.6205,0.6205,0.6205,0.6205,0.6205,0.6205,0.6205,0.6205,0.6205,0.6205,0.6205,0.6205,0.6205,0.6205,0.6205,0.6205,0.6205,0.6205,0.6205,0.6205,0.6205,0.6205,0.6255,0.6359,0.6517,0.6657,0.6771,0.6874,0.7058,0.7273,0.73,0.7509,0.7771,0.7975,0.8235,0.8501,0.8817,0.908,0.9309,0.9458,0.951,0.951,0.951,0.951,0.951,0.951,0.951,0.947,0.9301,0.8826,0.8394,0.8231,0.8295,0.8347,0.8297,0.844,0.852,0.8421,0.8394,0.8394,0.8394,0.8394,0.8394,0.8394,0.8394,0.8394,0.8394,0.8394,0.8394,0.8394,0.8394,0.8394,0.8394,0.8394,0.8427,0.85,0.848,0.859,0.8851,0.9065,0.9208,0.9299,0.9565,0.9703,0.9703,0.9703,0.9703,0.4269,0.0,0.0,0.4837,0.0,0.5076,0.5024,0.5011,0.5011,0.5011,0.5011,0.504,0.5135,0.5391,0.5642,0.5736,0.5998,0.6205,0.6205,0.6205,0.6205,0.6205,0.6205,0.6205,0.6205,0.6205,0.6205,0.6205,0.6205,0.6205,0.6205,0.6205,0.6205,0.6205,0.6205,0.6205,0.6205,0.6205,0.6205,0.6205,0.6205,0.6205,0.6205,0.6205,0.6205,0.6205,0.6205,0.6332,0.6571,0.6864,0.7106,0.73,0.7578,0.7824,0.8043,0.8096,0.8249,0.8455,0.8633,0.8817,0.9021,0.9309,0.9517,0.9732,0.9966,1.0043,1.0043,1.0043,1.0043,1.0043,1.0043,1.0043,1.0043,1.0043,0.9506,0.8954,0.8822,0.882,0.8812,0.8754,0.8874,0.8961,0.8897,0.8887,0.8832,0.8672,0.8648,0.8593,0.8417,0.8545,0.8648,0.8648,0.8792,0.8887,0.8887,0.8887,0.8816,0.8643,0.8648,0.8631,0.8602,0.8594,0.8704,0.8943,0.9136,0.9288,0.9397,0.9594,0.9703,0.9703,0.9703,0.9713,0.4383,0.0,0.4485,0.4864,0.5102,0.0,0.5132,0.512,0.512,0.512,0.505,0.5073,0.5272,0.5462,0.5675,0.5878,0.6064,0.6205,0.6205,0.6205,0.6205,0.6205,0.6205,0.6205,0.6205,0.6205,0.6205,0.6205,0.6205,0.6205,0.6205,0.6205,0.6205,0.6205,0.6205,0.6205,0.6205,0.6205,0.6205,0.6205,0.6205,0.6205,0.6205,0.6205,0.6205,0.6205,0.6205,0.6413,0.6761,0.7182,0.7563,0.7857,0.829,0.8587,0.8758,0.8856,0.8981,0.9112,0.923,0.9361,0.9543,0.9769,0.9958,1.0128,1.0419,1.0496,1.0496,1.0496,1.0496,1.0496,1.0496,1.0496,1.0496,1.0496,0.9963,0.9425,0.9425,0.9385,0.9322,0.926,0.933,0.9398,0.9398,0.9398,0.9302,0.9032,0.8985,0.8881,0.8609,0.881,0.8985,0.8985,0.9231,0.9398,0.9398,0.9398,0.9279,0.9009,0.8985,0.8936,0.8861,0.8807,0.8885,0.9078,0.9223,0.9348,0.9475,0.9614,0.9703,0.9703,0.9703,0.9733,0.4036,0.0,0.481,0.0,0.5311,0.5419,0.0,0.0,0.5615,0.5615,0.529,0.5073,0.5272,0.5462,0.5675,0.5878,0.6064,0.6205,0.6205,0.6205,0.6205,0.6205,0.6205,0.6205,0.6205,0.6205,0.6205,0.6205,0.6205,0.6205,0.6205,0.6205,0.6205,0.6205,0.6205,0.6205,0.6205,0.6205,0.6205,0.6205,0.6205,0.6205,0.6205,0.6205,0.6205,0.6205,0.6205,0.6445,0.6906,0.7429,0.791,0.8368,0.8863,0.9178,0.9309,0.9309,0.9406,0.951,0.9536,0.9699,0.9921,0.9973,1.018,1.0445,1.0496,1.0496,1.0496,1.0496,1.0496,1.0496,1.0496,1.0496,1.0496,1.0496,1.0405,1.0322,1.0322,1.0308,1.0207,0.9866,0.9581,0.9398,0.9398,0.9398,0.9382,0.9334,0.9326,0.931,0.9263,0.9302,0.9326,0.9326,0.9366,0.9398,0.9398,0.9398,0.9374,0.9334,0.9326,0.9387,0.9468,0.9262,0.9226,0.9427,0.9334,0.9299,0.9328,0.9565,0.9703,0.9703,0.9703,0.9703,0.4119,0.4464,0.4865,0.0,0.5497,0.5606,0.5958,0.6023,0.6023,0.6023,0.6028,0.6,0.5934,0.5925,0.6032,0.6293,0.6323,0.6282,0.62,0.6205,0.6205,0.6205,0.6205,0.6205,0.6205,0.6205,0.6205,0.6205,0.6205,0.6205,0.6205,0.6205,0.6205,0.6205,0.6205,0.6205,0.6205,0.6205,0.6205,0.6205,0.6205,0.6228,0.6305,0.644,0.6391,0.6205,0.6205,0.65,0.7058,0.7738,0.8349,0.8923,0.9655,0.9966,1.0017,1.0017,1.0043,1.0095,1.0095,1.0172,1.029,1.029,1.0393,1.0496,1.0496,1.0496,1.0496,1.0496,1.0496,1.0496,1.0496,1.0496,1.0496,1.0496,1.0496,1.0496,1.0496,1.0496,1.0448,1.0264,1.013,1.0018,1.0018,1.0018,0.9954,0.9724,0.9692,0.962,0.9422,0.9565,0.9692,0.9692,0.9874,1.0018,1.0018,1.0018,0.9906,0.9708,0.9692,0.9683,0.9706,0.9588,0.9631,0.9831,0.9494,0.9348,0.9406,0.9614,0.9703,0.9703,0.9703,0.9723,0.4052,0.4382,0.4812,0.5468,0.5621,0.5782,0.0,0.643,0.64,0.6467,0.6668,0.6826,0.6788,0.6637,0.6575,0.6774,0.6652,0.644,0.6232,0.6205,0.6205,0.6205,0.6205,0.6205,0.6205,0.6205,0.6205,0.6205,0.6205,0.6205,0.6205,0.6205,0.6205,0.6205,0.6205,0.6205,0.6205,0.6205,0.6205,0.6205,0.6205,0.6309,0.649,0.6707,0.6707,0.6527,0.6445,0.6766,0.7375,0.8131,0.8771,0.9394,1.018,1.0496,1.0496,1.0496,1.0496,1.0496,1.0496,1.0496,1.0496,1.0496,1.0496,1.0496,1.0496,1.0496,1.0496,1.0496,1.0496,1.0496,1.0496,1.0496,1.0496,1.0496,1.0496,1.0496,1.0496,1.0496,1.0496,1.0496,1.0496,1.0496,1.0496,1.0496,1.04,1.0105,1.0057,0.997,0.97,0.9898,1.0057,1.0057,1.0329,1.0496,1.0496,1.0496,1.0376,1.0081,1.0057,1.0051,1.0031,0.9956,1.0038,1.0245,0.9817,0.9597,0.9607,0.9669,0.9703,0.9703,0.9703,0.9733,0.3588,0.4063,0.4699,0.5495,0.5697,0.5923,0.6766,0.6766,0.6647,0.6919,0.6971,0.715,0.7726,0.7561,0.7292,0.7095,0.6955,0.6717,0.626,0.6205,0.6205,0.6205,0.6205,0.6205,0.6205,0.6205,0.6205,0.6205,0.6205,0.6205,0.6205,0.6205,0.6205,0.6205,0.6205,0.6205,0.6205,0.6205,0.6205,0.6205,0.6205,0.6359,0.6701,0.695,0.7219,0.7413,0.7166,0.7375,0.7898,0.8508,0.9093,0.964,1.0257,1.0496,1.0496,1.0496,1.0496,1.0496,1.0496,1.0496,1.0496,1.0496,1.0496,1.0496,1.0496,1.0496,1.0496,1.0496,1.0496,1.0496,1.0496,1.0496,1.0496,1.0496,1.0496,1.0496,1.0496,1.0496,1.0496,1.0496,1.0496,1.0496,1.0496,1.0496,1.0488,1.0464,1.0464,1.0456,1.044,1.0456,1.0464,1.0464,1.0488,1.0496,1.0496,1.0496,1.0488,1.0464,1.0464,1.0507,1.0644,1.0417,1.0405,1.067,1.0521,1.0259,0.9874,0.9756,0.9703,0.9703,0.9703,0.9703,0.372,0.4084,0.0,0.5267,0.5762,0.6162,0.6477,0.6937,0.7263,0.7151,0.7475,0.7829,0.8049,0.7751,0.743,0.7372,0.7166,0.6847,0.6287,0.6205,0.6205,0.6205,0.6205,0.6205,0.6205,0.6205,0.6205,0.6205,0.6205,0.6205,0.6205,0.6205,0.6205,0.6205,0.6205,0.6205,0.6205,0.6205,0.6255,0.6332,0.6468,0.6734,0.7101,0.745,0.7777,0.8082,0.8162,0.8209,0.8256,0.8718,0.919,0.964,1.018,1.0419,1.0496,1.0496,1.0496,1.0496,1.0496,1.0496,1.0496,1.0496,1.0496,1.0496,1.0496,1.0496,1.0496,1.0496,1.0496,1.0496,1.0496,1.0663,1.0886,1.1101,1.1149,1.1149,1.1149,1.0806,1.0496,1.0496,1.0496,1.0496,1.0496,1.0496,1.0496,1.0496,1.0496,1.0496,1.0496,1.0496,1.0496,1.0496,1.0496,1.0496,1.0496,1.0496,1.0547,1.0624,1.0624,1.0726,1.0947,1.0939,1.1021,1.1194,1.1084,1.0682,1.0037,1.007,0.9951,0.9703,0.9703,0.9703,0.3671,0.4006,0.0,0.0,0.5554,0.6016,0.6253,0.6848,0.7341,0.7231,0.764,0.807,0.818,0.7864,0.7573,0.7486,0.7325,0.7004,0.6287,0.6205,0.6205,0.6205,0.6205,0.6205,0.6205,0.6205,0.6205,0.6205,0.6205,0.6205,0.6205,0.6205,0.6205,0.6205,0.6205,0.6205,0.6205,0.6205,0.6309,0.649,0.6734,0.7074,0.753,0.7978,0.8382,0.8685,0.8949,0.8929,0.8685,0.9014,0.938,0.9777,1.0154,1.0368,1.0496,1.0496,1.0496,1.0496,1.0496,1.0496,1.0496,1.0496,1.0496,1.0496,1.0496,1.0496,1.0496,1.0496,1.0496,1.0496,1.0496,1.0759,1.1082,1.1408,1.1487,1.1487,1.1487,1.1165,1.0838,1.0838,1.0838,1.0838,1.0838,1.0743,1.0671,1.0671,1.0568,1.0496,1.0496,1.0496,1.0496,1.0496,1.0496,1.0496,1.0496,1.0496,1.0573,1.0693,1.0744,1.0896,1.115,1.1352,1.1502,1.1619,1.16,1.1235,1.0573,1.0514,1.0355,1.0098,1.0098,1.0118,0.0,0.0,0.0,0.0,0.5034,0.5458,0.6113,0.6482,0.6782,0.711,0.745,0.7778,0.8129,0.7988,0.7717,0.7442,0.7451,0.7176,0.6327,0.6223,0.6196,0.62,0.62,0.62,0.62,0.62,0.62,0.62,0.6205,0.6205,0.6205,0.6205,0.6205,0.6205,0.6205,0.6205,0.6205,0.6205,0.6391,0.6729,0.6999,0.7402,0.7951,0.8534,0.8961,0.9211,0.9491,0.9458,0.9211,0.9361,0.9655,1.0025,1.0213,1.0368,1.0496,1.0496,1.0496,1.0496,1.0496,1.0496,1.0496,1.0496,1.0496,1.0496,1.0496,1.0496,1.0496,1.0496,1.0496,1.0496,1.052,1.0783,1.1098,1.1439,1.1519,1.1519,1.1519,1.1519,1.1519,1.1495,1.1487,1.1487,1.1487,1.1225,1.101,1.101,1.0743,1.0528,1.0528,1.0528,1.052,1.0512,1.0512,1.0504,1.0496,1.0496,1.0573,1.0693,1.082,1.1023,1.1293,1.1553,1.1778,1.1902,1.2051,1.1908,1.1531,1.1131,1.091,1.0901,1.0901,1.0968,0.3395,0.0,0.0,0.0,0.0,0.0,0.5165,0.5824,0.649,0.6775,0.7095,0.7443,0.7764,0.7889,0.7799,0.7386,0.7255,0.706,0.6629,0.6477,0.6454,0.6556,0.6571,0.6571,0.6571,0.6571,0.6571,0.6571,0.644,0.6309,0.6205,0.6205,0.6205,0.6205,0.6205,0.6255,0.6332,0.649,0.6761,0.7128,0.7503,0.7931,0.8408,0.889,0.9178,0.9361,0.951,0.9562,0.9484,0.9543,0.9725,0.9999,1.0051,1.0257,1.0496,1.0496,1.0496,1.0496,1.0496,1.0496,1.0496,1.0496,1.0496,1.0496,1.0496,1.0496,1.0496,1.0496,1.0496,1.0607,1.1101,1.1281,1.1511,1.2152,1.2296,1.2296,1.2296,1.2296,1.2144,1.159,1.1487,1.1487,1.1487,1.1416,1.1352,1.1352,1.1273,1.1229,1.1229,1.1229,1.1141,1.0875,1.0852,1.0775,1.052,1.0496,1.0598,1.082,1.0871,1.1074,1.1427,1.1703,1.1902,1.2051,1.2274,1.2316,1.2213,1.1625,1.1182,1.0901,1.099,1.1145,0.3987,0.0,0.0,0.4097,0.0,0.0,0.4794,0.5473,0.6206,0.6608,0.6855,0.7088,0.7428,0.7571,0.7525,0.7179,0.7143,0.7063,0.6858,0.6709,0.6613,0.6535,0.6686,0.6776,0.6744,0.686,0.6902,0.6749,0.6651,0.6495,0.62,0.6205,0.6205,0.6205,0.6205,0.6309,0.6517,0.6756,0.7106,0.7551,0.8031,0.8488,0.8863,0.9204,0.9413,0.9491,0.9562,0.9588,0.9588,0.9588,0.9751,0.9999,0.9999,1.0205,1.0496,1.0496,1.0496,1.052,1.0663,1.0719,1.0735,1.0878,1.0918,1.0918,1.0918,1.0822,1.0719,1.0719,1.0719,1.0838,1.1352,1.1598,1.1853,1.2455,1.259,1.259,1.259,1.259,1.2471,1.2049,1.1969,1.1969,1.1969,1.1813,1.171,1.171,1.1582,1.1487,1.1487,1.1487,1.1416,1.1225,1.1074,1.0915,1.0735,1.0576,1.059,1.0794,1.0871,1.1074,1.1477,1.1843,1.2116,1.2357,1.2632,1.2803,1.2803,1.221,1.1775,1.1486,1.151,1.1663,0.4917,0.4887,0.0,0.4488,0.4604,0.0,0.4794,0.5261,0.5862,0.6418,0.6571,0.6695,0.7041,0.7085,0.701,0.6898,0.7037,0.7111,0.706,0.6907,0.6727,0.643,0.6701,0.6909,0.6828,0.7104,0.7169,0.685,0.686,0.6708,0.6276,0.6273,0.6314,0.6314,0.6314,0.6472,0.6783,0.7052,0.7456,0.7984,0.856,0.8988,0.9237,0.9491,0.9588,0.9588,0.9588,0.9588,0.9588,0.9588,0.9751,0.9999,0.9999,1.0205,1.0496,1.0496,1.052,1.0599,1.0891,1.1018,1.1098,1.1392,1.1487,1.1487,1.1487,1.1281,1.105,1.105,1.1026,1.1082,1.1455,1.1781,1.2107,1.2503,1.259,1.259,1.259,1.259,1.259,1.259,1.259,1.259,1.259,1.2297,1.2075,1.2075,1.1805,1.1635,1.1635,1.1663,1.1647,1.1607,1.1336,1.1136,1.1029,1.0735,1.0587,1.0701,1.082,1.1074,1.1477,1.1934,1.2363,1.27,1.306,1.3242,1.3242,1.2779,1.2471,1.2348,1.2224,1.2357,0.5605,0.5414,0.5187,0.5122,0.4953,0.0,0.4794,0.4902,0.5107,0.5495,0.5787,0.6082,0.6412,0.6647,0.676,0.6741,0.678,0.6929,0.7266,0.7117,0.6951,0.6948,0.7019,0.7049,0.7049,0.7151,0.7181,0.7049,0.6842,0.6701,0.6597,0.6796,0.6923,0.6923,0.6923,0.7058,0.7327,0.761,0.7984,0.8468,0.8916,0.9204,0.9361,0.9536,0.9588,0.9588,0.9588,0.9588,0.9588,0.9588,0.9751,0.9999,0.9999,1.0205,1.0496,1.0496,1.0679,1.0907,1.0979,1.1169,1.14,1.1463,1.1487,1.1487,1.1487,1.1447,1.1392,1.1392,1.1201,1.1138,1.1757,1.1934,1.2107,1.2503,1.259,1.259,1.259,1.259,1.259,1.259,1.259,1.259,1.259,1.2535,1.2487,1.2487,1.2431,1.2414,1.2534,1.2647,1.2592,1.2327,1.2245,1.191,1.1231,1.0985,1.0851,1.0717,1.0718,1.0972,1.1477,1.1893,1.2323,1.2764,1.3276,1.3515,1.3515,1.3098,1.2817,1.2627,1.2603,1.2627,0.6246,0.6122,0.5918,0.5634,0.5429,0.0,0.0,0.5048,0.5187,0.5693,0.5796,0.5898,0.6238,0.6412,0.6504,0.6504,0.6757,0.6975,0.705,0.7051,0.704,0.7049,0.7236,0.7342,0.7289,0.7534,0.7641,0.7499,0.7044,0.6864,0.7141,0.7221,0.7325,0.7503,0.7503,0.7643,0.7943,0.8223,0.854,0.889,0.923,0.9439,0.951,0.9562,0.9588,0.9588,0.9588,0.9588,0.9588,0.9588,0.9751,0.9999,0.9999,1.0205,1.052,1.0695,1.087,1.105,1.1384,1.1614,1.1781,1.1964,1.2057,1.2057,1.2057,1.19,1.171,1.1535,1.1495,1.159,1.1903,1.2154,1.2337,1.2551,1.259,1.259,1.259,1.259,1.259,1.259,1.259,1.259,1.259,1.259,1.259,1.259,1.259,1.2683,1.2867,1.3094,1.321,1.3144,1.2919,1.255,1.2049,1.1393,1.095,1.0846,1.0695,1.082,1.1276,1.1719,1.2378,1.3286,1.3621,1.3858,1.3999,1.3718,1.3338,1.2852,1.2788,1.2774,0.6891,0.6848,0.6658,0.6109,0.5935,0.5788,0.0,0.0,0.0,0.5906,0.584,0.5781,0.6061,0.6164,0.6208,0.6208,0.6607,0.6859,0.6662,0.681,0.6937,0.6882,0.7228,0.7439,0.7389,0.774,0.7928,0.7868,0.7238,0.7076,0.7561,0.7616,0.7731,0.8004,0.8112,0.8276,0.8553,0.8804,0.9014,0.9237,0.9491,0.9588,0.9588,0.9588,0.9588,0.9588,0.9588,0.9588,0.9588,0.9588,0.9751,0.9999,0.9999,1.0244,1.0631,1.0891,1.1082,1.1273,1.18,1.2067,1.217,1.2495,1.259,1.259,1.259,1.2305,1.1972,1.1757,1.1853,1.2006,1.2107,1.2367,1.259,1.259,1.259,1.259,1.259,1.259,1.259,1.259,1.259,1.259,1.259,1.259,1.2598,1.2621,1.2652,1.2805,1.3103,1.3459,1.3752,1.3911,1.3561,1.3206,1.2951,1.1969,1.1328,1.1183,1.0934,1.0894,1.12,1.1735,1.2589,1.3773,1.3962,1.415,1.4396,1.4292,1.386,1.3146,1.3011,1.2958,0.7581,0.7377,0.7044,0.6688,0.6417,0.6083,0.5451,0.0,0.5231,0.5019,0.0,0.537,0.5414,0.0,0.0,0.5854,0.5913,0.6052,0.6302,0.6368,0.6409,0.6454,0.6766,0.6973,0.6973,0.7068,0.729,0.7694,0.7313,0.7221,0.7578,0.8087,0.8395,0.8429,0.8832,0.908,0.9106,0.9256,0.9335,0.9387,0.9543,0.9588,0.9588,0.9588,0.9588,0.9588,0.9588,0.9588,0.9588,0.9588,0.9751,0.9999,0.9999,1.0391,1.0939,1.0987,1.1384,1.1908,1.1958,1.2234,1.2543,1.2582,1.259,1.259,1.259,1.2305,1.2075,1.2391,1.2234,1.2091,1.2447,1.2566,1.259,1.259,1.259,1.259,1.259,1.259,1.259,1.259,1.259,1.259,1.259,1.259,1.2652,1.2775,1.2867,1.3133,1.3649,1.4121,1.441,1.4419,1.4373,1.4083,1.348,1.3009,1.2504,1.184,1.1755,1.1714,1.1637,1.2418,1.317,1.3797,1.4046,1.4257,1.4396,1.4373,1.414,1.3716,1.3573,1.3396,0.8282,0.8041,0.7647,0.7129,0.6764,0.6373,0.5737,0.5737,0.584,0.57,0.0,0.0,0.0,0.0,0.0,0.0,0.6219,0.6256,0.6038,0.6186,0.637,0.6557,0.6689,0.6831,0.6943,0.6988,0.7134,0.7441,0.7206,0.7308,0.7908,0.8258,0.8647,0.9064,0.9277,0.9464,0.9655,0.9636,0.9629,0.9629,0.9621,0.9588,0.9588,0.9588,0.9588,0.9588,0.9588,0.9588,0.9588,0.9588,0.9888,1.036,1.036,1.062,1.105,1.1439,1.1773,1.2022,1.2258,1.2463,1.259,1.259,1.259,1.259,1.259,1.2487,1.2369,1.2551,1.2487,1.2399,1.2551,1.259,1.259,1.259,1.259,1.259,1.259,1.259,1.259,1.259,1.259,1.259,1.259,1.259,1.2683,1.2867,1.3133,1.3511,1.4121,1.4677,1.5059,1.5196,1.5098,1.4866,1.4522,1.3877,1.3407,1.3094,1.2698,1.2386,1.2135,1.2677,1.3218,1.3668,1.3962,1.4186,1.4396,1.4396,1.4303,1.414,1.3939,1.3692,0.8692,0.8451,0.8041,0.737,0.695,0.6564,0.606,0.6128,0.6326,0.6397,0.656,0.0,0.0,0.0,0.6618,0.0,0.0,0.6399,0.5876,0.6017,0.6236,0.6428,0.6538,0.6697,0.6956,0.6899,0.6983,0.7247,0.7137,0.7352,0.8025,0.8332,0.8784,0.9435,0.9542,0.9757,1.0076,0.9929,0.9851,0.9799,0.9673,0.9588,0.9588,0.9588,0.9588,0.9588,0.9588,0.9588,0.9588,0.9588,0.9997,1.0601,1.0693,1.0958,1.1336,1.1808,1.2083,1.2202,1.2503,1.259,1.259,1.259,1.259,1.259,1.259,1.259,1.259,1.259,1.259,1.259,1.259,1.259,1.259,1.259,1.259,1.259,1.259,1.259,1.259,1.259,1.259,1.259,1.259,1.259,1.2713,1.3042,1.3398,1.3872,1.4538,1.5147,1.5594,1.574,1.5623,1.5468,1.5362,1.4716,1.4251,1.4138,1.3582,1.3182,1.3003,1.3308,1.3679,1.4091,1.4193,1.4368,1.4604,1.4462,1.4396,1.4396,1.4197,1.401,0.8692,0.8451,0.8041,0.737,0.695,0.6615,0.6346,0.6297,0.6375,0.6629,0.6695,0.6702,0.6702,0.6702,0.0,0.0,0.0,0.0,0.0,0.5803,0.5818,0.5825,0.612,0.6471,0.6864,0.6669,0.6702,0.7167,0.7199,0.7355,0.7695,0.8341,0.8893,0.9283,0.9676,1.0023,1.029,1.0076,0.9921,0.9799,0.9673,0.9588,0.9588,0.9588,0.9588,0.9588,0.9588,0.9588,0.9588,0.9588,0.9997,1.0624,1.0961,1.1456,1.1958,1.1982,1.2242,1.2582,1.259,1.259,1.259,1.259,1.259,1.259,1.259,1.259,1.259,1.259,1.259,1.259,1.259,1.259,1.259,1.259,1.259,1.259,1.259,1.259,1.259,1.259,1.259,1.259,1.259,1.259,1.2775,1.3208,1.37,1.4219,1.4911,1.5507,1.5884,1.5885,1.5894,1.5826,1.5701,1.5468,1.5186,1.4814,1.4383,1.4278,1.4516,1.4673,1.4935,1.5324,1.5028,1.4925,1.5083,1.4613,1.4396,1.4396,1.4384,1.4373,0.9299,0.908,0.8715,0.8034,0.7603,0.7224,0.6684,0.6728,0.6976,0.7297,0.7538,0.7756,0.799,0.7851,0.0,0.0,0.0,0.0,0.0,0.5935,0.5796,0.5796,0.6256,0.6471,0.6262,0.6321,0.6411,0.6526,0.6663,0.6951,0.7412,0.8018,0.868,0.9336,0.9494,0.9842,1.0437,1.0128,0.9973,0.9921,0.9699,0.9588,0.9588,0.9588,0.9588,0.9588,0.9588,0.9588,0.9588,0.9588,1.0123,1.0938,1.1053,1.1628,1.2407,1.2407,1.2487,1.259,1.259,1.259,1.259,1.259,1.259,1.259,1.259,1.259,1.259,1.259,1.259,1.259,1.259,1.259,1.259,1.259,1.259,1.259,1.259,1.259,1.2629,1.2713,1.2805,1.2928,1.3033,1.3155,1.3246,1.342,1.3932,1.4567,1.5186,1.5836,1.622,1.623,1.622,1.622,1.6173,1.6105,1.5883,1.5408,1.5352,1.5233,1.5013,1.5211,1.5377,1.5532,1.5509,1.5382,1.5105,1.4941,1.469,1.4396,1.4396,1.4396,0.9588,0.9402,0.9068,0.8509,0.8129,0.7727,0.7175,0.7319,0.7647,0.7997,0.8231,0.8473,0.8826,0.8502,0.8055,0.0,0.0,0.0,0.0,0.5928,0.5796,0.5796,0.6146,0.6285,0.6057,0.6109,0.6196,0.6291,0.6476,0.679,0.7285,0.7787,0.8425,0.9199,0.9334,0.9684,1.0272,1.0177,1.0076,0.9999,0.9784,0.9647,0.9588,0.9588,0.9588,0.9614,0.9647,0.9673,0.9688,0.9877,1.0431,1.1172,1.1295,1.1895,1.2652,1.2621,1.259,1.259,1.259,1.259,1.259,1.259,1.259,1.259,1.259,1.259,1.259,1.259,1.259,1.259,1.259,1.259,1.259,1.259,1.259,1.259,1.259,1.259,1.2652,1.2836,1.3042,1.3246,1.3519,1.3722,1.3842,1.3761,1.4261,1.4863,1.542,1.6019,1.6413,1.6413,1.6413,1.6413,1.6413,1.6413,1.6278,1.5977,1.6029,1.5966,1.5769,1.593,1.609,1.6207,1.6112,1.5898,1.5607,1.5269,1.4941,1.4624,1.4484,1.4396]}]]